     2.11           OBSERVATION DATA    G (GPS)             RINEX VERSION / TYPE
teqc 2010Oct21 OPUS Account 20111028 16:34:04UTC            PGM / RUN BY / DATE
B 1527                                                      MARKER NAME
3062                                                        MARKER NUMBER
CSMIDDLETON NGS                                             OBSERVER / AGENCY
0220320152 TRIMBLE 5700 2.01                                REC # / TYPE / VERS
12214372 TRM41249.00 NONE                                   ANT # / TYPE
  -738803.5083 -5583011.7706  2984073.6494                  APPROX POSITION XYZ
        2.0000        0.0000        0.0000                  ANTENNA: DELTA H/E/N
     1     1                                                WAVELENGTH FACT L1/2
     5    L1    L2    C1    P1    P2                        # / TYPES OF OBSERV
    15                                                      LEAP SECONDS
  2011     8    24     0     0   30.0000000     GPS         TIME OF FIRST OBS
                                                            END OF HEADER
 11  8 24  0  0 30.0000000  0  9G12G09G17G10G05G04G25G02G30
 -21452862.77757 -16705044.98056  21462260.2974                   21462257.9264
 -13400385.89157 -10430010.93454  23446587.0084                   23446588.8674
 -29770136.08257 -23185554.02055  23011676.6724                   23011676.1604
 -27966127.08258 -21781141.87956  20784942.7504                   20784941.0664
 -17441009.34857 -13578569.62956  21982189.2274                   21982189.9024
 -30621239.59858 -23847840.93056  21511367.7034                   21511366.3914
  -2373300.48457  -1837760.73854  24216789.9144                   24216792.3754
 -31375582.36358 -24436496.22357  20541782.9534                   20541778.8594
   -840375.19956   -642847.76653  24138822.3204                   24138822.2464
 11  8 24  0  1  0.0000000  0  9G12G09G17G10G05G04G25G02G30
 -21543115.68747 -16775371.88346  21445085.5164                   21445083.5824
 -13350578.57047 -10391200.14144  23456064.8984                   23456066.8554
 -29745732.39847 -23166538.23445  23016320.4844                   23016320.5514
 -27995552.84447 -21804071.02346  20779343.0704                   20779341.5944
 -17558822.13347 -13670371.66446  21959770.8364                   21959770.8444
 -30571859.35948 -23809362.83645  21520764.5554                   21520763.2424
  -2500470.64547  -1936854.28144  24192590.1334                   24192592.2934
 -31403984.87548 -24458628.02346  20536378.2274                   20536374.1214
   -969654.91846   -743585.14543  24114221.2814                   24114220.5824
 11  8 24  0  1 30.0000000  0  9G12G09G17G10G05G04G25G02G30
 -21632953.57047 -16845375.38346  21427990.2894                   21427987.6724
 -13300572.19947 -10352234.21944  23465580.3134                   23465582.6954
 -29721168.88747 -23147397.90645  23020994.9304                   23020994.5274
 -28024342.70748 -21826504.65246  20773864.8674                   20773863.1564
 -17676340.54747 -13761944.34846  21937407.7114                   21937407.3794
 -30522325.30548 -23770764.89545  21530190.5394                   21530189.7704
  -2627482.10247  -2035824.15244  24168420.2974                   24168422.9924
 -31432086.84448 -24480525.64147  20531030.5234                   20531026.6094
  -1098719.05546   -844154.53543  24089660.4844                   24089660.9924
 11  8 24  0  2  0.0000000  0  9G12G09G17G10G05G04G25G02G30
 -21722372.09447 -16915052.11346  21410974.4694                   21410971.9774
 -13250368.22747 -10313114.33644  23475134.4064                   23475136.4024
 -29696443.03147 -23128131.08245  23025699.4384                   23025699.8054
 -28052494.34048 -21848440.96946  20768507.5004                   20768505.8554
 -17793559.41047 -13853283.60246  21915101.7664                   21915101.2304
 -30472637.07448 -23732046.81245  21539646.2114                   21539645.0354
  -2754330.26246  -2134666.78944  24144282.2194                   24144284.4304
 -31459887.22747 -24502188.26247  20525740.1254                   20525736.3554
  -1227562.96546   -944552.39142  24065143.3594                   24065141.6914
 11  8 24  0  2 30.0000000  0  9G12G09G17G10G05G04G25G02G30
 -21811369.76647 -16984400.90646  21394038.3364                   21394036.2774
 -13199971.52047 -10273844.29344  23484724.2034                   23484726.9064
 -29671555.73447 -23108738.44545  23030435.5084                   23030436.0394
 -28080008.91047 -21869880.85946  20763271.7424                   20763270.3484
 -17910477.02747 -13944388.12546  21892852.7114                   21892852.6724
 -30422798.29748 -23693211.42245  21549129.6334                   21549129.2194
  -2881013.94146  -2233381.21544  24120174.7194                   24120177.5124
 -31487388.74648 -24523617.98846  20520506.6644                   20520502.8244
  -1356185.07846  -1044777.38343  24040666.6644                   24040665.6054
 11  8 24  0  3  0.0000000  0  9G12G09G17G10G05G04G25G02G30
 -21899946.64147 -17053421.80546  21377182.8984                   21377180.7384
 -13149387.30147 -10234428.11744  23494350.3364                   23494352.3834
 -29646508.03947 -23089220.82445  23035201.9694                   23035202.2934
 -28106888.10548 -21890825.66846  20758156.8524                   20758155.3834
 -18027092.61747 -14035257.29346  21870661.2504                   21870661.1214
 -30372812.94948 -23654261.83245  21558641.7584                   21558640.5864
  -3007532.37546  -2331966.89144  24096098.5004                   24096101.4184
 -31514594.21948 -24544817.03947  20515329.9304                   20515325.8794
  -1484584.60546  -1144828.96943  24016232.9774                   24016232.8954
 11  8 24  0  3 30.0000000  0  9G12G09G17G10G05G04G25G02G30
 -21988096.86347 -17122110.25446  21360408.8204                   21360406.2424
 -13098615.52747 -10194865.79744  23504012.1174                   23504014.4304
 -29621296.15247 -23069575.26245  23039999.9144                   23040000.1054
 -28133128.18048 -21911272.45746  20753163.2034                   20753161.6884
 -18143399.49247 -14125885.91046  21848528.6254                   21848528.4454
 -30322679.40248 -23615196.75845  21568181.8364                   21568180.8674
  -3133879.52046  -2430419.07444  24072056.0784                   24072058.5124
 -31541501.39847 -24565783.64847  20510209.6884                   20510205.6884
  -1612755.11346  -1244701.97343  23991842.8524                   23991842.5594
 11  8 24  0  4  0.0000000  0  9G12G09G17G10G05G04G25G02G30
 -22075818.23047 -17190464.52346  21343715.7114                   21343713.2194
 -13047660.57447 -10155160.71944  23513708.5234                   23513710.8634
 -29595919.93747 -23049801.66444  23044829.3134                   23044829.1914
 -28158729.54348 -21931221.53946  20748291.4844                   20748290.4344
 -18259396.10547 -14216272.76246  21826455.4774                   21826454.8634
 -30272400.68048 -23576018.56246  21577749.8054                   21577748.4654
  -3260053.73846  -2528736.55144  24048045.9774                   24048047.3794
 -31568112.41447 -24586519.48047  20505145.8054                   20505141.7234
  -1740694.75846  -1344395.14543  23967496.8134                   23967496.1414
 11  8 24  0  4 30.0000000  0  9G12G09G17G10G05G04G25G02G30
 -22163108.48047 -17258482.87146  21327104.6564                   21327102.6884
 -12996525.34447 -10115315.17644  23523439.2974                   23523441.2814
 -29570378.41047 -23029899.25445  23049689.6174                   23049689.4734
 -28183691.46548 -21950672.35546  20743541.8284                   20743540.1294
 -18375078.82047 -14306415.02346  21804441.5864                   21804441.1414
 -30221978.28948 -23536728.42245  21587344.9384                   21587344.2424
  -3386051.97747  -2626916.87944  24024069.6954                   24024070.5744
 -31594427.80948 -24607024.95746  20500138.2034                   20500133.6564
  -1868400.30146  -1443905.89143  23943194.8134                   23943194.4924
 11  8 24  0  5  0.0000000  0  9G12G09G17G10G05G04G25G02G30
 -22249966.59448 -17326164.48446  21310576.1804                   21310573.8404
 -12945214.33247 -10075332.66044  23533204.1254                   23533205.9494
 -29544672.24247 -23009868.54344  23054581.0944                   23054581.1564
 -28208015.18747 -21969625.86746  20738912.7274                   20738911.0824
 -18490446.39547 -14396311.70346  21782487.7974                   21782487.5004
 -30171415.55948 -23497328.92645  21596966.7194                   21596965.7464
  -3511872.82447  -2724959.02344  24000126.2734                   24000127.9774
 -31620450.14848 -24627302.07047  20495186.0474                   20495182.0164
  -1995870.04347  -1543232.84043  23918938.1174                   23918938.2034
 11  8 24  0  5 30.0000000  0  9G12G09G17G10G05G04G25G02G30
 -22336390.16447 -17393507.49646  21294130.2974                   21294127.8874
 -12893731.05546 -10035215.89544  23543000.4064                   23543002.1524
 -29518801.15647 -22989709.31645  23059504.2734                   23059504.3914
 -28231700.70748 -21988082.08646  20734405.4774                   20734404.3404
 -18605495.51247 -14485960.24646  21760594.6414                   21760593.7154
 -30120714.34448 -23457821.52746  21606614.5634                   21606614.1914
  -3637513.64547  -2822860.86744  23976217.6564                   23976218.7464
 -31646180.30148 -24647351.51246  20490290.1484                   20490285.2934
  -2123101.22746  -1642373.91844  23894726.6804                   23894727.2544
 11  8 24  0  6  0.0000000  0  9G12G09G17G10G05G04G25G02G30
 -20846951.28947 -16232905.73846  21577560.8834                   21577559.0944
 -11266658.11746  -8767366.94544  23852622.0314                   23852624.4924
 -27917342.96547 -21741819.89544  23364251.7504                   23364251.8674
 -26679324.12548 -20778437.96146  21029813.4614                   21029811.6914
 -17144797.13747 -13347753.60546  22038555.8054                   22038555.6804
 -28494455.75847 -22190607.07845  21916081.5164                   21916080.6484
  -2187545.13747  -1693015.20344  24252137.2664                   24252139.6094
 -30096196.16047 -23439571.62947  20785241.7504                   20785237.7504
   -674664.27047   -513721.62144  24170355.0784                   24170355.5664
 11  8 24  0  6 30.0000000  0  9G12G09G17G10G05G04G25G02G30
 -20932494.60247 -16299562.84046  21561282.7274                   21561280.3634
 -11214836.39147  -8726986.49244  23862483.6094                   23862485.5274
 -27891136.21947 -21721399.10544  23369238.5084                   23369238.5164
 -26701727.92648 -20795895.45346  21025549.8524                   21025548.3834
 -17259197.15647 -13436896.36346  22016786.4454                   22016785.5354
 -28443479.41448 -22150885.27745  21925782.3984                   21925781.3444
  -2312814.15247  -1790627.33244  24228299.4614                   24228301.4654
 -30121341.60548 -23459165.46147  20780456.9224                   20780452.8554
   -801405.78146   -612481.11743  24146237.1644                   24146236.8594
 11  8 24  0  7  0.0000000  0  9G12G09G17G10G05G04G25G02G30
 -21017595.46947 -16365875.16846  21545088.8204                   21545086.5274
 -11162851.25047  -8686478.69944  23872376.2894                   23872378.2774
 -27864761.41447 -21700847.35944  23374258.2034                   23374257.5164
 -26723491.85948 -20812854.34846  21021408.1644                   21021406.4494
 -17373269.00047 -13525783.39846  21995079.0084                   21995078.3834
 -28392369.46548 -22111059.38345  21935507.7344                   21935506.9104
  -2437894.28947  -1888092.30544  24204497.3754                   24204498.8794
 -30146197.31248 -23478533.51647  20775727.1174                   20775722.9264
   -927899.30546   -711047.37143  24122166.5634                   24122165.9494
 11  8 24  0  7 30.0000000  0  9G12G09G17G10G05G04G25G02G30
 -21102249.95347 -16431839.68046  21528979.1564                   21528977.2274
 -11110705.28546  -8645845.56644  23882299.1174                   23882301.7974
 -27838216.68447 -21680163.21144  23379309.1804                   23379309.2344
 -26744614.96548 -20829313.89146  21017388.4224                   21017387.0704
 -17487008.89847 -13614411.78146  21973435.2734                   21973434.7384
 -28341126.61748 -22071129.92645  21945259.4614                   21945258.0704
  -2562781.71947  -1985407.10544  24180732.1254                   24180734.2894
 -30170763.52047 -23497675.98847  20771051.9224                   20771047.8794
  -1054140.78546   -809417.21544  24098142.5634                   24098142.4614
 11  8 24  0  8  0.0000000  0  9G12G09G17G10G05G04G25G02G30
 -21186459.16847 -16497457.23446  21512954.6334                   21512952.7774
 -11058404.85546  -8605092.08244  23892251.6724                   23892254.1524
 -27811505.17247 -21659349.09044  23384391.9064                   23384392.1094
 -26765100.06248 -20845276.28546  21013490.1334                   21013488.6844
 -17600417.40247 -13702781.93446  21951854.2974                   21951853.6914
 -28289756.04748 -22031100.93445  21955034.7034                   21955033.9144
  -2687477.10247  -2082572.27344  24157003.3204                   24157004.5664
 -30195044.50448 -23516596.21147  20766431.7504                   20766427.8014
  -1180130.54346   -907590.93444  24074168.2504                   24074167.5904
 11  8 24  0  8 30.0000000  0  9G12G09G17G10G05G04G25G02G30
 -21270219.36348 -16562724.90246  21497015.6644                   21497013.6294
 -11005951.49247  -8564219.44544  23902233.6564                   23902235.6724
 -27784624.41447 -21638403.08644  23389508.0634                   23389507.5554
 -26784945.41048 -20860740.17246  21009713.8444                   21009712.3634
 -17713489.57847 -13790890.01646  21930336.9614                   21930336.5434
 -28238258.01648 -21990972.61345  21964834.5634                   21964833.5984
  -2811976.07847  -2179584.39544  24133311.8364                   24133313.3484
 -30219039.58248 -23535293.65247  20761865.5634                   20761861.0044
  -1305864.13346  -1005565.02343  24050241.1484                   24050241.7304
 11  8 24  0  9  0.0000000  0  9G12G09G17G10G05G04G25G02G30
 -21353528.00847 -16627640.71146  21481162.4384                   21481160.4064
 -10953348.71146  -8523230.38344  23912243.2894                   23912245.9614
 -27757573.78947 -21617324.71944  23394655.0314                   23394654.9264
 -26804151.29748 -20875705.78146  21006059.2194                   21006057.3524
 -17826222.96147 -13878734.09846  21908884.4924                   21908884.1604
 -28186634.28947 -21950746.34045  21974658.2274                   21974657.1134
  -2936276.09446  -2276441.47344  24109658.1724                   24109659.9224
 -30242750.26248 -23553769.48446  20757353.4694                   20757349.2624
  -1431338.75046  -1103337.32843  24026364.5864                   24026364.4344
 11  8 24  0  9 30.0000000  0  9G12G09G17G10G05G04G25G02G30
 -21436381.19147 -16692201.61746  21465395.7734                   21465393.9344
 -10900598.45346  -8482126.38744  23922281.6094                   23922283.9844
 -27730351.02747 -21596112.20744  23399835.2344                   23399835.3954
 -26822716.02048 -20890171.78146  21002526.4924                   21002524.5784
 -17938613.24247 -13966310.83646  21887497.3524                   21887496.7154
 -28134885.28147 -21910422.43745  21984505.7584                   21984504.8594
  -3060372.62947  -2373140.00444  24086043.7734                   24086045.7114
 -30266175.45748 -23572022.86746  20752895.7974                   20752891.3554
  -1556549.83646  -1200904.34443  24002537.3984                   24002536.9804
 11  8 24  0 10  0.0000000  0  9G12G09G17G10G05G04G25G02G30
 -21518778.20348 -16756407.07046  21449716.4454                   21449714.4614
 -10847705.12947  -8440910.88344  23932346.8284                   23932349.8134
 -27702956.92647 -21574766.18744  23405048.5234                   23405048.8164
 -26840641.19548 -20904139.43046  20999115.3204                   20999113.6804
 -18050658.52747 -14053618.75046  21866175.6094                   21866174.9654
 -28083014.16448 -21870003.39845  21994376.5004                   21994375.5084
  -3184264.52047  -2469679.08644  24062467.6174                   24062469.3834
 -30289317.94547 -23590055.95347  20748491.8914                   20748487.7114
  -1681495.83646  -1298264.80143  23978761.2034                   23978760.6254
 11  8 24  0 10 30.0000000  0  9G12G09G17G10G05G04G25G02G30
 -21600714.60247 -16820253.60946  21434124.5864                   21434122.3554
 -10794670.52347  -8399585.32043  23942439.1724                   23942441.5784
 -27675389.03547 -21553284.73844  23410294.4534                   23410294.4264
 -26857925.04748 -20917607.34046  20995826.5004                   20995824.9224
 -18162354.11747 -14140654.17246  21844920.4384                   21844920.1214
 -28031021.00048 -21829489.25445  22004269.8364                   22004269.4574
  -3307947.25847  -2566055.16044  24038931.5944                   24038933.6294
 -30312176.91047 -23607868.11746  20744142.0554                   20744137.9064
  -1806172.11346  -1395415.12143  23955035.7424                   23955035.0084
 11  8 24  0 11  0.0000000  0  9G12G09G17G10G05G04G25G02G30
 -21682186.89548 -16883738.50046  21418621.2344                   21418618.6724
 -10741495.92647  -8358150.65644  23952557.9694                   23952560.5824
 -27647645.37947 -21531666.34044  23415574.1724                   23415574.0354
 -26874565.81648 -20930574.14146  20992659.5394                   20992658.1954
 -18273695.78147 -14227413.82046  21823732.8284                   21823732.4574
 -27978905.88348 -21788880.08645  22014187.6954                   22014186.5744
  -3431416.42246  -2662264.83244  24015436.0004                   24015437.7934
 -30334752.11348 -23625459.16446  20739846.0634                   20739841.9654
  -1930574.03146  -1492351.60943  23931362.8834                   23931363.0784
 11  8 24  0 11 30.0000000  0  9G12G09G17G10G05G04G25G02G30
 -21763195.66848 -16946862.21146  21403205.8134                   21403203.1374
 -10688187.76647  -8316611.93744  23962702.7034                   23962704.7934
 -27619728.25447 -21509912.76245  23420886.2344                   23420886.0824
 -26890566.73448 -20943042.35946  20989614.8134                   20989613.1134
 -18384683.69147 -14313897.80546  21802612.6254                   21802612.3794
 -27926673.66048 -21748179.66045  22024126.9774                   22024126.0354
  -3554672.37547  -2758308.37544  23991980.9224                   23991982.8554
 -30357047.69148 -23642832.31646  20735603.5394                   20735599.2854
  -2054701.75446  -1589074.48443  23907742.4224                   23907741.4264
 11  8 24  0 12  0.0000000  0  9G12G09G17G10G05G04G25G02G30
 -21843738.58648 -17009622.91446  21387878.6564                   21387876.3284
 -10634749.57846  -8274971.85244  23972871.3674                   23972873.6334
 -27591637.23847 -21488023.71944  23426231.5784                   23426231.9224
 -26905928.02348 -20955012.16046  20986691.4844                   20986690.2114
 -18495315.07847 -14400103.98046  21781560.0864                   21781559.7154
 -27874326.44948 -21707389.64145  22034088.7814                   22034087.5394
  -3677712.68047  -2854183.88344  23968567.2114                   23968569.3914
 -30379064.91047 -23659988.57047  20731413.4844                   20731409.4964
  -2178552.74247  -1685581.69144  23884174.6094                   23884173.7154
 11  8 24  0 12 30.0000000  0  9G12G09G17G10G05G04G25G02G30
 -21923813.23848 -17072018.73046  21372641.0704                   21372638.9734
 -10581184.00047  -8233232.53144  23983064.6254                   23983067.8444
 -27563370.67247 -21465997.89844  23431610.8444                   23431610.9104
 -26920649.18448 -20966483.16446  20983890.2114                   20983888.7424
 -18605586.56647 -14486029.73046  21760576.0234                   21760575.4344
 -27821865.23048 -21666510.77745  22044071.4224                   22044070.5234
  -3800533.76247  -2949888.57045  23945194.4774                   23945196.8554
 -30400804.26247 -23676928.30947  20727276.5474                   20727272.7114
  -2302123.21147  -1781870.32044  23860659.6334                   23860659.0204
 11  8 24  0 13  0.0000000  0  9G12G09G17G10G05G04G25G02G30
 -22003416.82048 -17134047.48046  21357493.1334                   21357490.6994
 -10527493.98447  -8191396.21944  23993281.6334                   23993283.7934
 -27534928.21147 -21443835.01244  23437023.2734                   23437023.2234
 -26934730.11348 -20977455.28546  20981210.4844                   20981208.7344
 -18715495.09047 -14571672.63746  21739661.2424                   21739660.5554
 -27769291.44948 -21625544.19945  22054075.7424                   22054074.6954
  -3923132.70347  -3045420.15244  23921865.7424                   23921867.4844
 -30422266.16048 -23693651.85247  20723192.6644                   20723188.6374
  -2425409.94946  -1877937.83244  23837198.9774                   23837198.2544
 11  8 24  0 13 30.0000000  0  9G12G09G17G10G05G04G25G02G30
 -22082546.96948 -17195707.31646  21342434.9694                   21342432.7194
 -10473682.75447  -8149465.47744  24003521.5314                   24003524.0514
 -27506309.03147 -21421534.41844  23442469.5004                   23442469.6214
 -26948171.02048 -20987928.68046  20978652.8524                   20978651.1134
 -18825037.53947 -14657030.29746  21718815.7894                   21718815.3524
 -27716606.87948 -21584491.31245  22064101.4844                   22064100.9804
  -4045506.61347  -3140776.38744  23898578.3754                   23898579.6954
 -30443452.05548 -23710160.32847  20719160.9384                   20719157.1604
  -2548410.16047  -1973782.07444  23813792.6724                   23813791.8754
 11  8 24  0 14  0.0000000  0  9G12G09G17G10G05G04G25G02G30
 -22161199.53148 -17256995.00446  21327467.6804                   21327465.3014
 -10419751.56647  -8107441.26644  24013784.7584                   24013786.9804
 -27477510.21147 -21399093.83244  23447950.1094                   23447949.9654
 -26960970.10948 -20997901.96946  20976217.3134                   20976215.4494
 -18934209.36347 -14742099.15246  21698041.2194                   21698040.0704
 -27663811.18748 -21543351.83245  22074147.8834                   22074147.2194
  -4167650.93447  -3235953.72344  23875335.0164                   23875336.3444
 -30464361.07447 -23726453.05146  20715182.3524                   20715177.9384
  -2671118.84046  -2069399.12943  23790441.7664                   23790441.5634
 11  8 24  0 14 30.0000000  0  9G12G09G17G10G05G04G25G02G30
 -22239375.34848 -17317911.19146  21312591.4304                   21312588.9964
 -10365706.91847  -8065328.62144  24024068.7814                   24024071.3444
 -27448534.57047 -21376515.48044  23453463.8134                   23453463.8244
 -26973131.21548 -21007378.12546  20973902.9694                   20973901.4024
 -19043010.44947 -14826879.13346  21677336.7734                   21677336.0394
 -27610909.50848 -21502129.77345  22084214.9614                   22084214.2274
  -4289565.96947  -3330952.35944  23852135.4924                   23852136.4654
 -30484997.34048 -23742533.24247  20711255.3134                   20711251.3164
  -2793536.19946  -2164789.19544  23767146.5084                   23767145.8164
 11  8 24  0 15  0.0000000  0  9G12G09G17G10G05G04G25G02G30
 -22317072.70348 -17378454.55146  21297805.7194                   21297803.3244
 -10311552.17647  -8023130.19144  24034374.5784                   24034376.5274
 -27419381.59047 -21353798.96144  23459011.6954                   23459011.3674
 -26984654.50048 -21016357.28546  20971710.2504                   20971708.3834
 -19151438.53947 -14911368.45746  21656703.5314                   21656702.7234
 -27557903.57847 -21460826.48045  22094302.1484                   22094300.2734
  -4411249.28547  -3425770.45744  23828979.6564                   23828980.6134
 -30505362.37148 -23758402.08647  20707379.8444                   20707375.9414
  -2915659.71146  -2259950.30144  23743907.1564                   23743906.5354
 11  8 24  0 15 30.0000000  0  9G12G09G17G10G05G04G25G02G30
 -22394288.19548 -17438622.43446  21283112.4774                   21283109.8054
 -10257289.47346  -7980847.63344  24044700.4144                   24044702.5354
 -27390050.14847 -21330943.37144  23464593.1954                   23464593.3834
 -26995539.61748 -21024839.17646  20969638.9224                   20969637.1484
 -19259490.03547 -14995564.33646  21636142.0394                   21636141.2704
 -27504794.14847 -21419442.54745  22104408.1334                   22104407.2194
  -4532697.10247  -3520405.02744  23805868.8524                   23805870.1174
 -30525456.14848 -23774059.56247  20703556.2344                   20703552.3914
  -3037485.36346  -2354879.30144  23720724.1334                   23720723.9304
 11  8 24  0 16  0.0000000  0  9G12G09G17G10G05G04G25G02G30
 -22471019.22347 -17498412.80946  21268510.8674                   21268508.5004
 -10202921.56247  -7938483.14144  24055047.0084                   24055048.6374
 -27360538.81247 -21307947.62144  23470209.1024                   23470209.7734
 -27005786.31248 -21032823.59846  20967688.8834                   20967687.5514
 -19367161.45747 -15079464.05146  21615652.6724                   21615651.8484
 -27451582.65648 -21377979.07845  22114533.9224                   22114532.8014
  -4653906.20347  -3614853.59044  23782802.9144                   23782804.6994
 -30545279.45748 -23789506.28147  20699784.0784                   20699780.1454
  -3159009.78946  -2449573.58244  23697598.6724                   23697598.3204
 11  8 24  0 16 30.0000000  0  9G12G09G17G10G05G04G25G02G30
 -22547262.09048 -17557822.79746  21254002.5784                   21254000.3134
 -10148450.34047  -7896038.14844  24065411.3054                   24065414.2974
 -27330845.50047 -21284810.07044  23475859.3674                   23475859.6884
 -27015393.57448 -21040309.76246  20965860.7894                   20965858.7274
 -19474448.54347 -15163064.28946  21595236.4774                   21595236.0314
 -27398269.07447 -21336436.06245  22124679.4144                   22124678.0744
  -4774872.31247  -3709112.79744  23759783.8754                   23759785.8134
 -30564831.69548 -23804741.77747  20696063.2114                   20696059.2234
  -3280228.54746  -2544029.68443  23674531.4144                   23674531.4024
 11  8 24  0 17  0.0000000  0  9G12G09G17G10G05G04G25G02G30
 -22623014.73048 -17616850.78946  21239587.2894                   21239584.9534
 -10093879.25047  -7853515.32844  24075796.2894                   24075798.9734
 -27300969.91447 -21261530.46144  23481544.5784                   23481545.0554
 -27024361.86748 -21047298.02746  20964153.8364                   20964152.5474
 -19581348.76647 -15246363.07846  21574893.9774                   21574893.2424
 -27344855.17247 -21294814.88345  22134843.6334                   22134842.5514
  -4895592.82447  -3803180.62144  23736811.7664                   23736813.6174
 -30584114.35948 -23819767.21546  20692393.8594                   20692389.5824
  -3401138.88346  -2638245.40044  23651523.2664                   23651522.7304
 11  8 24  0 17 30.0000000  0  9G12G09G17G10G05G04G25G02G30
 -22698275.69147 -17675495.65646  21225265.4694                   21225263.0984
 -10039211.85946  -7810917.48844  24086199.1954                   24086202.1844
 -27270911.59447 -21238108.45744  23487264.5084                   23487265.3954
 -27032692.00848 -21053789.03946  20962568.8134                   20962567.1024
 -19687859.56247 -15329358.41046  21554625.5474                   21554625.0234
 -27291343.25047 -21253117.31245  22145026.5314                   22145025.5554
  -5016065.36747  -3897055.23444  23713886.7504                   23713888.2854
 -30603128.68448 -23834583.55946  20688775.5704                   20688771.5824
  -3521738.26647  -2732218.90243  23628573.1254                   23628573.1334
 11  8 24  0 18  0.0000000  0  9G12G09G17G10G05G04G25G02G30
 -22773042.75447 -17733755.67646  21211037.3834                   21211035.0434
  -9984451.12547  -7768246.91044  24096619.8754                   24096622.7304
 -27240670.10947 -21214543.72744  23493019.5474                   23493020.0824
 -27040384.29348 -21059783.02046  20961105.0164                   20961103.3244
 -19793978.36347 -15412048.29746  21534432.0234                   21534431.1724
 -27237734.91447 -21211344.62145  22155227.8524                   22155226.7814
  -5136287.28547  -3990734.55144  23691008.9534                   23691010.0164
 -30621875.99648 -23849191.84047  20685208.1334                   20685203.8554
  -3642023.87946  -2825947.90644  23605683.9844                   23605683.7074
 11  8 24  0 18 30.0000000  0  9G12G09G17G10G05G04G25G02G30
 -22847315.77348 -17791630.71946  21196903.9614                   21196901.4064
  -9929602.36346  -7725507.76644  24107057.7504                   24107060.3404
 -27210246.98847 -21190837.46944  23498809.0784                   23498809.0864
 -27047441.58648 -21065282.20346  20959762.0944                   20959760.6914
 -19899704.57848 -15494432.26646  21514312.9454                   21514312.0044
 -27184033.59847 -21169499.47745  22165447.0164                   22165446.1804
  -5256257.77047  -4084217.96144  23668179.3364                   23668180.5084
 -30640359.48848 -23863594.53946  20681690.4144                   20681686.6214
  -3761994.71547  -2919431.58644  23582854.5084                   23582853.7814
 11  8 24  0 19  0.0000000  0  9G12G09G17G10G05G04G25G02G30
 -22921092.27348 -17849118.86346  21182864.8984                   21182862.4774
  -9874668.57446  -7682702.33243  24117510.8674                   24117514.1804
 -27179641.18747 -21166988.85944  23504632.7194                   23504634.0164
 -27053863.98448 -21070286.66846  20958540.1724                   20958538.3834
 -20005035.12147 -15576507.91846  21494269.2034                   21494267.9064
 -27130240.81647 -21127583.05945  22175683.1644                   22175682.7464
  -5375973.60247  -4177502.92244  23645397.7274                   23645399.8364
 -30658579.95348 -23877792.28547  20678223.3134                   20678219.5124
  -3881647.47347  -3012667.42244  23560085.3674                   23560084.5434
 11  8 24  0 19 30.0000000  0  9G12G09G17G10G05G04G25G02G30
 -22994367.92648 -17906216.75046  21168920.7584                   21168918.5704
  -9819650.62146  -7639831.34843  24127980.6174                   24127983.1254
 -27148850.09047 -21142995.86744  23510492.2344                   23510492.8634
 -27059649.84448 -21074795.13346  20957438.8594                   20957437.3054
 -20109964.81248 -15658271.22346  21474301.6644                   21474300.7854
 -27076356.01647 -21085594.94545  22185937.8444                   22185936.4024
  -5495429.94147  -4270585.69544  23622666.3524                   23622668.0664
 -30676536.19548 -23891784.14147  20674806.2974                   20674802.2664
  -4000977.19147  -3105651.54744  23537377.6024                   23537376.8164
 11  8 24  0 20  0.0000000  0  9G12G09G17G10G05G04G25G02G30
 -23067142.21548 -17962923.96146  21155072.0554                   21155069.9224
  -9764553.25046  -7596898.44943  24138466.3524                   24138467.8014
 -27117874.41447 -21118859.05944  23516386.8134                   23516387.6294
 -27064801.04748 -21078809.05946  20956458.8134                   20956457.1564
 -20214492.39848 -15739721.19946  21454410.5394                   21454409.3874
 -27022381.96547 -21043537.28545  22196208.4144                   22196207.4924
  -5614625.40647  -4363465.16045  23599983.6254                   23599985.2734
 -30694230.67248 -23905572.01246  20671439.4694                   20671435.1604
  -4119982.22747  -3198382.66844  23514731.7814                   23514730.4654
 11  8 24  0 20 30.0000000  0  9G12G09G17G10G05G04G25G02G30
 -23139411.02048 -18019237.29346  21141320.0314                   21141317.7774
  -9709377.44146  -7553904.42243  24148964.8754                   24148967.8954
 -27086711.81647 -21094576.57444  23522316.3594                   23522317.5984
 -27069316.11748 -21082327.29346  20955599.6254                   20955598.1484
 -20318613.01648 -15820854.05546  21434596.9144                   21434595.7304
 -26968318.49647 -21001409.94145  22206496.3834                   22206495.6844
  -5733555.17247  -4456137.61345  23577352.2344                   23577353.9184
 -30711662.57048 -23919155.29346  20668122.0944                   20668117.9384
  -4238657.81247  -3290857.06244  23492148.2814                   23492147.4964
 11  8 24  0 21  0.0000000  0  9G12G09G17G10G05G04G25G02G30
 -23211173.89848 -18075156.40246  21127664.0784                   21127661.4494
  -9654127.82446  -7510852.92643  24159478.6174                   24159481.3674
 -27055362.83647 -21070148.85544  23528282.3754                   23528283.2114
 -27073197.06648 -21085351.40646  20954861.0394                   20954859.1724
 -20422325.77348 -15901669.09846  21414860.9694                   21414860.2034
 -26914168.21947 -20959214.95745  22216801.0554                   22216799.8954
  -5852217.75447  -4548601.85545  23554771.4224                   23554772.8164
 -30728834.27048 -23932535.81246  20664854.2894                   20664850.0004
  -4357002.16847  -3383073.35544  23469628.3134                   23469626.8984
 11  8 24  0 21 30.0000000  0  9G12G09G17G10G05G04G25G02G30
 -23282430.61348 -18130681.09046  21114104.3914                   21114101.6684
  -9598809.83646  -7467748.14143  24170006.1484                   24170008.3014
 -27023829.44147 -21045577.44544  23534283.0784                   23534283.8524
 -27076447.10948 -21087883.90246  20954242.5864                   20954240.6414
 -20525630.14148 -15982165.91846  21395202.8674                   21395201.5514
 -26859935.45347 -20916955.69545  22227121.1644                   22227120.3914
  -5970612.80947  -4640857.63345  23532241.8284                   23532243.2274
 -30745749.14548 -23945716.20747  20661635.6644                   20661631.4264
  -4475014.89847  -3475031.24244  23447170.9614                   23447170.0474
 11  8 24  0 22  0.0000000  0  9G12G09G17G10G05G04G25G02G30
 -23353178.07448 -18185808.96146  21100641.4774                   21100638.9264
  -9543425.37147  -7424591.53144  24180545.5314                   24180548.2854
 -26992109.16847 -21020860.42244  23540319.4384                   23540320.0204
 -27079065.59448 -21089924.28146  20953744.3524                   20953742.7114
 -20628522.07448 -16062341.36746  21375623.0634                   21375622.2504
 -26805620.19147 -20874632.15245  22237456.7034                   22237456.1374
  -6088736.03147  -4732901.59445  23509764.1024                   23509764.9734
 -30762407.16848 -23958696.46946  20658465.7344                   20658461.6524
  -4592691.59447  -3566727.30143  23424777.6414                   23424776.8444
 11  8 24  0 22 30.0000000  0  9G12G09G17G10G05G04G25G02G30
 -23423414.53948 -18240538.65646  21087276.0474                   21087273.7034
  -9487977.70747  -7381385.71544  24191096.9614                   24191100.2624
 -26960202.23047 -20995997.91044  23546391.2974                   23546391.4774
 -27081053.32448 -21091473.16046  20953366.0864                   20953364.3554
 -20730999.12948 -16142193.53146  21356122.0394                   21356121.4734
 -26751224.16047 -20832245.68445  22247808.2274                   22247806.7894
  -6206585.11347  -4824731.92245  23487337.6724                   23487338.7584
 -30778809.91048 -23971477.80546  20655344.3914                   20655339.8954
  -4710029.72747  -3658159.50844  23402449.0004                   23402447.8754
 11  8 24  0 23  0.0000000  0  9G12G09G17G10G05G04G25G02G30
 -23493137.11748 -18294867.92246  21074007.9534                   21074005.6994
  -9432468.81246  -7338132.14844  24201659.7894                   24201662.9344
 -26928107.31646 -20970988.93044  23552498.6024                   23552499.2234
 -27082409.98448 -21092530.29346  20953107.9694                   20953106.2274
 -20833057.67648 -16221719.58646  21336701.0004                   21336700.1374
 -26696748.08247 -20789796.84445  22258174.6254                   22258173.8324
  -6324156.25447  -4916345.67644  23464964.3674                   23464965.4144
 -30794957.25048 -23984060.12946  20652271.4534                   20652267.4224
  -4827025.46946  -3749324.93044  23380185.5944                   23380184.2234
 11  8 24  0 23 30.0000000  0  9G12G09G17G10G05G04G25G02G30
 -23562347.17648 -18348797.82446  21060837.7894                   21060835.1484
  -9376905.66846  -7294836.29344  24212233.3054                   24212236.6174
 -26895827.33646 -20945835.73844  23558641.5704                   23558642.3404
 -27083140.16848 -21093099.26646  20952968.7974                   20952967.6764
 -20934698.52048 -16300920.15246  21317359.0864                   21317357.9574
 -26642197.17647 -20747289.66845  22268555.4844                   22268554.4654
  -6441450.24647  -5007743.46545  23442643.6484                   23442645.6804
 -30810853.87548 -23996447.08246  20649246.9304                   20649242.3484
  -4943679.44546  -3840224.01644  23357986.6484                   23357985.8204
 11  8 24  0 24  0.0000000  0  9G12G09G17G10G05G04G25G02G30
 -23631042.16448 -18402326.37546  21047765.5004                   21047763.0354
  -9321290.73047  -7251500.08644  24222816.7344                   24222819.8204
 -26863360.89546 -20920537.26644  23564819.4454                   23564820.2424
 -27083243.77348 -21093179.98446  20952949.4224                   20952947.4804
 -21035918.48048 -16379792.77346  21298097.7974                   21298096.4264
 -26587571.99247 -20704724.60945  22278950.5394                   22278949.4344
  -6558463.46947  -5098922.49245  23420376.6724                   23420378.3164
 -30826499.97748 -24008638.84046  20646269.2034                   20646264.9964
  -5059987.83647  -3930853.80544  23335853.6334                   23335853.8054
 11  8 24  0 24 30.0000000  0  9G12G09G17G10G05G04G25G02G30
 -23699218.73848 -18455450.96146  21034792.0784                   21034789.2854
  -9265625.16446  -7208124.43744  24233409.6564                   24233412.7384
 -26830705.67646 -20895091.70344  23571033.1174                   23571034.3984
 -27082720.05548 -21092771.87946  20953049.2974                   20953047.0474
 -21136713.09448 -16458333.94546  21278917.0004                   21278915.9654
 -26532872.25847 -20662101.46545  22289359.1644                   22289358.5394
  -6675191.53547  -5189879.32045  23398164.6334                   23398165.7974
 -30841895.37148 -24020635.23447  20643339.3054                   20643335.3204
  -5175946.27747  -4021210.90644  23313787.4924                   23313786.9264
 11  8 24  0 25  0.0000000  0  9G12G09G17G10G05G04G25G02G30
 -23766877.28948 -18508171.88746  21021916.9534                   21021914.4654
  -9209914.78546  -7164713.84044  24244010.9064                   24244014.3324
 -26797863.74646 -20869500.62144  23577283.3984                   23577283.8634
 -27081572.22348 -21091877.44946  20953266.9694                   20953265.4844
 -21237082.58648 -16536543.85946  21259817.0944                   21259815.9734
 -26478102.34447 -20619423.62545  22299781.2814                   22299780.7974
  -6791634.27346  -5280613.80945  23376005.8054                   23376006.9064
 -30857043.62548 -24032439.05546  20640457.0394                   20640452.7504
  -5291554.36346  -4111295.00044  23291787.9694                   23291787.9734
 11  8 24  0 25 30.0000000  0  9G12G09G17G10G05G04G25G02G30
 -23834014.56648 -18560486.62946  21009141.3444                   21009138.9494
  -9154161.39847  -7121269.76644  24254620.1484                   24254623.1054
 -26764833.39146 -20843762.72744  23583569.2034                   23583569.1564
 -27079799.94147 -21090496.42646  20953604.6644                   20953602.6334
 -21337022.70348 -16614419.19946  21240799.1334                   21240798.1294
 -26423262.31647 -20576691.16045  22310217.5004                   22310216.3444
  -6907787.59846  -5371122.81244  23353902.7114                   23353903.3984
 -30871944.60548 -24044050.19546  20637621.4454                   20637617.0474
  -5406808.00046  -4201102.88744  23269856.3284                   23269855.0124
 11  8 24  0 26  0.0000000  0  9G12G09G17G10G05G04G25G02G30
 -23900630.00448 -18612394.74246  20996464.5864                   20996462.1684
  -9098369.47346  -7077795.64844  24265237.3054                   24265240.5514
 -26731615.41046 -20817878.63744  23589890.0944                   23589890.4344
 -27077405.76648 -21088630.80146  20954060.2034                   20954058.3954
 -21436532.59048 -16691959.28946  21221863.0164                   21221862.1134
 -26368354.97747 -20533906.23045  22320665.7664                   22320665.1604
  -7023650.03947  -5461405.15644  23331854.4614                   23331855.5354
 -30886600.39848 -24055470.28546  20634832.6094                   20634828.2034
  -5521705.62947  -4290633.37544  23247991.3524                   23247990.6254
 11  8 24  0 26 30.0000000  0  9G12G09G17G10G05G04G25G02G30
 -23966719.17648 -18663892.78146  20983888.3054                   20983885.9224
  -9042539.35546  -7034291.80143  24275861.0634                   24275864.6094
 -26698206.42246 -20791845.68444  23596247.6334                   23596247.6334
 -27074387.21947 -21086278.66046  20954634.6094                   20954632.8524
 -21535606.80148 -16769159.89146  21203010.2344                   21203008.8134
 -26313378.96147 -20491067.79345  22331127.6484                   22331126.5474
  -7139215.98047  -5551456.48845  23309862.6024                   23309863.5664
 -30901009.42648 -24066698.08646  20632090.3834                   20632086.2854
  -5636241.45346  -4379881.95344  23226196.2424                   23226195.1764
 11  8 24  0 27  0.0000000  0  9G12G09G17G10G05G04G25G02G30
 -24032281.39148 -18714980.19146  20971412.2194                   20971409.5784
  -8986675.02046  -6990761.27344  24286491.8524                   24286496.0634
 -26664607.24646 -20765664.55944  23602641.5394                   23602642.1054
 -27070746.89548 -21083442.02046  20955327.1174                   20955325.4534
 -21634243.96148 -16846019.93746  21184240.0004                   21184238.6684
 -26258336.96147 -20448177.93745  22341601.8134                   22341600.8984
  -7254483.84847  -5641275.55544  23287928.0164                   23287929.6054
 -30915174.38348 -24077735.71146  20629394.9454                   20629390.6764
  -5750413.92246  -4468847.41844  23204469.6644                   23204468.5164
 11  8 24  0 27 30.0000000  0  9G12G09G17G10G05G04G25G02G30
 -24097314.10248 -18765655.00846  20959036.9064                   20959034.2234
  -8930779.43746  -6947206.41444  24297128.7974                   24297132.4104
 -26630816.94946 -20739334.52344  23609072.0474                   23609071.8524
 -27066485.71948 -21080121.59446  20956137.9844                   20956136.4614
 -21732441.48448 -16922537.41046  21165553.5084                   21165552.3244
 -26203230.36347 -20405237.74645  22352088.2814                   22352086.8954
  -7369450.80546  -5730860.18045  23266050.5084                   23266052.0944
 -30929095.81248 -24088583.57047  20626745.8284                   20626741.6524
  -5864219.97346  -4557527.35944  23182812.5944                   23182812.0634
 11  8 24  0 28  0.0000000  0  9G12G09G17G10G05G04G25G02G30
 -24161816.65248 -18815916.71146  20946762.3134                   20946760.0204
  -8874856.50046  -6903630.21544  24307770.9844                   24307774.2624
 -26596836.19546 -20712856.07844  23615537.6174                   23615538.3674
 -27061605.05548 -21076318.46146  20957066.9064                   20957065.2734
 -21830197.09848 -16998710.53546  21146951.2344                   21146949.8674
 -26148060.86747 -20362248.53545  22362586.7114                   22362585.7704
  -7484114.54747  -5820208.55145  23244231.3134                   23244231.9384
 -30942775.56248 -24099243.10547  20624142.7344                   20624138.4884
  -5977657.27347  -4645920.00044  23161226.9454                   23161225.6024
 11  8 24  0 28 30.0000000  0  9G12G09G17G10G05G04G25G02G30
 -24225788.57848 -18865764.93046  20934589.0314                   20934586.7424
  -8818910.72746  -6860036.25043  24318416.9224                   24318420.3714
 -26562665.55146 -20686229.68044  23622040.4384                   23622041.0864
 -27056107.41047 -21072034.55546  20958112.7974                   20958111.3094
 -21927509.86348 -17074538.59046  21128433.1724                   21128431.8324
 -26092831.57847 -20319212.73045  22373096.3914                   22373095.5164
  -7598473.78147  -5909319.66445  23222469.4304                   23222470.1644
 -30956216.18048 -24109716.31246  20621585.1024                   20621580.9454
  -6090724.48847  -4734024.24644  23139710.6884                   23139709.4614
 11  8 24  0 29  0.0000000  0  9G12G09G17G10G05G04G25G02G30
 -24289223.00048 -18915194.32046  20922517.9064                   20922515.4494
  -8762940.05546  -6816422.89543  24329067.8524                   24329071.8524
 -26528299.84046 -20659451.29344  23628580.6024                   23628580.9414
 -27049988.76248 -21067266.74246  20959277.1724                   20959275.5044
 -22024371.69548 -17150015.25846  21110000.9304                   21109999.3404
 -26037538.77047 -20276127.44145  22383618.0864                   22383617.1094
  -7712520.58247  -5998187.34445  23200766.8914                   23200768.0434
 -30969413.63748 -24120000.04746  20619073.5864                   20619069.4184
  -6203413.72347  -4821834.00044  23118266.4534                   23118265.4144
 11  8 24  0 29 30.0000000  0  9G12G09G17G10G05G04G25G02G30
 -24352120.95348 -18964205.68046  20910548.6954                   20910545.9734
  -8706950.00846  -6772794.41043  24339722.6884                   24339725.7734
 -26493740.75846 -20632522.21944  23635156.8284                   23635157.3244
 -27043253.24248 -21062018.25446  20960559.0944                   20960557.2734
 -22120783.85548 -17225141.53946  21091653.8284                   21091652.7384
 -25982186.60547 -20232995.89545  22394151.1884                   22394150.3834
  -7826254.99647  -6086811.57445  23179124.1024                   23179124.9494
 -30982371.90248 -24130097.39546  20616607.8834                   20616603.6174
  -6315724.79347  -4909349.08644  23096894.2664                   23096893.4414
 11  8 24  0 30  0.0000000  0  9G12G09G17G10G05G04G25G02G30
 -24414482.20748 -19012798.84046  20898681.7814                   20898679.2344
  -8650945.28546  -6729154.50043  24350379.7424                   24350383.4614
 -26458989.77046 -20605443.62544  23641769.3914                   23641769.9574
 -27035903.15247 -21056290.88746  20961957.7894                   20961955.8554
 -22216744.83648 -17299916.25846  21073393.2664                   21073391.8404
 -25926778.12547 -20189820.47345  22404695.4774                   22404694.5634
  -7939675.75447  -6175191.40645  23157540.6334                   23157541.3794
 -30995093.49648 -24140010.32446  20614186.9454                   20614182.6764
  -6427656.39847  -4996568.48844  23075594.5634                   23075593.0514
 11  8 24  0 30 30.0000000  0  9G12G09G17G10G05G04G25G02G30
 -24476303.48848 -19060971.23846  20886917.6024                   20886914.9494
  -8594927.23446  -6685504.23043  24361040.0784                   24361042.8404
 -26424044.78546 -20578213.84844  23648419.4614                   23648420.3284
 -27027937.99648 -21050084.25846  20963473.5634                   20963471.7154
 -22312250.99648 -17374336.57446  21055218.8754                   21055217.5944
 -25871312.89547 -20146600.82045  22415249.8914                   22415249.0594
  -8052778.53947  -6263323.45345  23136018.1644                   23136018.9614
 -31007578.07448 -24149738.56646  20611811.0864                   20611806.9734
  -6539204.23447  -5083488.86344  23054367.3834                   23054366.8204
 11  8 24  0 31  0.0000000  0  9G12G09G17G10G05G04G25G02G30
 -24537583.46948 -19108721.84046  20875256.0084                   20875253.5164
  -8538899.13346  -6641846.09043  24371701.9384                   24371704.9344
 -26388905.55146 -20550832.68744  23655105.7974                   23655107.1914
 -27019359.16448 -21043399.43446  20965106.0704                   20965104.1644
 -22407299.81648 -17448400.51646  21037131.6804                   21037130.3834
 -25815792.77347 -20103338.39845  22425815.2814                   22425814.4104
  -8165560.80547  -6351205.72745  23114556.5864                   23114557.2074
 -31019826.89548 -24159283.09446  20609480.0864                   20609476.0084
  -6650365.63347  -5170108.13744  23033214.6174                   23033212.6804
 11  8 24  0 31 30.0000000  0  9G12G09G17G10G05G04G25G02G30
 -24598320.85948 -19156049.66046  20863698.1174                   20863695.8634
  -8482864.93746  -6598183.22343  24382364.9844                   24382367.8324
 -26353572.02746 -20523300.12144  23661829.6724                   23661830.9304
 -27010168.73048 -21036238.03946  20966854.7894                   20966853.0164
 -22501889.68748 -17522106.83646  21019131.9694                   21019130.4224
 -25760219.65647 -20060034.68745  22436390.4614                   22436389.3714
  -8278020.37547  -6438836.52045  23093156.2114                   23093157.0434
 -31031841.64148 -24168645.23846  20607193.8364                   20607189.3554
  -6761138.40647  -5256424.59044  23012134.6334                   23012133.3284
 11  8 24  0 32  0.0000000  0  9G12G09G17G10G05G04G25G02G30
 -24658511.25848 -19202951.24246  20852244.3674                   20852241.8284
  -8426824.77746  -6554515.69943  24393029.1564                   24393032.7814
 -26318041.14146 -20495613.78544  23668590.8914                   23668592.2424
 -27000365.37948 -21028599.04746  20968720.1024                   20968718.2584
 -22596015.46148 -17595451.52746  21001220.5234                   21001218.7074
 -25704592.42647 -20016688.80945  22446975.9844                   22446975.0704
  -8390151.94547  -6526211.70745  23071817.8674                   23071818.8634
 -31043620.98848 -24177823.94946  20604952.5554                   20604948.2894
  -6871517.10247  -5342433.96544  22991130.3134                   22991129.0044
 11  8 24  0 32 30.0000000  0  9G12G09G17G10G05G04G25G02G30
 -24718157.45348 -19249428.77746  20840894.1174                   20840891.4414
  -8370785.78946  -6510849.07043  24403693.5234                   24403696.1214
 -26282317.11746 -20467776.95744  23675389.6254                   23675390.1914
 -26989954.34848 -21020486.53546  20970701.4304                   20970699.1914
 -22689678.77348 -17668435.86346  20983396.5164                   20983395.1454
 -25648916.18747 -19973304.75845  22457570.8444                   22457569.7424
  -8501956.77347  -6613332.28545  23050542.1024                   23050543.1804
 -31055170.05148 -24186823.22346  20602754.8054                   20602750.6994
  -6981502.98847  -5428137.23044  22970200.6954                   22970199.1604
 11  8 24  0 33  0.0000000  0  9G12G09G17G10G05G04G25G02G30
 -24777257.17248 -19295480.49646  20829647.9924                   20829645.5164
  -8314750.30946  -6467185.17243  24414356.4144                   24414359.4964
 -26246398.57446 -20439788.53544  23682224.8984                   23682225.6054
 -26978936.10548 -21011900.87146  20972798.0084                   20972796.1334
 -22782876.59448 -17741057.47346  20965661.5234                   20965660.5044
 -25593191.78147 -19929883.16444  22468175.2274                   22468174.0124
  -8613431.50047  -6700195.61745  23029329.1334                   23029330.4454
 -31066489.14148 -24195643.30146  20600600.6174                   20600596.4144
  -7091092.57047  -5513531.68744  22949346.8524                   22949345.1724
 11  8 24  0 33 30.0000000  0  9G12G09G17G10G05G04G25G02G30
 -24835807.65248 -19341104.23046  20818505.7034                   20818503.2624
  -8258720.19146  -6423525.44143  24425018.6884                   24425021.1094
 -26210283.87546 -20411647.26244  23689097.0554                   23689097.8444
 -26967310.95748 -21002842.29346  20975009.7734                   20975008.2464
 -22875605.14148 -17813313.41446  20948015.9144                   20948014.4614
 -25537419.45347 -19886424.24645  22478787.9224                   22478787.0944
  -8724572.29747  -6786798.74245  23008179.4064                   23008180.5824
 -31077578.41448 -24204284.29746  20598490.5864                   20598486.2584
  -7200282.00047  -5598614.32844  22928568.4144                   22928567.4534
 11  8 24  0 34  0.0000000  0  9G12G09G17G10G05G04G25G02G30
 -24893805.85248 -19386297.61746  20807469.3754                   20807466.9964
  -8202697.41446  -6379871.45743  24435680.2504                   24435682.5394
 -26173971.77746 -20383352.16044  23696007.0784                   23696007.8954
 -26955079.35948 -20993311.16846  20977337.8284                   20977336.1294
 -22967861.93448 -17885201.75446  20930459.9924                   20930458.3484
 -25481599.71947 -19842928.37945  22489410.0944                   22489409.1804
  -8835375.60547  -6873138.89145  22987094.0234                   22987095.9574
 -31088438.13348 -24212746.42646  20596424.1174                   20596419.9614
  -7309067.71546  -5683382.36744  22907867.4534                   22907865.9224
 11  8 24  0 34 30.0000000  0  9G12G09G17G10G05G04G25G02G30
 -24951254.87948 -19431063.08646  20796537.1724                   20796534.6414
  -8146689.10246  -6336228.73443  24446337.9534                   24446340.7774
 -26137465.77046 -20354905.95344  23702953.6804                   23702954.8524
 -26942246.48448 -20983311.51246  20979779.8984                   20979777.7464
 -23059648.30948 -17956723.54346  20912993.5784                   20912991.9804
 -25425737.70347 -19799399.57845  22500039.7664                   22500039.2814
  -8945842.46947  -6959216.87945  22966072.5704                   22966074.0664
 -31099073.19548 -24221033.49646  20594400.0554                   20594395.8914
  -7417450.63347  -5767836.53544  22887242.6884                   22887241.5554
 11  8 24  0 35  0.0000000  0  9G12G09G17G10G05G04G25G02G30
 -25008151.20748 -19475397.88346  20785710.1174                   20785707.2544
  -8090695.94946  -6292597.78543  24456993.2424                   24456996.6684
 -26100763.40647 -20326306.76644  23709937.8054                   23709938.6764
 -26928811.51648 -20972842.69546  20982336.2584                   20982334.7544
 -23150959.78548 -18027875.27346  20895617.7584                   20895616.3054
 -25369832.38347 -19755837.02745  22510678.9774                   22510677.9414
  -9055968.00847  -7045028.89845  22945116.5944                   22945117.6484
 -31109482.42248 -24229144.59046  20592419.3444                   20592415.1644
  -7525425.86347  -5851973.03544  22866695.6644                   22866694.6994
 11  8 24  0 35 30.0000000  0  9G12G09G17G10G05G04G25G02G30
 -25064492.15648 -19519299.90646  20774988.7814                   20774986.1214
  -8034720.57047  -6248980.69543  24467644.8364                   24467648.7344
 -26063863.96947 -20297553.99244  23716960.0084                   23716960.8054
 -26914775.53148 -20961905.55946  20985007.5704                   20985005.6484
 -23241793.42248 -18098654.66446  20878332.5004                   20878331.1374
 -25313884.73047 -19712241.50845  22521325.3134                   22521324.4574
  -9165749.13747  -7130572.54745  22924225.9064                   22924227.0904
 -31119666.69548 -24237080.39546  20590481.5234                   20590477.0664
  -7632990.35247  -5935789.46944  22846226.7584                   22846225.9964
 11  8 24  0 36  0.0000000  0  9G12G09G17G10G05G04G25G02G30
 -25120275.95748 -19562767.79746  20764373.4384                   20764370.7664
  -7978764.73446  -6205378.85244  24478292.7814                   24478296.5474
 -26026766.08647 -20268646.61344  23724019.6174                   23724020.7234
 -26900139.35548 -20950500.73846  20987792.4064                   20987790.6484
 -23332146.08248 -18169059.27046  20861138.7194                   20861137.4534
 -25257895.27747 -19668613.41845  22531979.7664                   22531978.9454
  -9275182.21547  -7215845.00445  22903401.5314                   22903402.2814
 -31129626.06648 -24244840.94146  20588586.0864                   20588582.2194
  -7740140.40647  -6019282.94944  22825836.7734                   22825835.6024
 11  8 24  0 36 30.0000000  0  9G12G09G17G10G05G04G25G02G30
 -23600078.81648 -18378198.59446  21053657.6414                   21053654.5944
  -6347413.46147  -4934196.12943  24788728.7664                   24788732.5944
 -24414050.61747 -19011985.28144  24030909.2734                   24030909.8094
 -25309484.85248 -19711029.68746  21290483.7504                   21290481.9144
 -21846592.79748 -17011485.21546  21143830.0234                   21143828.7464
 -23626447.18747 -18397355.20745  22842434.0864                   22842433.0124
  -7808841.05147  -6073241.43045  23182436.9694                   23182437.6254
 -29563941.63348 -23024827.10246  20886526.1254                   20886521.8914
  -6271449.97747  -4874848.80144  23105319.1174                   23105318.1524
 11  8 24  0 37  0.0000000  0  9G12G09G17G10G05G04G25G02G30
 -23654743.88748 -18420794.74246  21043254.6414                   21043252.4024
  -6291506.60947  -4890632.43444  24799367.5554                   24799371.2504
 -24376555.00847 -18982768.00044  24038044.3674                   24038045.3404
 -25293652.52048 -19698692.79346  21293496.5784                   21293494.8634
 -21935977.60248 -17081135.63746  21126820.8674                   21126819.4414
 -23570378.15247 -18353665.09445  22853103.5554                   22853102.8324
  -7917570.45347  -6157965.57045  23161746.5634                   23161747.0124
 -29573455.30948 -23032240.35946  20884715.4304                   20884711.5944
  -6377763.59047  -4957690.52044  23085088.5004                   23085087.0004
 11  8 24  0 37 30.0000000  0  9G12G09G17G10G05G04G25G02G30
 -23708847.64848 -18462953.51246  21032959.0164                   21032956.8014
  -6235628.78947  -4847091.38343  24810001.2034                   24810004.8594
 -24338860.30946 -18953395.59044  24045217.5784                   24045218.2114
 -25277224.57048 -19685891.78146  21296622.8524                   21296621.0864
 -22024875.40648 -17150406.58646  21109904.0554                   21109902.5594
 -23514271.33247 -18309945.55145  22863780.5004                   22863779.7114
  -8025944.25447  -6242412.64145  23141123.5634                   23141124.0744
 -29582747.85548 -23039481.30546  20882947.3134                   20882943.1054
  -6483655.08647  -5040203.32044  23064937.7894                   23064936.6374
 11  8 24  0 38  0.0000000  0  9G12G09G17G10G05G04G25G02G30
 -23762391.36748 -18504675.87146  21022770.3054                   21022767.6454
  -6179785.41846  -4803577.16044  24820627.6724                   24820631.5274
 -24300968.90246 -18923869.90244  24052427.9384                   24052428.9774
 -25260205.15248 -19672629.89146  21299861.2194                   21299859.7194
 -22113286.59048 -17219298.34846  21093080.1254                   21093078.7424
 -23458130.70347 -18266199.64845  22874463.5554                   22874462.6884
  -8133962.25847  -6326582.46545  23120568.4384                   23120569.3554
 -29591823.00448 -23046552.84046  20881220.3984                   20881216.2974
  -6589124.41447  -5122387.15644  23044867.3524                   23044866.5274
 11  8 24  0 38 30.0000000  0  9G12G09G17G10G05G04G25G02G30
 -23815372.71948 -18545960.03146  21012688.2114                   21012685.5704
  -6123978.78946  -4760091.55943  24831247.5314                   24831251.5744
 -24262879.66046 -18894190.03944  24059676.1094                   24059677.0744
 -25242595.04748 -19658907.72746  21303212.9614                   21303210.7934
 -22201208.21148 -17287808.63746  21076348.8364                   21076347.2734
 -23401956.90247 -18222427.91844  22885153.4774                   22885152.7234
  -8241621.03147  -6410472.37945  23100081.2424                   23100082.0904
 -29600681.22348 -23053455.34846  20879534.8054                   20879530.4064
  -6694168.04347  -5204239.27744  23024878.3594                   23024877.3444
 11  8 24  0 39  0.0000000  0  9G12G09G17G10G05G04G25G02G30
 -23867790.25048 -18586804.84846  21002713.5004                   21002710.9064
  -6068211.47246  -4716636.62143  24841859.2194                   24841864.1454
 -24224592.04346 -18864355.62144  24066962.2274                   24066963.3284
 -25224395.87548 -19644726.54346  21306675.8674                   21306674.0904
 -22288637.80148 -17355935.52346  21059711.3834                   21059709.7854
 -23345750.59047 -18178630.84844  22895849.1954                   22895848.3484
  -8348917.72747  -6494080.14845  23079663.2034                   23079664.4144
 -29609323.15648 -23060189.30546  20877890.1024                   20877885.8524
  -6798783.05147  -5285757.39544  23004970.1254                   23004969.6134
 11  8 24  0 39 30.0000000  0  9G12G09G17G10G05G04G25G02G30
 -23919640.97348 -18627207.98846  20992846.5704                   20992844.1054
  -6012484.67246  -4673213.22343  24852463.9534                   24852468.0634
 -24186103.69946 -18834364.77344  24074285.9534                   24074287.1954
 -25205607.21548 -19630086.00846  21310251.0784                   21310249.3794
 -22375571.51248 -17423676.01646  21043168.4534                   21043167.1254
 -23289511.45347 -18134808.19144  22906550.8134                   22906550.5864
  -8455847.90247  -6577402.31645  23059315.1094                   23059316.6094
 -29617748.34848 -23066754.37146  20876286.8674                   20876282.8204
  -6902965.15647  -5366938.19144  22985145.5164                   22985144.4304
 11  8 24  0 40  0.0000000  0  9G12G09G17G10G05G04G25G02G30
 -23970925.65648 -18667170.06646  20983087.4064                   20983084.9344
  -5956803.12946  -4629825.10243  24863059.7194                   24863063.8874
 -24147416.67646 -18804219.13344  24081647.6564                   24081648.9304
 -25186232.73048 -19614989.00846  21313938.0004                   21313936.1294
 -22462009.27748 -17491030.06246  21026719.9924                   21026718.3834
 -23233242.69947 -18090962.44144  22917258.6484                   22917258.1484
  -8562410.93447  -6660438.41045  23039036.8594                   23039038.0594
 -29625960.12948 -23073153.14846  20874724.1254                   20874719.7894
  -7006713.65247  -5447781.10244  22965402.4614                   22965401.5354
 11  8 24  0 40 30.0000000  0  9G12G09G17G10G05G04G25G02G30
 -24021639.93748 -18706687.67646  20973436.8054                   20973434.2424
  -5901166.81246  -4586472.25443  24873647.6884                   24873651.3594
 -24108527.47746 -18773915.93444  24089048.9774                   24089049.5984
 -25166270.89547 -19599434.33246  21317736.3754                   21317734.6644
 -22547945.58248 -17557993.35546  21010366.7894                   21010364.8984
 -23176942.18747 -18047091.94944  22927972.1334                   22927971.6484
  -8668601.02047  -6743183.89545  23018829.6884                   23018830.9574
 -29633956.34448 -23079383.94546  20873202.4144                   20873198.1254
  -7110022.82447  -5528281.68444  22945743.4844                   22945742.5594
 11  8 24  0 41  0.0000000  0  9G12G09G17G10G05G04G25G02G30
 -24071781.91048 -18745759.32446  20963894.9614                   20963892.3404
  -5845578.38746  -4543156.72343  24884225.4454                   24884229.6994
 -24069435.58646 -18743454.77744  24096486.8594                   24096489.3094
 -25145723.43447 -19583423.31646  21321646.5314                   21321645.3484
 -22633378.65648 -17624564.52346  20994109.3204                   20994107.5904
 -23120611.25847 -18003197.74644  22938691.8914                   22938691.0664
  -8774415.37947  -6825636.60245  22998694.1174                   22998695.1524
 -29641737.69948 -23085447.32446  20871721.6414                   20871718.0904
  -7212889.86747  -5608437.75444  22926168.5554                   22926167.7304
 11  8 24  0 41 30.0000000  0  9G12G09G17G10G05G04G25G02G30
 -24121351.73048 -18784385.13746  20954462.1724                   20954459.6134
  -5790041.40646  -4499881.26243  24894793.1644                   24894798.4064
 -24030141.29746 -18712835.92244  24103965.1954                   24103966.4694
 -25124592.61747 -19566957.74646  21325667.7424                   21325666.0944
 -22718307.42248 -17690742.73046  20977948.1414                   20977946.1764
 -23064251.52047 -17959281.09444  22949416.5084                   22949415.7974
  -8879851.93447  -6907794.92645  22978630.1724                   22978631.1054
 -29649305.88748 -23091344.59446  20870281.3284                   20870277.7544
  -7315312.68047  -5688247.67244  22906678.0554                   22906676.7344
 11  8 24  0 42  0.0000000  0  9G12G09G17G10G05G04G25G02G30
 -24170347.54748 -18822563.67646  20945138.5474                   20945136.2304
  -5734558.57046  -4456648.03543  24905352.7894                   24905356.3094
 -23990644.68446 -18682059.41844  24111481.1644                   24111482.7344
 -25102880.00047 -19550038.81246  21329799.7504                   21329797.7114
 -22802729.08248 -17756525.78947  20961883.1094                   20961881.3874
 -23007864.06247 -17915342.85944  22960146.7424                   22960146.3324
  -8984907.94548  -6989656.72745  22958638.8284                   22958639.7464
 -29656662.07447 -23097076.67246  20868881.9694                   20868877.5434
  -7417288.64847  -5767709.41044  22887272.8594                   22887271.2194
 11  8 24  0 42 30.0000000  0  9G12G09G17G10G05G04G25G02G30
 -24218765.28948 -18860291.77046  20935924.7344                   20935922.7894
  -5679129.64546  -4413456.79343  24915899.5784                   24915903.8324
 -23950942.04746 -18651122.35244  24119035.9694                   24119037.5234
 -25080584.13748 -19532665.41846  21334042.2734                   21334040.2934
 -22886638.48448 -17821909.69147  20945915.5234                   20945913.6804
 -22951446.95747 -17871381.51244  22970882.2664                   22970882.0314
  -9089577.66848  -7071217.50845  22938720.7664                   22938721.4614
 -29663804.31248 -23102642.03546  20867522.5784                   20867518.6024
  -7518812.02347  -5846818.48844  22867953.9774                   22867952.6914
 11  8 24  0 43  0.0000000  0  9G12G09G17G10G05G04G25G02G30
 -24266609.13748 -18897572.67646  20926820.5164                   20926818.0864
  -5623762.88346  -4370313.96943  24926435.3834                   24926439.9304
 -23911038.40246 -18620028.66043  24126630.1414                   24126631.0984
 -25057712.27748 -19514843.19146  21338394.6484                   21338393.0204
 -22970039.26648 -17886897.25846  20930045.0474                   20930043.1094
 -22895006.78547 -17827402.18744  22981622.5474                   22981622.1884
  -9193863.89548  -7152479.46945  22918875.8054                   22918876.4734
 -29670738.89148 -23108045.58646  20866202.9064                   20866198.6254
  -7619885.61747  -5925577.06644  22848719.5704                   22848718.1334
 11  8 24  0 43 30.0000000  0  9G12G09G17G10G05G04G25G02G30
 -24313877.51648 -18934405.16046  20917825.5704                   20917822.8444
  -5568460.44546  -4327221.26243  24936959.3444                   24936963.1294
 -23870933.00447 -18588777.73043  24134261.2664                   24134262.5704
 -25034265.55948 -19496573.02346  21342856.5634                   21342854.4964
 -23052928.62948 -17951486.32046  20914271.5084                   20914269.5824
 -22838544.14547 -17783405.34044  22992367.4144                   22992366.5824
  -9297763.45348  -7233440.11345  22899104.2814                   22899105.4964
 -29677466.51248 -23113287.87146  20864922.5314                   20864918.6804
  -7720506.32447  -6003982.75044  22829571.9144                   22829571.0434
 11  8 24  0 44  0.0000000  0  8G12G17G10G05G04G25G02G30
 -24360569.01648 -18970788.13746  20908940.8284                   20908938.0354
 -23830625.23446 -18557369.10543  24141931.5944                   24141933.2074
 -25010245.95747 -19477856.44946  21347427.4454                   21347425.2934
 -23135304.68448 -18015675.39847  20898595.8134                   20898593.8834
 -22782059.87147 -17739391.62544  23003115.9384                   23003115.1724
  -9401273.63348  -7314097.35245  22879406.8594                   22879407.6564
 -29683988.14548 -23118369.64146  20863681.8054                   20863677.5634
  -7820671.49647  -6082033.48045  22810511.3674                   22810510.6684
 11  8 24  0 44 30.0000000  0  8G12G17G10G05G04G25G02G30
 -24406679.18448 -19006718.12546  20900166.3914                   20900163.7194
 -23790111.90646 -18525800.30943  24149641.2194                   24149642.2814
 -24985651.78947 -19458692.16046  21352107.1414                   21352105.2344
 -23217162.16048 -18079460.39546  20883018.8674                   20883016.6844
 -22725551.90247 -17695359.48444  23013868.8284                   23013868.1644
  -9504388.33248  -7394446.41045  22859784.6884                   22859785.4774
 -29690301.09448 -23123288.80146  20862480.4844                   20862476.1764
  -7920375.05547  -6159724.51645  22791538.6414                   22791536.8754
 11  8 24  0 45  0.0000000  0  8G12G17G10G05G04G25G02G30
 -24452201.75448 -19042190.24647  20891503.5084                   20891500.6294
 -23749387.29346 -18494066.88343  24157391.2504                   24157391.6214
 -24960479.37147 -19439077.28946  21356897.7974                   21356895.7274
 -23298493.53948 -18142835.45347  20867541.7734                   20867539.8834
 -22669015.73047 -17651305.35944  23024627.5704                   23024627.2274
  -9607099.69148  -7474481.17645  22840239.5704                   22840239.9964
 -29696401.53148 -23128042.36346  20861319.6484                   20861315.4414
  -8019609.19547  -6237049.77344  22772654.8284                   22772653.0904
 11  8 24  0 45 30.0000000  0  8G12G17G10G05G04G25G02G30
 -24497129.65648 -19077198.98446  20882954.1724                   20882951.1484
 -23708445.60546 -18462164.29743  24165182.2114                   24165182.8914
 -24934724.66847 -19419008.69546  21361798.1564                   21361796.5554
 -23379291.42248 -18205794.78946  20852166.3134                   20852164.7074
 -22612447.05947 -17607225.93044  23035392.6024                   23035392.0394
  -9709399.36747  -7554195.15245  22820772.6024                   22820772.6884
 -29702284.80548 -23132626.70746  20860200.0234                   20860195.8404
  -8118365.62547  -6314002.78144  22753861.7274                   22753860.1024
 11  8 24  0 46  0.0000000  0  8G12G17G10G05G04G25G02G30
 -24541466.21548 -19111746.94546  20874517.1024                   20874514.3134
 -23667290.58646 -18430095.47743  24173013.3364                   24173014.2664
 -24908393.98048 -19398491.28146  21366809.2894                   21366807.2664
 -23459558.17248 -18268340.25847  20836892.5634                   20836890.4884
 -22555850.98847 -17563125.13744  23046162.6804                   23046161.7504
  -9811289.10547  -7633589.68445  22801383.0704                   22801384.0124
 -29707956.14148 -23137045.89846  20859120.7034                   20859116.6604
  -8216646.09847  -6390584.91844  22735160.0314                   22735158.3954
 11  8 24  0 46 30.0000000  0  8G12G17G10G05G04G25G02G30
 -24585213.75848 -19145835.92246  20866192.0944                   20866189.5664
 -23625925.21146 -18397862.76243  24180884.4844                   24180885.7934
 -24881492.39148 -19377529.00046  21371928.1174                   21371926.2894
 -23539294.84048 -18330472.67646  20821718.8984                   20821717.0084
 -22499231.64547 -17519006.21144  23056937.0314                   23056936.2894
  -9912769.28547  -7712665.07445  22782072.1884                   22782072.4384
 -29713419.29348 -23141302.87946  20858081.2814                   20858076.6884
  -8314451.10247  -6466796.56644  22716548.0004                   22716546.6724
 11  8 24  0 47  0.0000000  0  8G12G17G10G05G04G25G02G30
 -24628373.88748 -19179467.18046  20857979.2274                   20857976.3554
 -23584352.18046 -18365468.24243  24188796.3054                   24188797.0744
 -24854024.52348 -19356125.46945  21377155.0474                   21377153.2384
 -23618502.57448 -18392192.94146  20806646.2034                   20806644.0394
 -22442593.03947 -17474872.27744  23067714.3594                   23067714.1214
 -10013840.07847  -7791421.46145  22762838.7584                   22762839.2624
 -29718678.54348 -23145400.96146  20857080.6254                   20857076.1254
  -8411780.89547  -6542637.92645  22698026.7974                   22698025.1334
 11  8 24  0 47 30.0000000  0  8G12G17G10G05G04G25G02G30
 -24670947.24248 -19212641.21146  20849877.7814                   20849874.8364
 -23542572.74646 -18332912.87943  24196747.0554                   24196747.2504
 -24825993.94948 -19334283.46146  21382489.0554                   21382487.0664
 -23697180.85948 -18453500.64547  20791673.9384                   20791672.1994
 -22385937.60247 -17430725.25444  23078496.0864                   23078495.4844
 -10114500.62947  -7869858.19545  22743683.5474                   22743683.9804
 -29723736.25448 -23149342.01646  20856117.9454                   20856113.7384
  -8508634.68747  -6618108.35945  22679595.8834                   22679595.0084
 11  8 24  0 48  0.0000000  0  8G12G17G10G05G04G25G02G30
 -24712933.23448 -19245357.55546  20841888.4454                   20841885.2854
 -23500587.48046 -18300197.16443  24204735.7274                   24204737.1604
 -24797403.48448 -19312005.18046  21387929.7114                   21387927.9104
 -23775328.89848 -18514395.16847  20776802.5234                   20776800.9534
 -22329267.36747 -17386566.69144  23089279.7974                   23089279.2814
 -10214749.16447  -7947973.85545  22724606.7814                   22724607.5904
 -29728594.34448 -23153127.51646  20855193.3834                   20855189.0514
  -8605010.79747  -6693206.57045  22661256.5944                   22661255.0004
 11  8 24  0 48 30.0000000  0  8G12G17G10G05G04G25G02G30
 -24754331.76248 -19277616.14846  20834010.0634                   20834007.4804
 -23458396.29346 -18267320.94944  24212765.2894                   24212765.9534
 -24768255.19948 -19289292.23046  21393476.9384                   21393474.9884
 -23852944.58248 -18574874.87547  20762033.3594                   20762031.3984
 -22272583.04747 -17342397.14845  23100066.8834                   23100066.5124
 -10314583.04347  -8025766.43045  22705608.5704                   22705609.8594
 -29733253.84048 -23156758.27046  20854306.6564                   20854302.4574
  -8700906.64147  -6767930.56245  22643007.5234                   22643006.2894
 11  8 24  0 49  0.0000000  0  8G12G17G10G05G04G25G02G30
 -24795140.15248 -19309414.88346  20826244.0394                   20826241.5784
 -23415997.70746 -18234283.13344  24220833.6174                   24220834.6564
 -24738549.56248 -19266144.98846  21399129.4454                   21399127.5744
 -23930025.01648 -18634937.49646  20747365.2894                   20747363.2034
 -22215884.46147 -17298216.48444  23110856.1254                   23110855.5394
 -10413998.53947  -8103232.99245  22686690.4694                   22686691.7504
 -29737714.54348 -23160234.13346  20853457.7894                   20853453.6484
  -8796318.57047  -6842277.46145  22624851.3754                   22624850.0904
 11  8 24  0 49 30.0000000  0  8G12G17G10G05G04G25G02G30
 -24835360.16448 -19340755.14546  20818590.6954                   20818588.0354
 -23373394.41046 -18201085.78544  24228940.3364                   24228942.2114
 -24708291.36348 -19242567.16846  21404887.0084                   21404885.3444
 -24006571.09448 -18694583.73847  20732798.8914                   20732796.7664
 -22159175.31646 -17254027.59444  23121647.5394                   23121646.9574
 -10512995.75447  -8180373.62545  22667852.9454                   22667852.9024
 -29741980.09848 -23163557.92246  20852646.1724                   20852641.9804
  -8891246.88747  -6916247.53145  22606787.1484                   22606785.6454
 11  8 24  0 50  0.0000000  0  8G12G17G10G05G04G25G02G30
 -24874992.95748 -19371637.83246  20811048.8444                   20811046.2734
 -23330587.74646 -18167729.97344  24237086.1094                   24237087.9924
 -24677484.54748 -19218561.86346  21410749.6804                   21410747.8244
 -24082582.96548 -18753813.71947  20718334.2344                   20718332.4144
 -22102458.57847 -17209832.77044  23132440.0704                   23132440.2274
 -10611574.00447  -8257187.79745  22649093.8284                   22649094.2664
 -29746053.46148 -23166731.96146  20851871.1334                   20851866.8554
  -8985690.85247  -6989840.20345  22588814.9384                   22588813.7974
 11  8 24  0 50 30.0000000  0  8G12G17G10G05G04G25G02G30
 -24914035.84848 -19402060.85946  20803619.2194                   20803616.6684
 -23287575.94946 -18134214.31644  24245271.4614                   24245273.0634
 -24646129.15248 -19194129.07445  21416716.4304                   21416714.6294
 -24158056.92648 -18812624.53547  20703971.9064                   20703969.8794
 -22045733.08246 -17165631.12144  23143234.8204                   23143234.4884
 -10709728.88747  -8333672.07045  22630415.2344                   22630416.1764
 -29749933.54748 -23169755.39546  20851132.5784                   20851128.3594
  -9079646.20347  -7063052.12545  22570936.3754                   22570934.3984
 11  8 24  0 51  0.0000000  0  8G12G17G10G05G04G25G02G30
 -24952486.50848 -19432022.40646  20796302.6094                   20796299.8484
 -23244357.25046 -18100537.44144  24253495.2504                   24253497.2504
 -24614225.72348 -19169269.26646  21422786.9774                   21422785.4414
 -24232990.14548 -18871014.00447  20689712.5164                   20689711.0394
 -21988998.41047 -17121422.33244  23154030.9614                   23154030.6454
 -10807456.29347  -8409823.25045  22611818.4384                   22611818.6134
 -29753620.26648 -23172628.15646  20850431.2584                   20850426.8984
  -9173109.07047  -7135880.28945  22553150.0784                   22553149.1414
 11  8 24  0 51 30.0000000  0  8G12G17G10G05G04G25G02G30
 -24990346.02348 -19461523.32446  20789097.8284                   20789095.0704
 -23200933.16446 -18066700.51244  24261759.1724                   24261760.9384
 -24581778.02748 -19143985.35246  21428961.8984                   21428960.2934
 -24307382.22748 -18928981.80947  20675556.2734                   20675554.3554
 -21932257.30947 -17077208.51644  23164828.6644                   23164827.7544
 -10904755.52047  -8485640.78545  22593303.0004                   22593303.6994
 -29757116.02348 -23175352.11346  20849765.9614                   20849761.8714
  -9266078.69147  -7208324.09845  22535459.0004                   22535457.4774
 11  8 24  0 52  0.0000000  0  8G12G17G10G05G04G25G02G30
 -25027613.82048 -19490563.16446  20782006.1644                   20782003.1644
 -23157303.78546 -18032703.61744  24270061.3594                   24270062.6764
 -24548788.43748 -19118279.18046  21435239.7034                   21435238.1604
 -24381232.27048 -18986527.24647  20661503.1414                   20661501.2664
 -21875510.96547 -17032990.60544  23175626.9534                   23175626.8984
 -11001624.33247  -8561122.93045  22574869.6564                   22574869.9774
 -29760422.23048 -23177928.37546  20849137.0164                   20849132.6054
  -9358553.03147  -7280381.98445  22517861.8204                   22517860.4144
 11  8 24  0 52 30.0000000  0  8G12G17G10G05G04G25G02G30
 -25064285.45348 -19519138.46546  20775027.7274                   20775025.0944
 -23113465.57447 -17998543.98844  24278403.6094                   24278405.2974
 -24515255.82847 -19092149.87146  21441620.8524                   21441618.7074
 -24454534.92648 -19043646.14547  20647553.8674                   20647552.0004
 -21818756.64146 -16988766.49244  23186426.8444                   23186426.0824
 -11098056.72347  -8636265.00045  22556519.0634                   22556519.1604
 -29763536.30148 -23180354.93046  20848544.2664                   20848540.1414
  -9450526.17647  -7352049.32445  22500359.8984                   22500358.2274
 11  8 24  0 53  0.0000000  0  8G12G17G10G05G04G25G02G30
 -25100366.64148 -19547253.66846  20768161.9844                   20768159.1254
 -23069424.67646 -17964226.40644  24286783.8204                   24286785.5394
 -24481188.60547 -19065604.00046  21448103.3284                   21448101.8164
 -24527294.82848 -19100342.11747  20633708.3444                   20633706.2304
 -21762001.66047 -16944541.84444  23197227.3754                   23197226.5784
 -11194056.59447  -8711070.05145  22538250.4144                   22538251.0274
 -29766465.48048 -23182637.40246  20847986.8834                   20847982.5984
  -9542002.24247  -7423329.33245  22482952.3284                   22482950.6094
 11  8 24  0 53 30.0000000  0  8G12G17G10G05G04G25G02G30
 -25135852.94948 -19574905.32446  20761408.8054                   20761406.5514
 -23025177.24246 -17929747.89844  24295203.9384                   24295205.5864
 -24446584.78547 -19038639.98045  21454688.2424                   21454686.6994
 -24599506.31248 -19156610.77047  20619966.8054                   20619964.8444
 -21705243.20746 -16900314.49644  23208028.3204                   23208027.2154
 -11289617.56647  -8785533.09845  22520066.1174                   22520066.8594
 -29769206.97348 -23184773.63746  20847465.3284                   20847461.1454
  -9632974.89147  -7494217.05145  22465640.8284                   22465639.3594
 11  8 24  0 54  0.0000000  0  8G12G17G10G05G04G25G02G30
 -25170746.12548 -19602094.80547  20754768.8754                   20754766.7464
 -22980725.35546 -17895110.08643  24303662.9144                   24303664.2114
 -24411448.93448 -19011261.39845  21461374.5164                   21461372.6764
 -24671170.35548 -19212452.82447  20606329.2894                   20606327.6804
 -21648484.38346 -16856086.85944  23218829.1094                   23218828.0204
 -11384739.64847  -8859654.16045  22501964.7734                   22501965.6524
 -29771764.18748 -23186766.27346  20846978.7734                   20846974.1804
  -9723444.23447  -7564712.59445  22448425.0704                   22448423.7774
 11  8 24  0 54 30.0000000  0  8G12G17G10G05G04G25G02G30
 -25205045.98048 -19628821.95746  20748242.0944                   20748239.6604
 -22936069.19146 -17860313.10943  24312160.6564                   24312161.7234
 -24375783.62947 -18983470.25445  21468161.1884                   21468159.5004
 -24742286.00848 -19267867.57847  20592796.3364                   20592794.5084
 -21591726.68446 -16811860.10244  23229629.4534                   23229629.0554
 -11479420.80547  -8933431.63745  22483947.5634                   22483948.4104
 -29774138.68448 -23188616.53146  20846526.4454                   20846522.2704
  -9813408.45747  -7634814.52045  22431305.0314                   22431304.6254
 11  8 24  0 55  0.0000000  0  8G12G17G10G05G04G25G02G30
 -25238752.60248 -19655086.83647  20741828.0234                   20741825.3714
 -22891210.01246 -17825357.91443  24320696.7034                   24320698.5434
 -24339591.86347 -18955268.88345  21475048.6724                   21475046.7114
 -24812852.21948 -19322854.19147  20579368.1564                   20579366.2814
 -21534971.34846 -16767635.17644  23240429.1254                   23240428.6414
 -11573659.09847  -9006864.02745  22466014.7034                   22466015.1884
 -29776331.69147 -23190325.38346  20846109.1644                   20846105.1844
  -9902865.77347  -7704521.46545  22414282.0004                   22414281.0004
 11  8 24  0 55 30.0000000  0  9G12G29G17G10G05G04G25G02G30
 -25271862.86747 -19680887.02746  20735527.3134                   20735524.9144
   2998066.07056   2345657.10253  24608855.5704                   24608854.9224
 -22846145.08246 -17790242.39543  24329272.8364                   24329273.3134
 -24302873.62547 -18926657.27345  21482035.5084                   21482034.1954
 -24882865.52748 -19377409.97747  20566045.0474                   20566043.5084
 -21478217.43047 -16723411.36744  23251229.3134                   23251228.7424
 -11667450.14147  -9079947.91845  22448166.6414                   22448166.9964
 -29778342.28948 -23191892.08646  20845726.9064                   20845722.6134
  -9991811.89547  -7773830.07845  22397356.5474                   22397354.7464
 11  8 24  0 56  0.0000000  0  9G12G29G17G10G05G04G25G02G30
 -25304386.23448 -19706229.89147  20729337.7664                   20729335.3014
   2893558.73447   2264222.85943  24588969.2894                   24588967.5944
 -22800884.21946 -17754974.25843  24337885.0004                   24337886.1804
 -24265640.85248 -18897644.73045  21489120.8524                   21489119.4064
 -24952334.04748 -19431541.24647  20552825.5634                   20552823.6374
 -21421475.12546 -16679196.62544  23262027.5004                   23262027.2384
 -11760801.12947  -9152688.90645  22430402.6024                   22430402.5904
 -29780180.94148 -23193324.81246  20845376.8984                   20845372.5514
 -10080254.19547  -7842746.09045  22380526.4064                   22380524.5084
 11  8 24  0 56 30.0000000  0  9G12G29G17G10G05G04G25G02G30
 -25336324.04748 -19731116.47747  20723260.4924                   20723258.4304
   2788975.98447   2182729.86743  24569067.3754                   24569065.8834
 -22755428.88746 -17719554.52342  24346535.0084                   24346535.8204
 -24227897.69148 -18868234.47345  21496303.2584                   21496301.4614
 -25021257.82848 -19485248.04347  20539709.8594                   20539707.8284
 -21364747.31646 -16634993.17244  23272822.3754                   23272822.0434
 -11853711.45347  -9225086.52045  22412722.0004                   22412722.5864
 -29781850.44148 -23194625.73846  20845058.9614                   20845054.5634
 -10168192.26647  -7911269.19945  22363792.2894                   22363790.4734
 11  8 24  0 57  0.0000000  0  9G12G29G17G10G05G04G25G02G30
 -25367672.91048 -19755544.14147  20717294.9844                   20717292.5084
   2684321.30546   2101180.84443  24549151.8754                   24549151.3834
 -22709776.44146 -17683981.21142  24355222.1174                   24355223.3554
 -24189643.76647 -18838426.22745  21503582.6724                   21503580.8164
 -25089632.88748 -19538527.27047  20526698.5394                   20526696.6134
 -21308032.05146 -16590799.48844  23283615.4384                   23283614.5004
 -11946176.00447  -9297136.78545  22395126.8364                   22395127.1524
 -29783349.08648 -23195793.51646  20844774.1254                   20844769.5354
 -10255621.13347  -7979395.54345  22347155.0864                   22347153.3554
 11  8 24  0 57 30.0000000  0  9G12G29G17G10G05G04G25G02G30
 -25398434.09847 -19779513.87547  20711441.1644                   20711438.9534
   2579593.60247   2019574.96143  24529223.0944                   24529222.3554
 -22663928.66046 -17648255.68042  24363947.6804                   24363947.1724
 -24150882.91448 -18808222.97345  21510958.7974                   21510956.6884
 -25157459.78948 -19591379.36347  20513791.4924                   20513789.3554
 -21251331.87947 -16546617.57444  23294404.8524                   23294404.2664
 -12038194.25847  -9368839.27745  22377616.2894                   22377616.6724
 -29784679.57848 -23196830.28146  20844520.8914                   20844516.7154
 -10342540.39847  -8047124.78545  22330614.3674                   22330612.9654
 11  8 24  0 58  0.0000000  0  9G12G29G17G10G05G04G25G02G30
 -25428601.83647 -19803021.18747  20705700.7584                   20705698.0084
   2474798.99247   1937916.91443  24509281.0084                   24509280.8134
 -22617879.84446 -17612373.50042  24372709.5784                   24372709.4964
 -24111611.74248 -18777622.06645  21518431.7344                   21518429.8484
 -25224731.55548 -19643798.87547  20500989.9144                   20500987.9964
 -21194642.18746 -16502443.80944  23305192.4844                   23305191.6764
 -12129758.27347  -9440187.82445  22360192.1644                   22360192.5944
 -29785837.57447 -23197732.62546  20844299.8754                   20844296.3554
 -10428942.41047  -8114450.98045  22314173.1174                   22314170.9734
 11  8 24  0 58 30.0000000  0  9G12G29G17G10G05G04G25G02G30
 -25458174.25048 -19826064.60547  20700073.1804                   20700070.5314
   2369939.78947   1856208.56344  24489327.5704                   24489326.5274
 -22571628.32446 -17576333.29342  24381512.0634                   24381510.7974
 -24071831.29348 -18746624.32045  21526001.8054                   21525999.9224
 -25291445.05948 -19695783.38747  20488294.9774                   20488292.5634
 -21137962.20347 -16458277.62144  23315978.1094                   23315977.8524
 -12220864.31247  -9511179.51245  22342855.2114                   22342855.5984
 -29786822.48448 -23198500.10246  20844113.1334                   20844108.9804
 -10514823.57847  -8181371.32445  22297829.9534                   22297828.6214
 11  8 24  0 59  0.0000000  0  9G12G29G17G10G05G04G25G02G30
 -25487151.44148 -19848644.20747  20694558.9534                   20694556.3204
   2265015.66847   1774449.60244  24469360.4224                   24469359.8404
 -22525175.37146 -17540136.12143  24390351.5394                   24390350.5704
 -24031544.16848 -18715231.76645  21533667.7664                   21533666.1724
 -25357600.00448 -19747332.65647  20475705.9614                   20475703.7624
 -21081293.41047 -16414120.18744  23326761.5634                   23326761.5904
 -12311510.55547  -9581812.92245  22325606.1414                   22325606.2304
 -29787635.54748 -23199133.67246  20843958.3914                   20843954.2194
 -10600182.25047  -8247884.53145  22281586.5784                   22281585.4344
 11  8 24  0 59 30.0000000  0  9G12G29G17G10G05G04G25G02G30
 -25515531.23048 -19870758.31246  20689158.1174                   20689156.1524
   2160029.54747   1692642.32844  24449381.8914                   24449381.8714
 -22478519.09447 -17503780.57843  24399229.9144                   24399229.3204
 -23990751.18448 -18683445.02745  21541430.4694                   21541428.9884
 -25423193.15248 -19798444.15647  20463224.0554                   20463221.7814
 -21024634.91047 -16369970.78144  23337543.6174                   23337543.3634
 -12401692.93747  -9652084.89145  22308444.7274                   22308444.7344
 -29788276.16048 -23199632.85546  20843836.3834                   20843832.0044
 -10685014.48447  -8313987.52745  22265443.6644                   22265442.0864
 11  8 24  1  0  0.0000000  0  9G12G29G17G10G05G04G25G02G30
 -25543317.95748 -19892410.29747  20683870.7504                   20683868.5704
   2054976.95747   1610783.24244  24429391.0234                   24429390.5664
 -22431664.11347 -17467270.19143  24408146.6484                   24408146.4454
 -23949460.10248 -18651270.17245  21549288.3594                   21549286.2664
 -25488228.04348 -19849120.65247  20450847.9774                   20450846.3204
 -20967992.39847 -16325833.84044  23348322.4924                   23348321.8754
 -12491414.22347  -9721997.55145  22291371.6094                   22291371.4024
 -29788750.37948 -23200002.38746  20843746.1484                   20843742.0514
 -10769323.24647  -8379682.64145  22249400.0234                   22249398.5824
 11  8 24  1  0 30.0000000  0  9G12G29G17G10G05G04G25G02G30
 -25570508.80948 -19913597.96146  20678696.5394                   20678693.9924
   1949861.93447   1528875.53144  24409388.3594                   24409387.6684
 -22384607.14847 -17430602.41043  24417101.0004                   24417101.6134
 -23907669.72748 -18618706.25845  21557240.5084                   21557239.0004
 -25552700.39848 -19899358.82047  20438579.5474                   20438577.3404
 -20911363.25446 -16281707.30544  23359099.0634                   23359098.4384
 -12580668.76647  -9791546.52345  22274386.7584                   22274387.0434
 -29789055.48048 -23200240.12946  20843687.8754                   20843683.4614
 -10853103.25047  -8444965.71945  22233457.4144                   22233455.3834
 11  8 24  1  1  0.0000000  0  8G12G29G10G05G04G25G02G30
 -25597101.06248 -19934319.18046  20673635.8284                   20673633.5234
   1844687.37547   1446921.41844  24389374.0394                   24389373.9064
 -23865380.17648 -18585753.37945  21565288.1334                   21565286.3444
 -25616606.67648 -19949155.87947  20426418.3524                   20426416.3524
 -20854746.16046 -16237590.17244  23369872.9614                   23369873.0704
 -12669452.07447  -9860728.30545  22257492.2894                   22257492.3754
 -29789190.39148 -23200345.25046  20843662.4534                   20843658.4574
 -10936350.05147  -8509833.32445  22217616.2734                   22217614.3914
 11  8 24  1  1 30.0000000  0  8G12G29G10G05G04G25G02G30
 -25623092.98848 -19954572.62147  20668689.8834                   20668687.5004
   1739455.35546   1364922.52044  24369348.6484                   24369348.3054
 -23822592.58647 -18552412.42245  21573430.3754                   21573428.3674
 -25679944.34448 -19998509.86747  20414365.8914                   20414363.6484
 -20798140.59846 -16193482.01644  23380644.4614                   23380644.5314
 -12757760.69547  -9929540.18745  22240687.2734                   22240687.6524
 -29789154.75048 -23200317.47746  20843669.2194                   20843665.1954
 -11019060.42647  -8574282.95345  22201876.8524                   22201875.0084
 11  8 24  1  2  0.0000000  0  8G12G29G10G05G04G25G02G30
 -25648478.10548 -19974353.23047  20663859.2894                   20663857.1254
   1634172.80146   1282884.25043  24349314.5634                   24349314.3404
 -23779302.68448 -18518680.05545  21581668.2114                   21581666.3754
 -25742705.87148 -20047414.91447  20402422.6484                   20402420.0944
 -20741540.64146 -16149378.23044  23391415.1564                   23391415.2304
 -12845585.83247  -9997975.34045  22223974.7894                   22223974.8244
 -29788942.89848 -23200152.39146  20843709.6724                   20843705.4924
 -11101225.90247  -8638307.98045  22186241.2504                   22186239.7974
 11  8 24  1  2 30.0000000  0  8G12G29G10G05G04G25G02G30
 -25673253.96148 -19993659.09447  20659144.7194                   20659142.1724
   1528842.80946   1200809.00443  24329270.0864                   24329269.5434
 -23735511.12148 -18484556.77345  21590001.4144                   21589999.6294
 -25804887.69148 -20095868.24647  20390589.7114                   20390587.5864
 -20684945.36346 -16105278.11744  23402184.8444                   23402184.6524
 -12932923.39847 -10066030.56645  22207354.9454                   22207354.5704
 -29788553.74648 -23199849.13746  20843783.4304                   20843779.5784
 -11182842.51247  -8701905.31245  22170710.3134                   22170708.4734
 11  8 24  1  3  0.0000000  0  8G12G29G10G05G04G25G02G30
 -25697423.14148 -20012492.21547  20654545.7814                   20654542.9964
   1423463.04346   1118694.98043  24309217.6094                   24309215.5354
 -23691222.96547 -18450046.55145  21598429.0314                   21598427.5394
 -25866491.89848 -20143871.49647  20378866.8284                   20378864.7424
 -20628358.08246 -16061184.21944  23412953.1094                   23412952.9774
 -13019773.78547 -10133706.17645  22190827.7034                   22190828.1484
 -29787991.33648 -23199410.89146  20843890.5864                   20843886.5164
 -11263910.89147  -8765075.46545  22155283.4694                   22155281.7344
 11  8 24  1  3 30.0000000  0  8G12G29G10G05G04G25G02G30
 -25720988.31248 -20030854.69147  20650061.1174                   20650058.6994
   1318031.57846   1036540.65243  24289153.3204                   24289153.6644
 -23646443.84848 -18415153.75845  21606949.9064                   21606948.5594
 -25927519.99648 -20191425.82447  20367253.6644                   20367251.5164
 -20571782.30947 -16017099.28144  23423719.4534                   23423719.2114
 -13106137.73047 -10201002.73046  22174393.4224                   22174393.7344
 -29787259.19148 -23198840.37946  20844029.6564                   20844025.5004
 -11344432.00847  -8827819.16045  22139960.5004                   22139959.7274
 11  8 24  1  4  0.0000000  0  8G12G29G10G05G04G25G02G30
 -25743951.71548 -20048748.25846  20645691.2664                   20645689.0474
   1212546.97346    954344.93443  24269081.5004                   24269080.5394
 -23601178.39547 -18379882.00045  21615564.2424                   21615561.9884
 -25987973.12947 -20238532.12547  20355749.7034                   20355747.3794
 -20515220.98447 -15973025.55544  23434482.7664                   23434482.0004
 -13192015.18447 -10267920.19546  22158051.1334                   22158051.6454
 -29786360.28547 -23198139.92246  20844200.9534                   20844196.8834
 -11424405.99648  -8890136.53945  22124742.4534                   22124740.6134
 11  8 24  1  4 30.0000000  0  8G12G29G10G05G04G25G02G30
 -25766315.83248 -20066174.84846  20641435.6564                   20641432.7934
   1107007.59846    872106.47343  24248997.6884                   24248995.6374
 -23555431.43048 -18344235.03545  21624269.5084                   21624267.5984
 -26047852.74248 -20285191.52747  20344354.8594                   20344352.8014
 -20458677.05547 -15928965.41444  23445243.0004                   23445242.5474
 -13277406.37947 -10334458.77046  22141801.6884                   22141802.1994
 -29785298.06647 -23197312.21946  20844403.1414                   20844398.5944
 -11503833.46547  -8952028.05945  22109627.8984                   22109625.8714
 11  8 24  1  5  0.0000000  0  8G12G29G10G05G04G25G02G30
 -25788080.44148 -20083134.29747  20637293.9534                   20637291.3954
   1001414.40647    789826.15243  24228904.6954                   24228903.4844
 -23509205.20348 -18308214.61745  21633065.8284                   21633064.3714
 -26107157.62948 -20331403.09447  20333069.4694                   20333067.3524
 -20402151.44947 -15884919.55144  23455999.3754                   23455999.1724
 -13362309.18748 -10400616.77746  22125645.3524                   22125645.9534
 -29784073.34048 -23196357.87546  20844636.2194                   20844631.8484
 -11582712.41847  -9013492.15245  22094617.5944                   22094616.3204
 11  8 24  1  5 30.0000000  0  8G12G29G10G05G04G25G02G30
 -25809246.40648 -20099627.26646  20633266.3204                   20633263.9064
    895766.93047    707503.47744  24208799.9614                   24208799.3054
 -23462503.12148 -18271823.39845  21641953.0234                   21641951.5594
 -26165887.88348 -20377166.89147  20321893.4144                   20321891.4104
 -20345645.73847 -15840889.16844  23466751.4924                   23466751.9144
 -13446722.41848 -10466393.28946  22109581.9614                   22109582.4804
 -29782687.72748 -23195278.16846  20844899.9064                   20844895.7274
 -11661041.98447  -9074528.17245  22079712.0944                   22079710.3794
 11  8 24  1  6  0.0000000  0  8G12G29G10G05G04G25G02G30
 -25829819.38348 -20115658.17246  20629351.4224                   20629348.8634
    790060.66446    625135.02344  24188684.3444                   24188683.7854
 -23415333.44948 -18235067.83245  21650929.2034                   21650927.3364
 -26224048.07448 -20422486.49647  20310826.0554                   20310823.6524
 -20289166.07047 -15796879.07444  23477499.5084                   23477499.4264
 -13530649.51647 -10531791.01246  22093611.2734                   22093611.6454
 -29781148.04748 -23194078.41846  20845192.5634                   20845188.6214
 -11738825.75047  -9135138.87145  22064910.1644                   22064908.3674
 11  8 24  1  6 30.0000000  0  8G12G29G10G05G04G25G02G30
 -25849793.00048 -20131222.03547  20625550.4924                   20625547.6684
    684302.66847    542726.26244  24168559.0004                   24168558.9574
 -23367692.67247 -18197945.15645  21659995.0314                   21659993.4924
 -26281630.93048 -20467356.21947  20299868.4384                   20299866.1764
 -20232707.04747 -15752885.04344  23488243.2974                   23488243.6844
 -13614082.14547 -10596803.41846  22077734.2894                   22077734.8754
 -29779448.85248 -23192754.37146  20845516.1254                   20845512.0274
 -11816055.80147  -9195318.10945  22050213.3134                   22050211.9844
 11  8 24  1  7  0.0000000  0  8G12G29G10G05G04G25G02G30
 -25869169.55148 -20146320.65646  20621863.3054                   20621860.6684
    578491.44546    460276.03944  24148424.4304                   24148423.6564
 -23319585.49648 -18160459.05545  21669149.3594                   21669147.7854
 -26338637.84048 -20511777.15247  20289020.3524                   20289017.9224
 -20176271.55547 -15708909.35544  23498982.6414                   23498982.4104
 -13697020.46947 -10661430.66446  22061951.7974                   22061952.4064
 -29777593.16048 -23191308.37946  20845869.5164                   20845864.9534
 -11892732.46947  -9255066.15245  22035622.4844                   22035621.0634
 11  8 24  1  7 30.0000000  0  8G12G29G10G05G04G25G02G30
 -25887952.18048 -20160956.48447  20618289.1564                   20618286.6024
    472624.46546    377782.38344  24128279.0234                   24128278.0204
 -23271017.43747 -18122613.83245  21678391.7344                   21678389.8094
 -26395070.73447 -20555750.80947  20278281.5394                   20278279.1884
 -20119863.12947 -15664954.73044  23509716.6644                   23509716.3484
 -13779465.63348 -10725673.61346  22046262.8674                   22046263.4184
 -29775585.16047 -23189743.69946  20846251.4144                   20846247.1914
 -11968857.21148  -9314384.10545  22021136.6414                   22021134.7934
 11  8 24  1  8  0.0000000  0  8G12G29G10G05G04G25G02G30
 -24330718.32848 -18947527.52046  20914620.7734                   20914618.4144
   1942128.86346   1522850.81644  24407915.1804                   24407915.2464
 -21646570.32047 -16856810.89845  21987513.9844                   21987512.0984
 -24875504.58648 -19371673.25047  20567445.2424                   20567443.1484
 -18488062.00047 -14393421.37944  23820238.4064                   23820238.0514
 -12285990.34448  -9561926.60246  22330461.9844                   22330462.2974
 -28198003.10948 -21960458.98846  21146455.3444                   21146450.9224
 -10469003.15247  -8145666.64145  22306549.4384                   22306547.5044
 11  8 24  1  8 30.0000000  0  8G12G29G10G05G04G25G02G30
 -24348308.89548 -18961234.46146  20911273.5944                   20911270.9534
   1836158.34846   1440276.44144  24387750.0474                   24387749.2734
 -21597083.51247 -16818249.74645  21996930.7274                   21996929.4264
 -24930782.27048 -19414746.73447  20556926.1724                   20556924.0434
 -18431705.07047 -14349506.88343  23830962.4304                   23830962.3914
 -12367437.89148  -9625392.19946  22314962.9384                   22314963.3094
 -28195687.45348 -21958654.59446  21146895.7114                   21146891.7274
 -10544013.48047  -8204116.22345  22292275.1804                   22292273.4494
 11  8 24  1  9  0.0000000  0  8G12G29G10G05G04G25G02G30
 -24365302.41448 -18974476.17246  20908039.6954                   20908037.3134
   1730138.35246   1357663.54344  24367574.8594                   24367574.5784
 -21547140.06648 -16779332.77745  22006434.8524                   22006433.0634
 -24985480.03548 -19457368.33247  20546517.5554                   20546515.0664
 -18375373.64847 -14305612.26644  23841681.8204                   23841681.9184
 -12448382.50848  -9688465.89846  22299559.8594                   22299559.8014
 -28193218.62548 -21956730.83646  21147365.9534                   21147361.7154
 -10618462.92247  -8262128.73845  22278107.9384                   22278106.0944
 11  8 24  1  9 30.0000000  0  8G12G29G10G05G04G25G02G30
 -24381700.71148 -18987254.07046  20904919.3364                   20904916.7734
   1624068.53146   1275011.81643  24347390.3134                   24347390.3324
 -21496744.07048 -16740063.18445  22016024.4064                   22016023.3674
 -25039598.75048 -19499538.72347  20536218.9534                   20536217.0234
 -18319069.85547 -14261739.19144  23852396.4614                   23852396.1294
 -12528823.73848  -9751147.35246  22284252.4694                   22284252.5394
 -28190598.71148 -21954689.35246  21147864.0864                   21147859.7934
 -10692351.33647  -8319704.09445  22264047.4924                   22264045.5084
 11  8 24  1 10  0.0000000  0  8G12G29G10G05G04G25G02G30
 -24397504.48048 -18999568.69546  20901911.7344                   20901909.2304
   1517948.65646   1192321.06343  24327196.8444                   24327195.5984
 -21445898.73048 -16700443.45345  22025700.5084                   22025698.3244
 -25093138.09848 -19541257.66847  20526030.6564                   20526028.4654
 -18262795.13347 -14217888.76644  23863105.3134                   23863105.0864
 -12608760.24248  -9813435.50446  22269040.5784                   22269041.4384
 -28187829.05148 -21952531.18046  21148391.1094                   21148386.8094
 -10765677.65247  -8376841.45745  22250093.9694                   22250091.7854
 11  8 24  1 10 30.0000000  0  8G12G29G10G05G04G25G02G30
 -24412713.54348 -19011419.91046  20899017.5004                   20899015.0594
   1411780.46546   1109592.65643  24306993.8754                   24306992.4844
 -21394605.85948 -16660475.00045  22035461.2504                   22035459.2624
 -25146096.56248 -19582523.97747  20515952.8674                   20515950.4924
 -18206549.04747 -14174060.65243  23873808.6644                   23873808.3834
 -12688189.28148  -9875328.23446  22253925.9384                   22253926.0204
 -28184910.13748 -21950256.71146  21148946.8444                   21148942.6524
 -10838439.40647  -8433538.90245  22236247.5314                   22236245.8094
 11  8 24  1 11  0.0000000  0  8G12G29G10G05G04G25G02G30
 -24427329.28948 -19022808.80546  20896236.1954                   20896233.8634
   1305563.99647   1026826.59843  24286781.2344                   24286779.8524
 -21342869.34447 -16620160.83245  22045306.0784                   22045304.6454
 -25198474.59048 -19623337.98447  20505986.0474                   20505983.7624
 -18150333.63747 -14130256.44543  23884505.6254                   23884506.1454
 -12767110.10948  -9936824.94946  22238907.8134                   22238908.1374
 -28181843.49648 -21947867.12146  21149530.3054                   21149525.9344
 -10910636.13747  -8489796.06645  22222508.8594                   22222507.2734
 11  8 24  1 11 30.0000000  0  8G12G29G10G05G04G25G02G30
 -24441351.24648 -19033734.99646  20893567.9304                   20893565.5514
   1199300.26247    944023.71943  24266560.0784                   24266558.0554
 -21290691.60947 -16579502.85545  22055235.2894                   22055233.5084
 -25250270.94948 -19663698.75447  20496129.3134                   20496127.1254
 -18094148.89547 -14086476.14143  23895197.4454                   23895197.3874
 -12845520.32048  -9997923.78946  22223986.7344                   22223986.8324
 -28178629.65248 -21945362.82846  21150141.6884                   21150137.6684
 -10982265.79747  -8545611.36345  22208878.3594                   22208876.1914
 11  8 24  1 12  0.0000000  0  8G12G29G10G05G04G25G02G30
 -24454780.93447 -19044199.62145  20891012.2664                   20891009.8324
   1092989.13746    861183.94543  24246330.1804                   24246328.4184
 -21238076.48447 -16538504.05344  22065247.6484                   22065245.6374
 -25301486.14847 -19703606.60946  20486383.3594                   20486381.2074
 -18037996.47346 -14042720.97343  23905882.5554                   23905882.5904
 -12923419.09047 -10058624.04745  22209163.1954                   22209163.3164
 -28175270.50047 -21942745.25445  21150781.1564                   21150776.7894
 -11053327.92247  -8600984.36744  22195355.5314                   22195353.3364
 11  8 24  1 12 30.0000000  0  8G12G29G10G05G04G25G02G30
 -24467617.16448 -19054201.94147  20888569.8364                   20888567.4304
    986633.48447    778309.40644  24226090.9144                   24226089.6024
 -21185024.60947 -16497164.95745  22075343.0314                   22075341.4344
 -25352118.02348 -19743060.04747  20476748.4304                   20476746.3484
 -17981875.35547 -13998990.33243  23916562.3054                   23916562.2344
 -13000802.92248 -10118923.16846  22194437.5314                   22194437.3714
 -28171765.24248 -21940013.94146  21151448.3204                   21151443.8634
 -11123819.26647  -8655912.71545  22181941.5314                   22181939.6844
 11  8 24  1 13  0.0000000  0  8G12G29G10G05G04G25G02G30
 -24479861.98448 -19063743.34446  20886239.8524                   20886237.3094
    880232.15647    695399.32044  24205843.9064                   24205842.3164
 -21131540.54347 -16455489.05945  22085521.0474                   22085519.2544
 -25402167.73448 -19782059.78947  20467224.3364                   20467221.9414
 -17925788.03547 -13955285.96143  23927234.8984                   23927235.4184
 -13077671.75048 -10178820.93046  22179809.9774                   22179809.8874
 -28168116.63348 -21937170.87546  21152142.4844                   21152138.2034
 -11193740.05947  -8710396.41445  22168636.2894                   22168634.1054
 11  8 24  1 13 30.0000000  0  8G12G29G10G05G04G25G02G30
 -24491513.40248 -19072822.35547  20884022.7664                   20884019.9264
    773788.55146    612456.32844  24185587.3204                   24185586.8094
 -21077624.46147 -16413476.53145  22095780.2344                   22095778.8524
 -25451631.67248 -19820603.09047  20457811.6024                   20457809.3714
 -17869732.30946 -13911606.21143  23937902.5554                   23937902.4734
 -13154021.16448 -10238313.94946  22165281.0634                   22165281.1844
 -28164322.85948 -21934214.68446  21152864.4144                   21152860.2074
 -11263086.30147  -8764432.42645  22155439.9534                   22155437.8714
 11  8 24  1 14  0.0000000  0  8G12G29G10G05G04G25G02G30
 -24502575.65248 -19081442.28546  20881917.3444                   20881914.6564
    667299.58646    529477.99644  24165323.1334                   24165323.2114
 -21023283.32447 -16371132.80545  22106121.6884                   22106119.5474
 -25500514.24648 -19858693.37547  20448509.3984                   20448507.4574
 -17813712.87946 -13867954.77344  23948562.5004                   23948563.0474
 -13229853.60248 -10297404.12946  22150850.6174                   22150850.6684
 -28160388.88748 -21931149.25046  21153613.0944                   21153608.3834
 -11331860.64847  -8818022.80545  22142352.3754                   22142350.7384
 11  8 24  1 14 30.0000000  0  8G12G29G10G05G04G25G02G30
 -24513047.39848 -19089602.06646  20879924.9774                   20879922.2154
    560768.57846    446466.91044  24145050.9774                   24145050.2854
 -20968517.13747 -16328457.85545  22116543.0004                   22116541.2074
 -25548811.90648 -19896327.88347  20439318.7344                   20439316.4064
 -17757727.71946 -13824330.02743  23959216.4304                   23959216.8554
 -13305164.55148 -10356087.96546  22136519.1334                   22136519.4844
 -28156312.94548 -21927973.20346  21154388.7274                   21154384.1764
 -11400059.09447  -8871164.42645  22129375.0784                   22129372.9104
 11  8 24  1 15  0.0000000  0  8G12G29G10G05G04G25G02G30
 -24522927.79348 -19097301.05946  20878044.6414                   20878041.7854
    454197.57046    363424.68044  24124770.5944                   24124771.0314
 -20913327.64147 -16285453.05945  22127045.4144                   22127043.1454
 -25596523.07848 -19933505.39147  20430239.9144                   20430237.2894
 -17701776.38346 -13780731.64843  23969863.5474                   23969864.0554
 -13379951.23048 -10414363.27746  22122287.9454                   22122287.6884
 -28152094.90248 -21924686.42246  21155191.4844                   21155187.0514
 -11467679.06247  -8923855.29345  22116507.2504                   22116505.1254
 11  8 24  1 15 30.0000000  0  8G12G29G10G05G04G25G02G30
 -24532221.53948 -19104542.93746  20876276.1334                   20876273.4104
    347583.16846    280348.62544  24104482.9384                   24104482.6994
 -20857722.47347 -16242124.35545  22137626.6024                   22137624.9414
 -25643652.37148 -19970229.48047  20421271.3284                   20421268.8404
 -17645864.21546 -13737163.79743  23980503.4844                   23980503.6174
 -13454216.68448 -10472232.44546  22108155.5784                   22108155.7074
 -28147740.25048 -21921293.18746  21156020.3134                   21156015.7974
 -11534724.02047  -8976098.09845  22103749.2034                   22103746.7034
 11  8 24  1 16  0.0000000  0  8G12G29G10G05G04G25G02G30
 -24540925.73848 -19111325.41846  20874619.6724                   20874617.3164
    240929.92646    197242.32844  24084187.5004                   24084187.3794
 -20801700.12548 -16198470.57845  22148287.4614                   22148285.3674
 -25690195.13348 -20006496.53947  20412414.5944                   20412411.9414
 -17589987.66446 -13693623.69943  23991136.2194                   23991136.5434
 -13527955.27048 -10529691.05946  22094123.6884                   22094123.7034
 -28143245.75448 -21917790.98846  21156875.1724                   21156870.7304
 -11601188.60947  -9027888.66845  22091101.3834                   22091099.0784
 11  8 24  1 16 30.0000000  0  8G12G29G10G05G04G25G02G30
 -24549040.75448 -19117648.79346  20873075.5474                   20873072.8404
    134239.04746    114106.68044  24063884.6564                   24063884.5664
 -20745263.38347 -16154493.89845  22159026.8134                   22159025.0084
 -25736150.79748 -20042306.11747  20403669.2344                   20403667.1954
 -17534147.22746 -13650111.76243  24001762.8594                   24001762.5744
 -13601165.07048 -10586737.62946  22080192.1414                   22080192.5084
 -28138612.04748 -21914180.30946  21157756.9224                   21157752.8714
 -11667071.34047  -9079225.84845  22078564.3054                   22078562.2664
 11  8 24  1 17  0.0000000  0  8G12G29G10G05G04G25G02G30
 -24556569.54348 -19123515.37546  20871642.6254                   20871639.9064
     27509.55946     30940.93044  24043574.9774                   24043574.5664
 -20688417.12547 -16110198.13345  22169844.2814                   22169842.4774
 -25781520.91848 -20077659.42247  20395035.6094                   20395033.3834
 -17478345.40646 -13606629.87543  24012381.4614                   24012381.9694
 -13673846.35248 -10643372.38346  22066361.4304                   22066361.6054
 -28133841.89547 -21910463.31646  21158664.7894                   21158660.6844
 -11732372.81647  -9130110.09845  22066137.7274                   22066135.7074
 11  8 24  1 17 30.0000000  0  8G12G29G10G05G04G25G02G30
 -24563511.02348 -19128924.32846  20870321.9064                   20870319.1954
    -79256.37146    -52253.23844  24023258.2504                   24023257.7344
 -20631162.85247 -16065584.42245  22180739.4844                   22180737.7234
 -25826303.86748 -20112555.19147  20386513.7734                   20386511.4304
 -17422581.15646 -13563177.27344  24022992.8134                   24022993.2154
 -13745996.06648 -10699592.91846  22052631.5784                   22052631.9734
 -28128935.15248 -21906639.87546  21159598.4844                   21159594.0704
 -11797090.31647  -9180539.30945  22053822.4774                   22053820.4104
 11  8 24  1 18  0.0000000  0  8G12G29G10G05G04G25G02G30
 -24569867.79748 -19133877.65646  20869112.5164                   20869109.1334
   -186059.44947   -135476.34444  24002934.3284                   24002932.9654
 -20573505.41447 -16020656.56245  22191711.3524                   22191709.8164
 -25870501.44148 -20146994.82047  20378102.9384                   20378100.7894
 -17366857.37146 -13519756.19544  24033596.8524                   24033597.3324
 -13817614.81248 -10755399.71946  22039002.9304                   22039003.5514
 -28123894.07848 -21902711.76646  21160557.7344                   21160553.3204
 -11861224.80147  -9230514.22345  22041617.9064                   22041615.9804
 11  8 24  1 18 30.0000000  0  8G12G29G10G05G04G25G02G30
 -24575638.97348 -19138374.68046  20868014.3914                   20868011.4774
   -292897.41847   -218726.66044  23982603.8754                   23982602.1724
 -20515445.57047 -15975415.12545  22202760.0084                   22202757.9104
 -25914111.26248 -20180976.47747  20369804.4454                   20369802.2814
 -17311172.60246 -13476365.50844  24044194.1254                   24044193.7624
 -13888698.92248 -10810789.91446  22025476.3054                   22025476.3874
 -28118717.73448 -21898678.25846  21161542.7344                   21161538.4804
 -11924773.08247  -9280032.35945  22029525.3984                   22029523.3984
 11  8 24  1 19  0.0000000  0  8G12G29G10G05G04G25G02G30
 -24580828.69548 -19142418.62546  20867026.6254                   20867023.8834
   -399772.27747   -302005.73444  23962265.6094                   23962265.3484
 -20456989.43047 -15929864.89545  22213883.5704                   22213882.0784
 -25957136.61748 -20214502.69147  20361617.1024                   20361614.5904
 -17255530.57846 -13433008.16044  24054782.1174                   24054782.3594
 -13959250.24248 -10865764.94546  22012050.6644                   22012050.8014
 -28113410.35248 -21894542.63346  21162552.9144                   21162548.7274
 -11987737.31247  -9329095.37945  22017543.0004                   22017541.3754
 11  8 24  1 19 30.0000000  0  8G12G29G10G05G04G25G02G30
 -24585437.89848 -19146010.21546  20866149.2974                   20866146.5744
   -506683.46947   -385313.11344  23941921.4614                   23941920.1334
 -20398140.19547 -15884008.37145  22225081.9924                   22225080.6844
 -25999577.69948 -20247573.63347  20353540.5394                   20353538.2464
 -17199932.18046 -13389684.78144  24065362.3984                   24065362.6884
 -14029267.53548 -10920323.85246  21998726.7584                   21998727.2304
 -28107973.23048 -21890305.91046  21163587.2974                   21163583.1414
 -12050116.66447  -9377702.66445  22005673.0164                   22005670.7934
 11  8 24  1 20  0.0000000  0  8G12G29G10G05G04G25G02G30
 -24589465.37548 -19149148.51646  20865382.7734                   20865380.0704
   -613627.87147   -468646.40244  23921570.5394                   23921568.9264
 -20338898.20747 -15837845.80145  22236355.5084                   22236354.0904
 -26041431.73848 -20280187.14547  20345576.0554                   20345573.7274
 -17144375.47746 -13346393.91044  24075933.6484                   24075934.6334
 -14098746.82448 -10974463.53546  21985505.4064                   21985505.8054
 -28102404.60948 -21885966.72746  21164646.9844                   21164642.9574
 -12111907.51247  -9425851.35545  21993914.3284                   21993912.6024
 11  8 24  1 20 30.0000000  0  8G12G29G10G05G04G25G02G30
 -24592912.77748 -19151834.81646  20864726.9774                   20864724.0394
   -720605.44947   -552005.52344  23901213.4534                   23901211.8484
 -20279267.75847 -15791380.53545  22247702.8834                   22247701.5744
 -26082699.96148 -20312344.17647  20337723.1884                   20337720.5744
 -17088862.38347 -13303137.00844  24086498.3444                   24086498.4344
 -14167687.95347 -11028183.85946  21972386.5474                   21972386.5044
 -28096706.58648 -21881526.69146  21165731.5634                   21165727.1564
 -12173110.07047  -9473541.64145  21982267.8674                   21982266.2704
 11  8 24  1 21  0.0000000  0  8G12G29G10G05G04G25G02G30
 -24595781.25848 -19154070.00446  20864181.1094                   20864178.2544
   -827614.95747   -635389.49144  23880850.0554                   23880848.4064
 -20219251.66847 -15744614.77045  22259123.9924                   22259122.3634
 -26123382.24248 -20344044.62947  20329981.4844                   20329979.0664
 -17033393.29747 -13259914.41044  24097053.8444                   24097054.4534
 -14236089.36748 -11081483.63746  21959370.1174                   21959370.1764
 -28090879.96948 -21876986.46946  21166840.1094                   21166836.1254
 -12233723.24647  -9520772.67645  21970733.7814                   21970732.1334
 11  8 24  1 21 30.0000000  0  8G12G29G10G05G04G25G02G30
 -24598071.03548 -19155854.25846  20863745.2974                   20863742.7814
   -934654.62947   -718797.04344  23860480.9144                   23860479.3914
 -20158852.12547 -15697550.20745  22270617.3054                   22270615.5394
 -26163477.72348 -20375287.83247  20322351.3284                   20322348.7114
 -16977967.83247 -13216725.77344  24107600.9694                   24107601.2504
 -14303948.90248 -11134361.16046  21946456.6484                   21946456.7774
 -28084924.77348 -21872346.03946  21167973.5004                   21167969.4924
 -12293745.24647  -9567543.03545  21959311.7274                   21959309.9184
 11  8 24  1 22  0.0000000  0  8G12G29G10G05G04G25G02G30
 -24599785.82848 -19157190.46946  20863418.9064                   20863416.5274
  -1041726.67647   -802229.76244  23840105.6254                   23840103.8324
 -20098075.01647 -15650191.44545  22282183.3284                   22282181.3714
 -26202989.00848 -20406075.82447  20314832.6804                   20314830.0634
 -16922589.76247 -13173574.07844  24118139.0394                   24118139.0984
 -14371268.21148 -11186817.73046  21933646.4454                   21933646.4064
 -28078844.75848 -21867608.35946  21169130.6174                   21169126.0004
 -12353178.10947  -9613854.33645  21948002.3674                   21948000.7154
 11  8 24  1 22 30.0000000  0  8G12G29G10G05G04G25G02G30
 -24600925.19148 -19158078.30146  20863202.1334                   20863199.5204
  -1148828.78946   -885685.89543  23819724.4614                   23819723.0664
 -20036921.66047 -15602539.50045  22293819.9694                   22293818.3594
 -26241915.10948 -20436407.82447  20307425.3914                   20307422.8874
 -16867257.85546 -13130458.35943  24128668.3204                   24128668.2074
 -14438044.28548 -11238851.00846  21920939.2344                   21920939.7424
 -28072638.91848 -21862772.63346  21170311.3754                   21170306.9654
 -12412019.26247  -9659704.55545  21936805.0634                   21936803.0514
 11  8 24  1 23  0.0000000  0  8G12G29G10G05G04G25G02G30
 -24601490.77748 -19158519.02046  20863094.2504                   20863092.0164
  -1255960.38346   -969164.96544  23799338.0634                   23799337.1604
 -19975395.71147 -15554597.22745  22305528.0634                   22305526.1604
 -26280256.48048 -20466284.20347  20300129.0164                   20300126.5554
 -16811973.42246 -13087379.64143  24139188.1644                   24139188.3714
 -14504276.52048 -11290460.50846  21908335.5784                   21908335.5704
 -28066309.19548 -21857840.36746  21171516.0474                   21171511.6604
 -12470268.53947  -9705093.57445  21925720.4924                   21925718.5984
 11  8 24  1 23 30.0000000  0  8G12G29G10G05G04G25G02G30
 -24601482.81248 -19158512.83246  20863095.6724                   20863093.5704
  -1363119.77347  -1052665.70744  23778945.7664                   23778945.3954
 -19913499.35547 -15506366.33245  22317306.5864                   22317304.6454
 -26318012.34048 -20495704.32847  20292944.3674                   20292941.8094
 -16756735.98046 -13044337.55943  24149699.9844                   24149699.4024
 -14569962.68048 -11341644.50446  21895836.0394                   21895836.0704
 -28059855.51248 -21852811.51646  21172744.0634                   21172739.9614
 -12527924.06247  -9750019.92245  21914748.9224                   21914747.4734
 11  8 24  1 24  0.0000000  0  8G12G29G10G05G04G25G02G30
 -24600902.78148 -19158060.87146  20863206.5394                   20863204.2304
  -1470305.82047  -1136187.23044  23758549.4694                   23758548.6374
 -19851235.52747 -15457849.09045  22329155.0864                   22329153.2854
 -26355183.03948 -20524668.48447  20285871.0234                   20285868.6414
 -16701546.30146 -13001332.66043  24160202.0314                   24160202.0474
 -14635101.72348 -11392402.16446  21883440.5394                   21883440.3244
 -28053278.68448 -21847686.70746  21173995.4144                   21173991.1414
 -12584985.23447  -9794483.14545  21903890.7194                   21903889.0824
 11  8 24  1 24 30.0000000  0  8G12G29G10G05G04G25G02G30
 -24599751.80948 -19157164.01246  20863425.5004                   20863422.9694
  -1577517.79747  -1219728.96944  23738147.5234                   23738146.9534
 -19788607.66847 -15409048.18045  22341073.1254                   22341070.9574
 -26391768.79348 -20553176.83647  20278908.8444                   20278906.4384
 -16646405.01246 -12958365.40243  24170695.0314                   24170694.7544
 -14699692.55548 -11442732.65646  21871149.0554                   21871149.5044
 -28046579.70348 -21842466.71546  21175270.2424                   21175265.8134
 -12641451.45347  -9838482.76245  21893145.4924                   21893143.9344
 11  8 24  1 25  0.0000000  0  8G12G29G10G05G04G25G02G30
 -24598027.88348 -19155820.70746  20863753.9224                   20863750.7854
  -1684751.68747  -1303287.78944  23717741.7034                   23717740.6724
 -19725615.55947 -15359963.43745  22353059.7974                   22353057.9494
 -26427766.62148 -20581227.07447  20272058.6804                   20272056.3284
 -16591309.42246 -12915433.77742  24181179.5554                   24181178.9224
 -14763730.75848 -11492632.52346  21858963.0164                   21858963.0704
 -28039756.27047 -21837149.73846  21176568.8754                   21176564.1804
 -12697318.66847  -9882015.62145  21882514.3594                   21882512.5984
 11  8 24  1 25 30.0000000  0  8G12G29G10G05G04G25G02G30
 -24595732.78148 -19154032.32446  20864190.1644                   20864187.6254
  -1792007.59847  -1386863.73844  23697331.5634                   23697330.4884
 -19662262.79347 -15310597.67245  22365115.6094                   22365113.6644
 -26463177.52048 -20608819.95747  20265320.3054                   20265317.9384
 -16536261.19146 -12872539.12942  24191654.7194                   24191654.0204
 -14827216.14147 -11542101.63346  21846881.8134                   21846882.6054
 -28032810.29347 -21831737.27746  21177890.4694                   21177886.1334
 -12752587.12147  -9925081.91445  21871997.1024                   21871995.3014
 11  8 24  1 26  0.0000000  0  8G12G29G10G05G04G25G02G30
 -24592871.57848 -19151802.82046  20864734.5634                   20864732.3874
  -1899287.71547  -1470458.56644  23676916.8364                   23676916.0824
 -19598555.67247 -15260955.77745  22377238.7034                   22377236.8404
 -26498005.03948 -20635958.25847  20258692.7894                   20258690.2464
 -16481263.83246 -12829684.05943  24202120.3364                   24202119.9654
 -14890150.63748 -11591141.47346  21834906.1254                   21834906.0204
 -28025745.18448 -21826231.98846  21179235.1254                   21179230.5204
 -12807259.23047  -9967683.53145  21861593.2974                   21861591.7664
 11  8 24  1 26 30.0000000  0  9G12G29G26G10G05G04G25G02G30
 -24589446.43748 -19149133.89846  20865386.8054                   20865384.2274
  -2006591.50447  -1554071.85544  23656497.4384                   23656496.8164
   4559417.02355   3569839.68853  24798191.8444                   24798193.8284
 -19534498.27747 -15211040.95745  22389428.1804                   22389426.2154
 -26532250.52048 -20662643.02747  20252176.3284                   20252173.5944
 -16426319.00046 -12786869.96942  24212576.2814                   24212576.0234
 -14952534.21548 -11639752.03146  21823034.9924                   21823034.9264
 -28018563.60948 -21820635.94546  21180601.6804                   21180597.2504
 -12861335.42247 -10009820.79745  21851302.9844                   21851300.8524
 11  8 24  1 27  0.0000000  0  9G12G29G26G10G05G04G25G02G30
 -24585461.39548 -19146028.67646  20866144.6484                   20866142.5434
  -2113921.21947  -1637705.35944  23636073.6724                   23636072.0004
   4443704.98846   3479674.61343  24776173.1884                   24776174.2774
 -19470096.68747 -15160857.92645  22401683.0944                   22401681.5234
 -26565917.04348 -20688876.65647  20245769.5234                   20245766.9844
 -16371430.05546 -12744099.41043  24223020.8914                   24223021.9694
 -15014368.67248 -11687934.70746  21811268.1804                   21811267.8874
 -28011268.99648 -21814951.82046  21181990.0004                   21181985.5434
 -12914817.90647 -10051495.43445  21841125.4614                   21841123.8984
 11  8 24  1 27 30.0000000  0  9G12G29G26G10G05G04G25G02G30
 -24580923.31248 -19142492.51246  20867008.5474                   20867006.1604
  -2221281.20347  -1721362.46544  23615643.3754                   23615642.1994
   4327852.62946   3389400.21543  24754127.2894                   24754128.0554
 -19405359.18747 -15110413.14545  22414002.4774                   22414001.2814
 -26599010.21548 -20714663.52747  20239472.2114                   20239469.6414
 -16316602.75846 -12701376.85243  24233454.6094                   24233454.6804
 -15075658.23848 -11735692.80146  21799605.0474                   21799605.1294
 -28003867.62948 -21809184.52346  21183397.8754                   21183394.2424
 -12967711.30947 -10092711.04745  21831060.1334                   21831057.9734
 11  8 24  1 28  0.0000000  0  9G12G29G26G10G05G04G25G02G30
 -24575833.15648 -19138526.16846  20867977.3984                   20867974.9064
  -2328670.48847  -1805042.43444  23595207.8204                   23595206.7344
   4211862.48046   3299018.43844  24732054.0554                   24732055.2344
 -19340288.69947 -15059708.90645  22426385.1804                   22426383.7074
 -26631530.50448 -20740003.99647  20233283.1334                   20233281.1484
 -16261837.71546 -12658702.83243  24243876.1174                   24243876.2464
 -15136401.78948 -11783025.41846  21788045.9924                   21788046.3054
 -27996359.93048 -21803334.36346  21184826.6094                   21184822.2344
 -13020015.00847 -10133467.16045  21821107.2504                   21821105.1994
 11  8 24  1 28 30.0000000  0  9G12G29G26G10G05G04G25G02G30
 -24570187.60248 -19134127.03546  20869050.9534                   20869048.8164
  -2436082.69947  -1888740.25044  23574767.7504                   23574766.5664
   4095742.24246   3208535.31343  24709957.3594                   24709958.5704
 -19274883.50047 -15008743.84445  22438831.3444                   22438829.8634
 -26663473.63748 -20764894.72347  20227204.9224                   20227202.3134
 -16207130.46546 -12616073.84843  24254286.3364                   24254286.7664
 -15196593.50447 -11829928.04346  21776591.6414                   21776591.8244
 -27988741.84047 -21797398.18046  21186276.2194                   21186272.1844
 -13071723.70347 -10173759.63745  21811267.3914                   21811265.6294
 11  8 24  1 29  0.0000000  0  9G12G29G26G10G05G04G25G02G30
 -24563983.32448 -19129292.53946  20870231.8984                   20870229.7114
  -2543512.59447  -1972451.83644  23554324.3914                   23554323.7464
   3979499.20746   3117956.47744  24687836.9384                   24687837.7664
 -19209141.82047 -14957516.59444  22451341.5164                   22451339.8164
 -26694834.92648 -20789332.07447  20221237.1884                   20221234.6884
 -16152476.99646 -12573486.77743  24264687.2274                   24264687.5084
 -15256227.64147 -11876396.19146  21765243.7274                   21765243.8674
 -27981009.64847 -21791373.07446  21187747.7814                   21187743.6844
 -13122832.04347 -10213584.30145  21801541.8754                   21801539.5904
 11  8 24  1 29 30.0000000  0  9G12G29G26G10G05G04G25G02G30
 -24557224.75848 -19124026.12946  20871518.1094                   20871516.1094
  -2650962.00847  -2056178.62144  23533877.5864                   23533876.9884
   3863132.85946   3027281.58243  24665693.0234                   24665694.1024
 -19143069.71547 -14906031.87945  22463914.6094                   22463912.8634
 -26725617.97748 -20813318.85247  20215379.2114                   20215376.9264
 -16097880.46147 -12530944.06244  24275076.3594                   24275076.9614
 -15315306.17247 -11922431.40646  21754001.0784                   21754001.5944
 -27973167.16848 -21785262.03146  21189240.2034                   21189235.5944
 -13173342.50047 -10252943.07846  21791929.8524                   21791927.9304
 11  8 24  1 30  0.0000000  0  9G12G29G26G10G05G04G25G02G30
 -24549909.68748 -19118326.07046  20872910.0234                   20872907.6884
  -2758425.98447  -2139916.77344  23513428.0394                   23513427.4104
   3746649.91846   2936515.81344  24643527.0474                   24643528.2774
 -19076666.69947 -14854289.28945  22476551.0084                   22476548.9184
 -26755819.48048 -20836852.47347  20209632.4064                   20209629.7854
 -16043337.72347 -12488443.28544  24285455.6254                   24285455.7894
 -15373824.41847 -11968030.03146  21742866.0314                   21742865.8954
 -27965211.30548 -21779062.64146  21190753.8594                   21190749.5744
 -13223250.89147 -10291832.73046  21782432.5784                   21782430.7854
 11  8 24  1 30 30.0000000  0  9G12G29G26G10G05G04G25G02G30
 -24542037.80548 -19112192.13746  20874408.1484                   20874405.8364
  -2865902.02747  -2223664.31245  23492976.1804                   23492975.1994
   3630054.69946   2845662.52744  24621339.7424                   24621340.5514
 -19009934.18746 -14802289.95744  22489249.5314                   22489247.7464
 -26785437.93748 -20859931.77047  20203996.1644                   20203993.5434
 -15988847.62947 -12445983.50444  24295824.4534                   24295824.8244
 -15431779.82448 -12013190.08646  21731837.0784                   21731837.4264
 -27957141.41848 -21772774.41446  21192289.7894                   21192285.1484
 -13272555.12147 -10330251.60945  21773050.3754                   21773048.4614
 11  8 24  1 31  0.0000000  0  9G12G29G26G10G05G04G25G02G30
 -24533612.89548 -19105627.27346  20876011.3204                   20876008.9344
  -2973390.86747  -2307421.83645  23472521.9694                   23472520.9614
   3513347.79346   2754722.22744  24599130.9224                   24599132.1524
 -18942877.24646 -14750037.82445  22502010.2734                   22502008.4964
 -26814476.50048 -20882559.20747  20198470.1804                   20198467.5314
 -15934412.71947 -12403566.73444  24306183.1644                   24306183.9884
 -15489173.51648 -12057912.44946  21720915.8444                   21720915.9654
 -27948960.13748 -21766399.37546  21193846.4064                   21193842.0704
 -13321256.75448 -10368200.93045  21763782.7974                   21763780.7854
 11  8 24  1 31 30.0000000  0  9G12G29G26G10G05G04G25G02G30
 -24524635.23448 -19098631.70346  20877719.7344                   20877717.1094
  -3080890.39147  -2391187.65645  23452065.4614                   23452064.0044
   3396533.03146   2663697.89543  24576901.5474                   24576903.3984
 -18875497.84846 -14697534.43444  22514831.9454                   22514830.4924
 -26842934.37948 -20904734.16847  20193054.5784                   20193051.9694
 -15880032.34047 -12361192.45744  24316531.5004                   24316531.8444
 -15546003.55548 -12102195.59846  21710101.3134                   21710101.6094
 -27940667.15648 -21759937.29746  21195424.5704                   21195420.1994
 -13369354.34848 -10405679.57446  21754629.9774                   21754627.8364
 11  8 24  1 32  0.0000000  0  9G12G29G26G10G05G04G25G02G30
 -24515104.88348 -19091205.44946  20879533.1334                   20879530.7974
  -3188397.84447  -2474959.64845  23431607.2034                   23431605.9694
   3279614.85246   2572592.95343  24554652.6484                   24554653.7274
 -18807797.18447 -14644780.71145  22527715.0004                   22527713.5004
 -26870810.34048 -20926455.67247  20187750.3984                   20187747.7464
 -15825705.16447 -12318859.65644  24326870.2274                   24326870.0634
 -15602267.30148 -12146037.48046  21699394.7034                   21699394.6764
 -27932261.59048 -21753387.49646  21197024.1484                   21197019.6024
 -13416845.78548 -10442685.89145  21745592.5234                   21745590.5274
 11  8 24  1 32 30.0000000  0  9G12G29G26G10G05G04G25G02G30
 -24505024.87148 -19083350.89846  20881451.7114                   20881448.9414
  -3295913.98446  -2558738.37545  23411147.4224                   23411146.3834
   3162594.06346   2481408.05543  24532384.5704                   24532385.0314
 -18739780.35247 -14591780.62144  22540658.2814                   22540656.2974
 -26898107.00848 -20947725.78547  20182555.6884                   20182553.0314
 -15771433.48447 -12276570.09044  24337197.3134                   24337197.9224
 -15657965.90247 -12189438.98446  21688795.6094                   21688795.5864
 -27923745.90648 -21746751.88346  21198644.7194                   21198640.3404
 -13463732.69547 -10479221.14145  21736670.4694                   21736668.5824
 11  8 24  1 33  0.0000000  0  9G12G29G26G10G05G04G25G02G30
 -24494398.46148 -19075070.58646  20883473.8984                   20883471.1724
  -3403438.94146  -2642523.98445  23390686.0084                   23390685.2934
   3045472.25046   2390144.40643  24510096.6724                   24510097.5004
 -18671451.66847 -14538537.52045  22553660.5314                   22553659.0824
 -26924826.35948 -20968546.04347  20177471.1094                   20177468.3674
 -15717219.16847 -12234325.22344  24347513.5704                   24347514.0664
 -15713099.77047 -12232400.43746  21678304.0474                   21678304.0784
 -27915122.44548 -21740032.29746  21200285.8444                   21200281.2234
 -13510015.92248 -10515285.99245  21727862.8594                   21727861.0394
 11  8 24  1 33 30.0000000  0  9G12G29G26G10G05G04G25G02G30
 -24483224.33248 -19066363.48446  20885600.1334                   20885597.2544
  -3510968.59847  -2726313.23044  23370224.0944                   23370222.3204
   2928254.95746   2298806.36743  24487790.6254                   24487791.6604
 -18602811.28547 -14485051.54744  22566722.3914                   22566721.0204
 -26950965.93748 -20988914.52747  20172496.9844                   20172494.5904
 -15663059.77047 -12192123.14543  24357820.6174                   24357820.7304
 -15767665.32848 -12274919.05946  21667920.7894                   21667920.6374
 -27906389.12148 -21733227.09846  21201947.4924                   21201943.0274
 -13555692.46548 -10550878.10945  21719171.4454                   21719169.3244
 11  8 24  1 34  0.0000000  0  9G12G29G26G10G05G04G25G02G30
 -24471504.81648 -19057231.39146  20887830.4844                   20887827.4574
  -3618502.98447  -2810106.16044  23349760.1724                   23349759.0984
   2810944.08646   2207395.43043  24465467.5554                   24465467.7934
 -18533863.08247 -14431325.71544  22579843.1954                   22579841.4964
 -26976527.28548 -21008832.44547  20167632.9224                   20167630.2154
 -15608956.19946 -12149964.55543  24368116.0004                   24368116.2704
 -15821662.52347 -12316994.80146  21657645.1254                   21657645.2034
 -27897547.05148 -21726337.15646  21203630.0394                   21203625.9344
 -13600762.75048 -10585997.81645  21710594.2114                   21710592.6724
 11  8 24  1 34 30.0000000  0  9G12G29G26G10G05G04G25G02G30
 -24459241.85248 -19047675.84446  20890163.9534                   20890161.3484
  -3726040.82447  -2893901.78144  23329296.6644                   23329295.0784
   2693542.63346   2115913.86743  24443126.9224                   24443127.2154
 -18464610.50847 -14377362.70744  22593021.5234                   22593019.7584
 -27001511.15247 -21028300.36747  20162878.6334                   20162875.7384
 -15554909.27346 -12107850.10243  24378400.1024                   24378401.3674
 -15875090.74248 -12358627.18746  21647478.2274                   21647478.4774
 -27888597.69548 -21719363.62546  21205332.8524                   21205328.5634
 -13645226.68748 -10620645.04745  21702133.5314                   21702131.4024
 11  8 24  1 35  0.0000000  0  9G12G29G26G10G05G04G25G02G30
 -24446436.18748 -19037697.41046  20892600.6174                   20892598.2194
  -3833579.90647  -2977698.39144  23308832.7894                   23308831.1484
   2576054.07446   2024364.40643  24420769.2344                   24420768.9264
 -18395055.24647 -14323163.83644  22606257.1094                   22606255.7544
 -27025917.25448 -21047318.09047  20158234.1804                   20158231.8014
 -15500918.27746 -12065779.23843  24388674.6884                   24388675.6764
 -15927948.29347 -12399814.88746  21637419.6564                   21637419.9104
 -27879540.50048 -21712306.06646  21207056.7734                   21207052.1724
 -13689083.10248 -10654818.87945  21693787.9064                   21693786.2464
 11  8 24  1 35 30.0000000  0  9G12G29G26G10G05G04G25G02G30
 -24433089.55148 -19027297.44546  20895140.3984                   20895137.5274
  -3941119.59047  -3061495.46944  23288369.2974                   23288366.9924
   2458481.03946   1932749.15643  24398395.3134                   24398395.6994
 -18325200.67646 -14268731.73044  22619550.4304                   22619548.5634
 -27049746.75048 -21065886.50447  20153699.7274                   20153696.9304
 -15446984.03546 -12023752.62142  24398937.4304                   24398938.9264
 -15980234.93047 -12440557.72746  21627469.8834                   21627470.2974
 -27870376.05147 -21705164.93046  21208800.4064                   21208796.4614
 -13732332.12948 -10688519.43445  21685557.8914                   21685555.4804
 11  8 24  1 36  0.0000000  0  9G12G29G26G10G05G04G25G02G30
 -24419204.06648 -19016477.59846  20897782.8054                   20897780.4344
  -4048658.85247  -3145292.21544  23267904.2894                   23267902.7704
   2340826.22746   1841070.18042  24376006.5314                   24376006.1844
 -18255050.24646 -14214069.10244  22632899.5474                   22632898.1294
 -27073000.47748 -21084006.27047  20149274.7974                   20149272.2034
 -15393107.03946 -11981770.60242  24409190.1954                   24409190.5164
 -16031949.91847 -12480855.11346  21617628.7734                   21617629.3324
 -27861105.47347 -21697941.10546  21210564.6094                   21210560.4614
 -13774973.63348 -10721746.58245  21677443.2344                   21677441.3094
 11  8 24  1 36 30.0000000  0  9G12G29G26G10G05G04G25G02G30
 -24404781.10548 -19005238.93446  20900527.5234                   20900524.7464
  -4156195.83647  -3229087.19145  23247440.2584                   23247439.3634
   2223092.96546   1749330.05142  24353602.2194                   24353601.6684
 -18184606.41046 -14159177.82844  22646304.6484                   22646302.9844
 -27095678.87148 -21101677.72347  20144958.8914                   20144956.4184
 -15339287.00446 -11939832.94142  24419431.1334                   24419432.4224
 -16083092.32048 -12520706.32846  21607896.9224                   21607896.9734
 -27851729.13347 -21690634.86346  21212348.7814                   21212344.4804
 -13817007.28948 -10754500.07846  21669444.7424                   21669442.5044
 11  8 24  1 37  0.0000000  0  9G12G29G26G10G05G04G25G02G30
 -24389823.66448 -18993583.79346  20903373.8754                   20903371.0004
  -4263730.98447  -3312880.75445  23226977.4224                   23226976.2194
   2105282.48446   1657529.82042  24331183.9694                   24331183.2934
 -18113873.90246 -14104061.64144  22659764.5084                   22659763.3554
 -27117784.26647 -21118902.66847  20140752.5554                   20140749.6414
 -15285526.09445 -11897941.34842  24429661.8204                   24429662.4184
 -16133662.88347 -12560111.95746  21598273.5314                   21598273.8014
 -27842249.28947 -21683247.97346  21214152.8594                   21214148.1254
 -13858434.22348 -10786780.81246  21661561.4454                   21661559.2344
 11  8 24  1 37 30.0000000  0  9G12G29G26G10G05G04G25G02G30
 -24374329.91448 -18981510.74646  20906322.0394                   20906319.2704
  -4371259.22747  -3396668.93044  23206515.6484                   23206513.9454
   1987401.55146   1565674.68443  24308751.2194                   24308750.9454
 -18042851.87546 -14048719.83244  22673279.5634                   22673277.9414
 -27139313.27048 -21135678.48847  20136655.5944                   20136653.1524
 -15231820.59846 -11856092.94542  24439882.5004                   24439882.1174
 -16183657.18048 -12599068.54746  21588759.8914                   21588760.0084
 -27832662.68747 -21675777.90246  21215977.0474                   21215972.5594
 -13899250.61348 -10818585.78945  21653794.1484                   21653791.8324
 11  8 24  1 38  0.0000000  0  9G12G29G26G10G05G04G25G02G30
 -24358304.19948 -18969023.19146  20909371.8134                   20909368.9654
  -4478781.73047  -3480452.64845  23186054.5634                   23186053.1254
   1869450.83246   1473765.16043  24286306.0474                   24286306.3244
 -17971545.93046 -13993156.79744  22686848.2034                   22686846.7704
 -27160269.41048 -21152007.92247  20132668.0004                   20132665.1644
 -15178173.25846 -11814289.83642  24450091.8914                   24450091.5824
 -16233077.12547 -12637577.59046  21579355.7274                   21579355.5664
 -27822972.46947 -21668227.08646  21217821.2814                   21217816.9804
 -13939458.87948 -10849916.90245  21646142.7974                   21646140.8914
 11  8 24  1 38 30.0000000  0  9G12G29G26G10G05G04G25G02G30
 -24341747.44948 -18956121.83646  20912522.1804                   20912519.7974
  -4586296.35247  -3564230.22345  23165595.2974                   23165593.7504
   1751433.80946   1381803.97743  24263848.4924                   24263848.2384
 -17899958.10246 -13937374.09444  22700471.1884                   22700469.6884
 -27180652.78148 -21167891.03547  20128788.8524                   20128786.5354
 -15124583.70746 -11772531.72342  24460288.7734                   24460289.3634
 -16281921.34047 -12675638.00846  21570061.1484                   21570060.8674
 -27813178.50847 -21660595.43046  21219684.7194                   21219680.1994
 -13979058.15248 -10880773.47345  21638607.1804                   21638604.8634
 11  8 24  1 39  0.0000000  0  9G12G29G26G10G05G04G25G02G30
 -24324661.88348 -18942808.41846  20915773.6564                   20915771.1804
  -4693802.54746  -3648001.25045  23145137.2424                   23145135.9024
   1633352.78546   1289792.89543  24241377.8054                   24241378.2424
 -17828092.05946 -13881374.60944  22714147.2424                   22714145.4844
 -27200464.88348 -21183329.00447  20125018.9924                   20125016.0554
 -15071052.75846 -11730819.32042  24470475.5164                   24470476.4184
 -16330189.87548 -12713249.84046  21560875.7274                   21560875.7974
 -27803281.87947 -21652883.77746  21221568.1724                   21221563.8014
 -14018049.03948 -10911155.97345  21631187.7034                   21631185.6024
 11  8 24  1 39 30.0000000  0  9G12G29G26G10G05G04G25G02G30
 -24307050.02748 -18929084.90646  20919125.1414                   20919122.3014
  -4801299.32847  -3731764.94945  23124682.1954                   23124679.7584
   1515210.32046   1197733.94543  24218896.1254                   24218895.7464
 -17755951.27746 -13825161.02744  22727875.1334                   22727873.2344
 -27219707.03148 -21198322.85247  20121357.3134                   20121354.5394
 -15017581.34846 -11689153.28543  24480651.0944                   24480650.7734
 -16377882.65648 -12750413.03946  21551800.0084                   21551799.7774
 -27793283.82847 -21645093.09846  21223470.2114                   21223466.3014
 -14056431.99248 -10941064.75445  21623883.5394                   21623881.4844
 11  8 24  1 40  0.0000000  0  9G12G29G26G10G05G04G25G02G30
 -24288914.46148 -18914953.29746  20922576.1484                   20922573.9774
  -4908786.23446  -3815520.95345  23104227.7194                   23104225.4964
   1397008.73447   1105628.91843  24196402.9844                   24196403.2624
 -17683539.36346 -13768736.19544  22741654.1564                   22741653.2894
 -27238380.87147 -21212873.86747  20117803.5784                   20117801.1094
 -14964170.44546 -11647534.39543  24490814.5084                   24490814.6954
 -16424999.82047 -12787127.70346  21542834.1024                   21542833.7074
 -27783185.34047 -21637224.16446  21225392.2194                   21225388.0314
 -14094207.69948 -10970500.35946  21616694.8914                   21616693.1564
 11  8 24  1 40 30.0000000  0  9G12G29G26G10G05G04G25G02G30
 -22694836.70748 -17672814.80146  21225919.2734                   21225916.4924
  -3440837.24247  -2671664.57045  23383568.2734                   23383566.6454
   2854175.91847   2241084.00843  24473692.9064                   24473692.8594
 -16035441.10246 -12484503.82844  23055277.5234                   23055275.8094
 -25681065.85548 -19999381.61747  20414150.9064                   20414148.3594
 -13335401.10246 -10378363.46543  24800759.1024                   24800759.8524
 -14896118.42248 -11595791.53546  21833770.4454                   21833770.4224
 -26197566.70748 -20401677.19946  21527125.6884                   21527121.6374
 -12555954.11348  -9771861.19946  21909415.0004                   21909412.9964
 11  8 24  1 41  0.0000000  0  9G12G29G26G10G05G04G25G02G30
 -22675656.92648 -17657869.52746  21229569.0474                   21229566.2774
  -3548297.95746  -2755400.17245  23363119.6414                   23363118.1174
   2735867.13747   2148895.49243  24451178.8364                   24451179.5824
 -15962493.97246 -12427661.96544  23069158.6254                   23069157.1294
 -25698603.42648 -20013047.22747  20410813.3984                   20410811.0354
 -13282109.46946 -10336837.52043  24810901.0554                   24810900.1054
 -14942080.77748 -11631606.34046  21825024.0084                   21825024.2664
 -26187267.42647 -20393651.79346  21529085.3754                   21529080.8874
 -12592513.33248  -9800348.88746  21902458.2424                   21902456.2584
 11  8 24  1 41 30.0000000  0  8G12G29G26G10G05G25G02G30
 -22655958.65648 -17642520.23046  21233317.3444                   21233314.6454
  -3655744.53546  -2839124.73045  23342673.2504                   23342671.4734
   2617508.21947   2056667.92243  24428656.0234                   24428656.3204
 -15889284.82846 -12370615.86744  23083089.9224                   23083088.2304
 -25715575.43047 -20026272.14547  20407583.6954                   20407581.1134
 -14987466.07847 -11666971.48846  21816387.3914                   21816387.5944
 -26176869.43448 -20385549.46146  21531063.9844                   21531059.5124
 -12628465.54348  -9828363.59046  21895616.3984                   21895614.8714
 11  8 24  1 42  0.0000000  0  8G12G29G26G10G05G25G02G30
 -22635744.18748 -17626768.70746  21237164.1024                   21237161.4734
  -3763175.45746  -2922837.09045  23322229.5084                   23322227.9734
   2499102.64547   1964403.98443  24406124.4774                   24406124.2974
 -15815815.94946 -12313367.41844  23097070.8524                   23097069.3834
 -25731982.08248 -20039056.52347  20404461.8284                   20404459.2464
 -15032273.30548 -11701886.18746  21807860.6484                   21807860.7154
 -26166372.77748 -20377370.25446  21533061.6724                   21533057.2774
 -12663810.25048  -9855904.91046  21888890.7584                   21888889.1844
 11  8 24  1 42 30.0000000  0  8G12G29G26G10G05G25G02G30
 -22615005.72348 -17610608.87946  21241110.5704                   21241107.8444
  -3870579.77347  -3006528.71945  23301791.3594                   23301789.8484
   2380662.96547   1872113.45744  24383585.5784                   24383585.6914
 -15742081.05146 -12255911.67244  23111101.7034                   23111100.4184
 -25747815.43048 -20051394.18047  20401448.7894                   20401445.9574
 -15076492.75448 -11736342.88346  21799446.2584                   21799446.1374
 -26155768.76648 -20369107.39146  21535079.5474                   21535075.1134
 -12698538.21148  -9882965.65246  21882282.0634                   21882280.3954
 11  8 24  1 43  0.0000000  0  8G12G29G26G10G05G25G02G30
 -22593743.76648 -17594041.12946  21245156.5704                   21245153.9224
  -3977954.27047  -3090197.11345  23281358.4694                   23281357.0474
   2262193.45347   1779799.68044  24361041.7274                   24361041.7544
 -15668081.64146 -12198249.83644  23125183.8134                   23125182.2544
 -25763074.88748 -20063284.64147  20398544.8204                   20398542.1844
 -15120122.61748 -11770340.15646  21791143.5864                   21791143.8524
 -26145056.39848 -20360760.09446  21537117.9534                   21537113.7114
 -12732648.26248  -9909544.89146  21875791.2274                   21875789.5314
 11  8 24  1 43 30.0000000  0  8G12G29G26G10G05G25G02G30
 -22571960.14848 -17577066.89846  21249302.0084                   21249299.0204
  -4085298.03547  -3173841.53545  23260931.1954                   23260930.3204
   2143697.14547   1687465.03143  24338492.7814                   24338493.1294
 -15593820.71147 -12140384.19944  23139314.7504                   23139313.7034
 -25777761.46948 -20074728.71947  20395750.0004                   20395747.3164
 -15163162.47348 -11803877.68446  21782953.1174                   21782953.7664
 -26134236.16448 -20352328.74246  21539176.8364                   21539172.8134
 -12766140.50048  -9935642.73046  21869417.7894                   21869415.8954
 11  8 24  1 44  0.0000000  0  8G12G29G26G10G05G25G02G30
 -22549658.53948 -17559689.03546  21253545.6174                   21253542.6564
  -4192611.28947  -3257462.21145  23240510.3054                   23240509.2854
   2025175.74646   1595110.82844  24315938.1414                   24315938.4454
 -15519302.94546 -12082318.44944  23153495.6414                   23153493.8054
 -25791877.90648 -20085728.52747  20393063.7974                   20393061.2664
 -15205613.82448 -11836956.62546  21774874.8364                   21774875.2074
 -26123310.61348 -20343815.32846  21541256.0634                   21541251.5944
 -12799017.05948  -9961260.80946  21863161.3754                   21863159.5044
 11  8 24  1 44 30.0000000  0  8G12G29G26G10G05G25G02G30
 -22526843.80948 -17541911.34046  21257887.0784                   21257884.6054
  -4299895.09847  -3341059.92645  23220095.1414                   23220093.5634
   1906629.30546   1502737.09843  24293380.2584                   24293380.1914
 -15444534.03546 -12024056.98844  23167723.4614                   23167722.2384
 -25805427.98448 -20096287.01247  20390485.2814                   20390482.4304
 -15247478.79748 -11869578.66846  21766908.4694                   21766908.9024
 -26112282.58248 -20335222.05946  21543354.8134                   21543350.2074
 -12831280.55548  -9986401.18746  21857022.1334                   21857020.1884
 11  8 24  1 45  0.0000000  0  8G12G29G26G10G05G25G02G30
 -22503521.34048 -17523738.00446  21262325.0864                   21262322.6254
  -4407151.50047  -3424636.29745  23199684.9304                   23199683.1054
   1788057.80146   1410343.82443  24270816.6724                   24270816.9534
 -15369520.44947 -11965604.86744  23181997.6644                   23181996.4574
 -25818416.28148 -20106407.74647  20388013.5234                   20388010.7424
 -15288760.67648 -11901746.35246  21759052.6804                   21759053.1174
 -26101156.16848 -20326552.11746  21545472.0004                   21545467.5124
 -12862934.87148 -10011066.87146  21850998.4924                   21850996.0904
 11  8 24  1 45 30.0000000  0  8G12G29G26G10G05G25G02G30
 -22479693.45748 -17505170.84446  21266859.7194                   21266857.1604
  -4514379.81647  -3508190.78145  23179279.7344                   23179278.4964
   1669463.60546   1317932.88743  24248248.4454                   24248248.1604
 -15294265.29747 -11906964.52344  23196318.9224                   23196317.1914
 -25830844.32448 -20116091.93047  20385648.6024                   20385645.6884
 -15329459.75048 -11933459.90646  21751307.8984                   21751308.0824
 -26089932.16448 -20317806.12546  21547607.5704                   21547603.1294
 -12893980.78548 -10035258.49246  21845090.8054                   21845088.2304
 11  8 24  1 46  0.0000000  0  8G12G29G26G10G05G25G02G30
 -22455363.19548 -17486212.21546  21271489.3284                   21271486.8094
  -4621578.59447  -3591722.24245  23158880.8204                   23158879.0984
   1550849.16046   1225506.12943  24225676.3984                   24225676.8014
 -15218772.34847 -11848138.86744  23210684.7194                   23210683.3444
 -25842713.85548 -20125340.90247  20383390.3834                   20383387.6094
 -15369576.20348 -11964719.46546  21743674.1174                   21743674.1804
 -26078611.75448 -20308985.01246  21549762.0634                   21549757.5474
 -12924419.13747 -10058976.68445  21839298.2584                   21839296.1684
 11  8 24  1 46 30.0000000  0  8G12G29G26G10G05G25G02G30
 -22430530.66848 -17466862.21946  21276215.1484                   21276212.3014
  -4728744.76647  -3675228.30545  23138487.8914                   23138485.5084
   1432219.94546   1133067.94143  24203102.0864                   24203102.3324
 -15143042.54347 -11789128.65244  23225095.4224                   23225094.0514
 -25854024.17648 -20134154.13747  20381237.6094                   20381234.8134
 -15409108.01248 -11995523.46146  21736151.5704                   21736151.4694
 -26067193.31248 -20300087.51246  21551934.8444                   21551930.5434
 -12954248.48048 -10082220.32045  21833622.1414                   21833620.0004
 11  8 24  1 47  0.0000000  0  8G12G29G26G10G05G25G02G30
 -22405200.39148 -17447124.35246  21281035.0864                   21281032.4804
  -4835879.31647  -3758709.72345  23118100.1644                   23118098.9384
   1313576.56346   1040618.65243  24180525.5554                   24180525.1294
 -15067081.09847 -11729937.94944  23239550.6414                   23239549.1174
 -25864778.73048 -20142534.30547  20379191.0944                   20379188.1954
 -15448057.22348 -12025873.48446  21728739.6414                   21728739.5044
 -26055679.71148 -20291115.85946  21554125.8134                   21554121.0474
 -12983471.36748 -10104991.40245  21828061.1174                   21828058.7774
 11  8 24  1 47 30.0000000  0  8G12G29G26G10G05G25G02G30
 -22379374.96148 -17427000.66046  21285949.3054                   21285947.0084
  -4942981.28547  -3842165.75845  23097719.3134                   23097717.7344
   1194921.39846    948160.19943  24157945.8524                   24157945.9804
 -14990891.64147 -11670569.55544  23254048.6254                   23254047.1174
 -25874979.74248 -20150483.13347  20377249.9304                   20377247.1484
 -15486424.44148 -12055770.01246  21721438.6724                   21721438.5354
 -26044072.37948 -20282071.18046  21556334.6414                   21556330.2464
 -13012088.94948 -10127290.81245  21822615.4224                   21822613.0434
 11  8 24  1 48  0.0000000  0  8G12G29G26G10G05G25G02G30
 -22353054.55548 -17406491.26246  21290958.3444                   21290955.8244
  -5050047.18747  -3925593.69545  23077345.7034                   23077344.3484
   1076259.76646    855696.70743  24135364.8754                   24135364.6174
 -14914475.33647 -11611024.41844  23268590.4064                   23268588.8404
 -25884626.09848 -20157999.75847  20375414.4384                   20375411.5514
 -15524207.55148 -12085211.39146  21714248.7584                   21714248.5164
 -26032369.44948 -20272952.01246  21558561.6174                   21558556.7274
 -13040099.80548 -10149117.45345  21817285.0704                   21817282.4304
 11  8 24  1 48 30.0000000  0  8G12G29G26G10G05G25G02G30
 -22326242.55148 -17385598.80946  21296060.2504                   21296057.7814
  -5157076.90247  -4008993.42245  23056978.4694                   23056977.2704
    957593.25446    763229.40243  24112784.1884                   24112783.0434
 -14837836.30147 -11551305.70344  23283174.2504                   23283172.7074
 -25893720.45748 -20165086.26647  20373683.8054                   20373680.7854
 -15561407.78948 -12114198.58246  21707169.9144                   21707169.5354
 -26020572.85248 -20263759.85246  21560806.3444                   21560801.9774
 -13067505.68748 -10170472.68745  21812069.8524                   21812067.6024
 11  8 24  1 49  0.0000000  0  8G12G29G26G10G05G25G02G30
 -22298941.29348 -17364325.10946  21301255.6024                   21301253.1334
  -5264068.10947  -4092363.15645  23036619.0314                   23036616.8054
    838925.58647    670761.16443  24090202.0864                   24090200.9304
 -14760976.94947 -11491415.32044  23297800.4144                   23297798.7154
 -25902263.38748 -20171743.08247  20372058.2504                   20372055.3134
 -15598024.50448 -12142731.07846  21700201.5704                   21700201.7034
 -26008682.32448 -20254494.50046  21563069.0864                   21563064.3754
 -13094306.54348 -10191356.47745  21806969.6334                   21806967.7304
 11  8 24  1 49 30.0000000  0  8G12G29G26G10G05G25G02G30
 -22271152.95348 -17342671.87546  21306543.5004                   21306541.0474
  -5371020.05547  -4175702.30545  23016266.8134                   23016265.2814
    720259.46547    578294.16843  24067620.0864                   24067619.5904
 -14683900.84847 -11431356.04744  23312467.5634                   23312465.5474
 -25910257.12948 -20177971.96147  20370536.9614                   20370534.2734
 -15634058.19148 -12170809.27346  21693344.9144                   21693344.7814
 -25996698.85248 -20245156.72746  21565349.7734                   21565344.9144
 -13120503.37148 -10211769.58646  21801984.3674                   21801982.7114
 11  8 24  1 50  0.0000000  0  8G12G29G26G10G05G25G02G30
 -22242879.30948 -17320640.47346  21311923.7504                   21311921.0634
  -5477930.41847  -4259009.05945  22995922.5634                   22995920.5354
    601598.87147    485831.46543  24045040.1024                   24045039.7974
 -14606610.01647 -11371129.43444  23327175.0784                   23327173.6564
 -25917702.02748 -20183773.17247  20369120.2584                   20369117.3444
 -15669508.10548 -12198432.58246  21686599.1804                   21686598.9734
 -25984622.26248 -20235746.38346  21567647.4614                   21567643.1884
 -13146096.16048 -10231712.02345  21797114.5944                   21797112.2074
 11  8 24  1 50 30.0000000  0  8G12G29G26G10G05G25G02G30
 -22214124.56648 -17298234.19546  21317395.4924                   21317393.1844
  -5584799.84847  -4342283.91445  22975585.6334                   22975584.3054
    482945.00447    393374.02043  24022460.7274                   24022460.5044
 -14529109.59047 -11310739.48844  23341922.9064                   23341921.4734
 -25924601.48048 -20189149.35247  20367807.0164                   20367804.3754
 -15704376.30948 -12225602.59446  21679963.6954                   21679963.8244
 -25972454.90648 -20226265.32446  21569963.0784                   21569958.2034
 -13171087.45748 -10251185.76245  21792358.9144                   21792356.8134
 11  8 24  1 51  0.0000000  0  8G12G29G26G10G05G25G02G30
 -22184888.29748 -17275452.70346  21322959.3364                   21322956.5204
  -5691624.14547  -4425523.59845  22955257.8984                   22955255.8984
    364303.67246    300926.32443  23999884.7974                   23999883.9844
 -14451399.75847 -11250186.39144  23356710.7894                   23356709.1454
 -25930954.58648 -20194099.80947  20366598.2114                   20366595.3484
 -15738660.11748 -12252317.24246  21673439.6954                   21673439.9344
 -25960194.66048 -20216711.87946  21572296.0704                   21572291.4804
 -13195475.18447 -10270189.18046  21787718.1174                   21787715.9264
 11  8 24  1 51 30.0000000  0  8G12G29G26G10G05G25G02G30
 -22155172.35548 -17252297.43446  21328614.2274                   21328611.5664
  -5798401.41447  -4508726.66445  22934938.2734                   22934937.0124
    245678.08246    208490.93043  23977310.2344                   23977310.1024
 -14373483.28947 -11189472.27744  23371538.0314                   23371536.6884
 -25936762.36348 -20198625.32847  20365492.9304                   20365490.0944
 -15772359.53148 -12278576.52046  21667027.0234                   21667027.3204
 -25947841.77048 -20207086.24646  21574646.7194                   21574642.1524
 -13219259.87547 -10288722.70746  21783191.9844                   21783189.7154
 11  8 24  1 52  0.0000000  0  8G12G29G26G10G05G25G02G30
 -22124981.70748 -17228772.26646  21334359.0634                   21334356.7034
  -5905132.13347  -4591893.43045  22914628.1334                   22914626.5634
    127069.66046    116068.87143  23954739.7274                   23954739.4414
 -14295364.74647 -11128600.70344  23386403.2664                   23386402.1604
 -25942027.93048 -20202728.35547  20364491.2034                   20364488.2464
 -15805476.57048 -12304382.00046  21660725.0784                   21660724.9064
 -25935398.64848 -20197390.31246  21577014.2734                   21577009.9774
 -13242444.23847 -10306788.43746  21778780.0784                   21778777.5314
 11  8 24  1 52 30.0000000  0  8G12G29G26G10G05G25G02G30
 -22094319.19148 -17204879.40646  21340194.1804                   21340191.3364
  -6011815.30547  -4675023.17245  22894326.7664                   22894325.2974
      8480.72346     23662.02044  23932172.9064                   23932172.9534
 -14217048.22347 -11067574.87544  23401305.5084                   23401305.2274
 -25946753.53948 -20206410.62547  20363591.6024                   20363588.8874
 -15838012.05948 -12329734.32046  21654533.8284                   21654533.8364
 -25922866.12148 -20187624.71146  21579399.5164                   21579394.9654
 -13265029.61748 -10324387.43045  21774482.4534                   21774480.0744
 11  8 24  1 53  0.0000000  0  8G12G29G26G10G05G25G02G30
 -22063182.69148 -17180617.20746  21346119.1564                   21346116.5434
  -6118445.19147  -4758111.39145  22874036.0634                   22874034.2344
   -110080.83246    -68723.50844  23909611.6414                   23909611.2194
 -14138532.18747 -11006393.57444  23416247.6254                   23416246.4064
 -25950936.54748 -20209670.09847  20362795.8594                   20362793.0984
 -15869961.82448 -12354630.22346  21648453.7424                   21648453.7504
 -25910240.61348 -20177786.65246  21581802.1564                   21581797.4414
 -13287012.51248 -10341516.95345  21770299.2894                   21770296.6454
 11  8 24  1 53 30.0000000  0  8G12G29G26G10G05G25G02G30
 -22031577.55148 -17155989.84846  21352133.5784                   21352130.8444
  -6225023.29347  -4841159.26245  22853755.0944                   22853753.5664
   -228615.19146   -161087.82844  23887054.9924                   23887054.5554
 -14059822.64847 -10945061.49244  23431225.1174                   23431224.0784
 -25954581.33248 -20212510.17247  20362101.8134                   20362099.2464
 -15901329.09048 -12379072.24246  21642484.5634                   21642484.9304
 -25897525.21148 -20167878.54746  21584221.4774                   21584217.1374
 -13308396.62148 -10358179.89545  21766229.9534                   21766227.5354
 11  8 24  1 54  0.0000000  0  8G12G29G26G10G05G25G02G30
 -21999504.00048 -17130997.48446  21358236.3594                   21358233.9454
  -6331545.69947  -4924163.72745  22833484.8054                   22833483.2424
   -347116.57446   -253426.47344  23864504.3204                   23864504.5084
 -13980920.19147 -10883579.07844  23446239.8364                   23446238.8164
 -25957687.37148 -20214930.44547  20361511.0784                   20361508.4614
 -15932111.84848 -12403058.79346  21636626.8284                   21636627.0204
 -25884718.21148 -20157899.06246  21586658.7814                   21586653.9534
 -13329180.64848 -10374375.23445  21762274.7344                   21762272.5984
 11  8 24  1 54 30.0000000  0  8G12G29G26G10G05G25G02G30
 -21966966.91848 -17105643.93446  21364428.4614                   21364425.7114
  -6438012.75047  -5007125.04745  22813224.1254                   22813222.7114
   -465584.19146   -345738.78944  23841961.2664                   23841960.8204
 -13901829.85947 -10821950.28144  23461290.6254                   23461289.8134
 -25960258.15248 -20216933.64147  20361021.7274                   20361019.2424
 -15962312.47348 -12426591.73846  21630880.0944                   21630879.8134
 -25871822.34448 -20147850.35246  21589112.4614                   21589108.6524
 -13349367.45748 -10390105.20745  21758433.5784                   21758431.3134
 11  8 24  1 55  0.0000000  0  8G12G29G26G10G05G25G02G30
 -21933968.51248 -17079930.90646  21370708.0164                   21370705.2664
  -6544423.17647  -5090042.22345  22792975.1804                   22792973.1604
   -584014.77046   -438022.25444  23819424.2274                   23819423.5984
 -13822554.26647 -10760177.11344  23476376.2424                   23476375.2074
 -25962295.09448 -20218520.85247  20360634.3914                   20360631.4774
 -15991931.20348 -12449671.26646  21625243.8754                   21625244.1684
 -25858837.63348 -20137732.40246  21591583.7424                   21591579.2344
 -13368957.95348 -10405370.52045  21754705.1564                   21754703.0234
 11  8 24  1 55 30.0000000  0  8G12G29G26G10G05G25G02G30
 -21900506.77048 -17053856.83646  21377075.0314                   21377072.8404
  -6650770.83647  -5172910.51245  22772737.8444                   22772736.5164
   -702400.29346   -530270.60944  23796895.9844                   23796895.5784
 -13743092.00447 -10698258.50044  23491497.4534                   23491496.1804
 -25963795.43748 -20219689.93747  20360348.5394                   20360345.9694
 -16020963.94948 -12472294.18046  21619719.2114                   21619719.0354
 -25845759.97748 -20127542.02046  21594071.8364                   21594067.5004
 -13387948.64848 -10420168.45746  21751091.8444                   21751089.4614
 11  8 24  1 56  0.0000000  0  8G12G29G26G10G05G25G02G30
 -21866588.44948 -17027426.98846  21383529.8754                   21383527.6604
  -6757058.32847  -5255731.89145  22752511.6724                   22752510.3054
   -820742.19946   -622484.98044  23774376.6804                   23774375.8874
 -13663450.85947 -10636200.50044  23506652.5004                   23506651.1454
 -25964765.49248 -20220445.80547  20360164.2114                   20360161.5904
 -16049415.48448 -12494464.19946  21614304.8444                   21614304.8094
 -25832594.52047 -20117283.22746  21596577.4534                   21596573.1214
 -13406344.91047 -10434503.19946  21747590.8984                   21747588.5824
 11  8 24  1 56 30.0000000  0  8G12G29G26G10G05G25G02G30
 -21832216.99648 -17000644.05546  21390070.5394                   21390068.3244
  -6863284.81247  -5338505.73445  22732297.7274                   22732296.4224
   -939037.76646   -714663.23443  23751865.5084                   23751865.1724
 -13583633.97347 -10574005.55544  23521841.3364                   23521839.9344
 -25965207.18448 -20220789.96947  20360080.1954                   20360077.2934
 -16077286.77348 -12516182.07446  21609001.3914                   21609001.2304
 -25819341.98047 -20106956.57846  21599099.0474                   21599094.9384
 -13424148.24647 -10448375.93046  21744202.8204                   21744200.9264
 11  8 24  1 57  0.0000000  0  8G12G29G26G10G05G25G02G30
 -21797391.93447 -16973507.66046  21396697.5234                   21396694.7974
  -6969445.99647  -5421228.67245  22712095.8834                   22712094.6724
  -1057280.94146   -806800.69144  23729364.4774                   23729364.2774
 -13503641.50447 -10511673.78544  23537063.2344                   23537062.3134
 -25965119.67248 -20220721.76647  20360096.7734                   20360094.2854
 -16104575.38348 -12537445.93046  21603808.4694                   21603808.0434
 -25806000.16848 -20096560.36746  21601638.1884                   21601633.6094
 -13441356.91048 -10461785.27046  21740928.6024                   21740926.5554
 11  8 24  1 57 30.0000000  0  9G12G29G26G10G05G15G25G02G30
 -21762118.78948 -16946022.10946  21403409.5164                   21403407.0864
  -7075543.10547  -5503901.70345  22691906.4064                   22691904.7854
  -1175471.63346   -898897.24243  23706873.6094                   23706873.4064
 -13423479.11747 -10449209.62144  23552318.1564                   23552316.6914
 -25964507.55548 -20220244.78147  20360213.1724                   20360210.2664
   6131279.10556   4788170.94553  24610037.4844                   24610036.9224
 -16131284.83648 -12558258.48846  21598725.7584                   21598725.8874
 -25792572.28948 -20086097.08246  21604193.3914                   21604188.9964
 -13457974.94948 -10474734.39546  21737766.2734                   21737763.9804
 11  8 24  1 58  0.0000000  0  9G12G29G26G10G05G15G25G02G30
 -21726406.84847 -16918194.64546  21410206.0004                   21410203.1414
  -7181580.72347  -5586528.36345  22671727.9774                   22671726.5204
  -1293612.77746   -990955.18744  23684391.4844                   23684390.9264
 -13343156.60247 -10386620.66044  23567602.2194                   23567601.4224
 -25963378.98048 -20219365.35947  20360427.9384                   20360425.3674
   6014684.53945   4697318.14843  24587849.7424                   24587849.8674
 -16157422.00048 -12578625.10946  21593752.0474                   21593751.9734
 -25779065.27348 -20075572.14146  21606763.6954                   21606759.3594
 -13474009.86348 -10487229.12546  21734714.6174                   21734712.1094
 11  8 24  1 58 30.0000000  0  9G12G29G26G10G05G15G25G02G30
 -21690259.35548 -16890027.78946  21417084.2344                   21417081.5394
  -7287558.75047  -5669108.58645  22651560.8054                   22651559.5474
  -1411702.08646  -1082972.73444  23661920.3284                   23661919.7504
 -13262677.70747 -10323909.84043  23582917.3594                   23582916.0514
 -25961736.51648 -20218085.51647  20360740.5164                   20360737.6604
   5897952.50045   4606358.28943  24565636.1414                   24565636.5044
 -16182988.30948 -12598546.91446  21588887.1644                   21588886.9414
 -25765480.25447 -20064986.41046  21609349.1564                   21609344.5744
 -13489463.69147 -10499271.06646  21731774.1954                   21731772.0984
 11  8 24  1 59  0.0000000  0  9G12G29G26G10G05G15G25G02G30
 -21653679.18047 -16861523.77046  21424044.9614                   21424042.7854
  -7393475.27347  -5751640.88745  22631405.5634                   22631404.1804
  -1529736.42246  -1174947.45744  23639458.9924                   23639458.4144
 -13182045.10547 -10261079.26643  23598261.2734                   23598260.0984
 -25959581.81248 -20216406.51247  20361150.5634                   20361147.7154
   5781085.04346   4515292.85543  24543397.4304                   24543397.4694
 -16207984.33648 -12618024.34046  21584130.3054                   21584130.2704
 -25751817.74648 -20054340.30546  21611948.9454                   21611944.7234
 -13504337.54747 -10510861.08245  21728943.4064                   21728941.5514
 11  8 24  1 59 30.0000000  0  9G12G29G26G10G05G15G25G02G30
 -21616667.40647 -16832683.44946  21431088.1724                   21431085.9104
  -7499327.26647  -5834122.91045  22611262.3134                   22611261.4104
  -1647710.99246  -1266875.58644  23617009.2114                   23617008.6254
 -13101260.26247 -10198130.06243  23613633.9304                   23613633.0084
 -25956915.25448 -20214328.66447  20361658.2814                   20361654.9344
   5664086.03546   4424124.94944  24521132.7734                   24521133.1564
 -16232409.13348 -12637056.65246  21579482.1174                   21579482.4654
 -25738076.70348 -20043633.00046  21614563.6954                   21614559.3364
 -13518631.20748 -10521999.00046  21726223.7194                   21726221.7074
 11  8 24  2  0  0.0000000  0  9G12G29G26G10G05G15G25G02G30
 -21579222.20347 -16803505.38746  21438213.9064                   21438211.4614
  -7605108.39147  -5916549.70345  22591133.0864                   22591131.7234
  -1765618.13746  -1358751.21144  23594571.6024                   23594571.1094
 -13020321.93447 -10135061.25443  23629036.4694                   23629034.9534
 -25953734.47348 -20211850.12547  20362263.2194                   20362260.2464
   5546961.94546   4332859.57843  24498844.3914                   24498844.8364
 -16256258.80148 -12655640.81646  21574943.7734                   21574944.0944
 -25724252.66448 -20032861.02046  21617194.1094                   21617190.0594
 -13532341.28948 -10532682.18445  21723614.6564                   21723612.5234
 11  8 24  2  0 30.0000000  0  9G12G29G26G10G05G15G25G02G30
 -21541341.80547 -16773988.21946  21445422.0704                   21445419.9264
  -7710812.38747  -5998916.42245  22571018.4694                   22571017.0274
  -1883449.94547  -1450568.11344  23572149.2664                   23572148.6844
 -12939228.25447 -10071871.39543  23644468.0784                   23644466.4804
 -25950036.72748 -20208968.75447  20362967.0004                   20362964.0664
   5429719.89146   4241502.23444  24476534.9224                   24476534.8164
 -16279529.51247 -12673773.84446  21570515.6024                   21570515.9614
 -25710341.77048 -20022021.35946  21619841.5004                   21619837.1564
 -13545464.60548 -10542908.14846  21721117.2424                   21721115.3054
 11  8 24  2  1  0.0000000  0  9G12G29G26G10G05G15G25G02G30
 -21503032.38347 -16744136.73046  21452712.6644                   21452709.9654
  -7816441.50047  -6081224.77345  22550918.0474                   22550916.0904
  -2001206.75447  -1542326.58644  23549740.8204                   23549739.5704
 -12857985.59447 -10008565.46143  23659927.3444                   23659926.7034
 -25945827.26648 -20205688.65247  20363768.1094                   20363765.1844
   5312358.87146   4150052.25844  24454201.1414                   24454201.7624
 -16302225.34848 -12691458.91446  21566196.8834                   21566197.0554
 -25696347.83248 -20011116.98846  21622504.3284                   21622500.1994
 -13558005.87148 -10552680.57046  21718730.6024                   21718728.8134
 11  8 24  2  1 30.0000000  0  9G12G29G26G10G05G15G25G02G30
 -21464293.43447 -16713950.55146  21460083.9064                   21460081.4844
  -7921990.85947  -6163471.00445  22530832.0474                   22530830.6334
  -2118882.22347  -1634021.67644  23527347.9844                   23527346.8754
 -12776593.74647  -9945143.27343  23675416.3594                   23675414.3984
 -25941104.78548 -20202008.78947  20364666.9534                   20364663.4884
   5194884.06347   4058513.59044  24431846.3834                   24431846.9184
 -16324344.04348 -12708694.26646  21561987.5784                   21561987.7304
 -25682267.99648 -20000145.68046  21625183.4064                   21625179.1914
 -13569963.30948 -10561998.06646  21716455.4694                   21716453.4654
 11  8 24  2  2  0.0000000  0  9G12G29G26G10G05G15G25G02G30
 -21425128.33247 -16683432.31246  21467537.0784                   21467534.4264
  -8027459.28547  -6245654.15645  22510762.3754                   22510760.4844
  -2236473.37147  -1725651.07844  23504971.3284                   23504969.9264
 -12695056.15247  -9881607.48843  23690932.1174                   23690930.6804
 -25935871.78148 -20197931.11747  20365662.4384                   20365659.2384
   5077297.19147   3966887.59044  24409470.2424                   24409470.5354
 -16345886.81248 -12725480.85246  21557888.4144                   21557888.4224
 -25668103.50848 -19989108.41446  21627878.9454                   21627874.5314
 -13581338.86348 -10570862.12546  21714290.2504                   21714288.6254
 11  8 24  2  2 30.0000000  0  9G12G29G26G10G05G15G25G02G30
 -21385538.46548 -16652583.08246  21475070.7424                   21475068.4454
  -8132844.26647  -6327772.29345  22490708.2814                   22490706.2114
  -2353976.03947  -1817211.50844  23482610.7734                   23482609.5904
 -12613374.70746  -9817959.62543  23706475.9844                   23706474.5474
 -25930129.13348 -20193456.32047  20366755.0784                   20366752.3524
   4959601.78147   3875177.03144  24387073.9304                   24387073.5204
 -16366853.27748 -12741818.35546  21553898.3674                   21553898.6914
 -25653853.23048 -19978004.29746  21630590.7194                   21630586.5474
 -13592132.70748 -10579272.91445  21712236.6484                   21712234.5514
 11  8 24  2  3  0.0000000  0  9G12G29G26G10G05G15G25G02G30
 -21345529.02748 -16621406.91846  21482684.4144                   21482681.8524
  -8238145.73847  -6409825.35245  22470669.8364                   22470668.0514
  -2471388.88347  -1908701.95344  23460268.3594                   23460267.0744
 -12531554.11746  -9754203.33243  23722045.2194                   23722044.1564
 -25923880.64848 -20188587.37547  20367944.3524                   20367941.4024
   4841798.03546   3783382.03544  24364655.8284                   24364656.1454
 -16387246.10548 -12757708.87946  21550017.9144                   21550017.9344
 -25639519.60547 -19966835.22746  21633318.2504                   21633314.1214
 -13602348.08648 -10587232.95746  21710292.4924                   21710290.5944
 11  8 24  2  3 30.0000000  0  9G12G29G26G10G05G15G25G02G30
 -21305099.37548 -16589903.30546  21490378.0004                   21490375.4264
  -8343358.78147  -6491809.50445  22450648.6804                   22450646.8634
  -2588705.28947  -2000117.24644  23437943.0474                   23437942.0594
 -12449593.91846  -9690338.27343  23737641.5394                   23737640.3594
 -25917125.10248 -20183323.30947  20369229.9384                   20369226.9104
   4723891.75846   3691507.16843  24342219.2584                   24342219.5634
 -16407062.95348 -12773150.58246  21546246.8914                   21546246.6454
 -25625099.57048 -19955598.82846  21636062.1644                   21636057.9064
 -13611983.34048 -10594740.94945  21708459.2664                   21708457.4144
 11  8 24  2  4  0.0000000  0  9G12G29G26G10G05G15G25G02G30
 -21264252.54748 -16558074.62946  21498150.9224                   21498148.5634
  -8448482.38747  -6573723.95745  22430644.1334                   22430642.2504
  -2705922.34047  -2091455.12944  23415637.8284                   23415636.4414
 -12367497.45346  -9626367.04343  23753264.7974                   23753263.9884
 -25909864.87548 -20177665.98847  20370611.3444                   20370608.2734
   4605884.62546   3599553.72343  24319762.9064                   24319762.4774
 -16426304.96148 -12788144.36746  21542585.4694                   21542585.2664
 -25610593.99247 -19944295.76246  21638822.5634                   21638818.0664
 -13621040.11748 -10601798.17645  21706735.7664                   21706733.7974
 11  8 24  2  4 30.0000000  0  9G12G29G26G10G05G15G25G02G30
 -21222990.78148 -16525922.61346  21506003.0864                   21506000.3874
  -8553513.69547  -6655566.48445  22410657.5704                   22410655.5984
  -2823035.81647  -2182712.29344  23393351.6804                   23393350.5704
 -12285266.83646  -9562291.27743  23768913.1254                   23768911.4884
 -25902100.90648 -20171616.14147  20372088.7894                   20372085.7814
   4487780.10946   3507524.38743  24297287.6564                   24297287.7344
 -16444972.10548 -12802690.19946  21539033.1884                   21539033.0664
 -25596002.36748 -19932925.65246  21641599.1644                   21641595.0474
 -13629519.04748 -10608405.14146  21705122.0004                   21705119.8754
 11  8 24  2  5  0.0000000  0  9G12G29G26G10G05G15G25G02G30
 -21181318.67248 -16493450.85946  21513932.6564                   21513929.7504
  -8658452.92247  -6737337.25445  22390688.0394                   22390686.4534
  -2940044.37947  -2273887.70344  23371084.9614                   23371084.2384
 -12202906.84046  -9498114.68443  23784586.2344                   23784583.7234
 -25893837.38348 -20165177.02347  20373661.2734                   20373658.4184
   4369578.76646   3415419.54343  24274795.1334                   24274794.5004
 -16463067.22348 -12816790.30546  21535589.4454                   21535589.4534
 -25581326.76248 -19921490.11346  21644391.8674                   21644387.6914
 -13637423.59448 -10614564.53546  21703618.1174                   21703615.8404
 11  8 24  2  5 30.0000000  0  9G12G29G26G10G05G15G25G02G30
 -21139236.22348 -16460659.35946  21521940.7584                   21521938.1294
  -8763296.18047  -6819033.23445  22370736.9924                   22370735.0864
  -3056942.24246  -2364976.85544  23348840.1254                   23348839.7384
 -12120417.88346  -9433837.61743  23800282.4384                   23800281.2074
 -25885073.67648 -20158348.15647  20375329.0234                   20375325.9344
   4251285.14146   3323242.80943  24252284.7974                   24252283.4104
 -16480588.85948 -12830443.53546  21532255.2664                   21532255.2664
 -25566565.28147 -19909987.65246  21647201.1414                   21647196.7974
 -13644752.84048 -10620275.63346  21702223.2974                   21702221.6764
 11  8 24  2  6  0.0000000  0  9G12G29G26G10G05G15G25G02G30
 -21096747.99247 -16427551.66846  21530026.2894                   21530023.6094
  -8868042.94947  -6900654.02345  22350803.9774                   22350802.8594
  -3173727.54347  -2455978.29344  23326616.3754                   23326616.1804
 -12037804.05146  -9369463.24244  23816003.3134                   23816002.3954
 -25875813.02048 -20151132.06247  20377091.0864                   20377088.3754
   4132900.45347   3230995.11744  24229756.9064                   24229756.4964
 -16497539.23048 -12843651.62946  21529029.9224                   21529029.8524
 -25551719.39147 -19898419.42646  21650026.2274                   21650021.8284
 -13651509.68048 -10625540.71146  21700937.8134                   21700935.4064
 11  8 24  2  6 30.0000000  0  9G12G29G26G10G05G15G25G02G30
 -21053857.61347 -16394130.60946  21538187.9224                   21538185.2194
  -8972692.16447  -6982198.78545  22330889.7894                   22330888.5474
  -3290397.75447  -2546890.05944  23304414.8204                   23304414.7854
 -11955068.87546  -9304994.32044  23831747.1024                   23831746.1414
 -25866058.68748 -20143531.28147  20378947.5314                   20378944.2504
   4014426.21147   3138677.63344  24207212.1174                   24207211.4104
 -16513920.07448 -12856415.93446  21525912.5704                   21525912.5204
 -25536789.96547 -19886786.09045  21652866.8834                   21652862.8834
 -13657696.41848 -10630361.54746  21699760.0864                   21699758.2544
 11  8 24  2  7  0.0000000  0  9G12G29G26G10G05G15G25G02G30
 -21010565.64547 -16360396.62546  21546426.0394                   21546423.6804
  -9077239.75047  -7063664.37145  22310995.4064                   22310993.7934
  -3406946.70747  -2637707.33244  23282236.7274                   23282236.1764
 -11872212.96146  -9240431.30544  23847514.6644                   23847513.6214
 -25855809.85548 -20135545.16847  20380897.4924                   20380894.7384
   3895867.43047   3046294.28144  24184650.9774                   24184650.9064
 -16529729.89147 -12868735.27746  21522904.2894                   21522904.0984
 -25521775.21547 -19875086.27346  21655724.3444                   21655719.9964
 -13663312.18748 -10634737.48846  21698691.7894                   21698689.6954
 11  8 24  2  7 30.0000000  0  9G12G29G26G10G05G15G25G02G30
 -20966877.52347 -16326353.95346  21554739.4384                   21554736.8954
  -9181686.68747  -7145051.52045  22291119.5474                   22291118.0864
  -3523374.36347  -2728430.09844  23260080.6724                   23260080.6484
 -11789241.82847  -9175778.51644  23863303.3754                   23863302.4184
 -25845071.77348 -20127177.82447  20382940.9304                   20382938.2704
   3777223.47347   2953844.55544  24162073.7114                   24162072.8444
 -16544972.62948 -12880612.75846  21520003.5234                   21520003.2304
 -25506678.07847 -19863322.26646  21658597.0864                   21658592.8834
 -13668361.50448 -10638672.02746  21697730.8594                   21697728.9064
 11  8 24  2  8  0.0000000  0  9G12G29G26G10G05G15G25G02G30
 -20922793.31247 -16292002.63346  21563128.2274                   21563125.8634
  -9286028.38747  -7226356.66445  22271263.8284                   22271262.1994
  -3639674.10247  -2819053.19144  23237950.2274                   23237949.1054
 -11706155.30147  -9111035.80144  23879114.2114                   23879113.0274
 -25833843.21548 -20118428.28947  20385078.0004                   20385075.0784
   3658499.91847   2861332.83644  24139481.2814                   24139480.5314
 -16559646.17248 -12892046.69146  21517211.1254                   21517211.0984
 -25491495.81647 -19851491.93746  21661486.2894                   21661481.9224
 -13672842.83248 -10642163.99246  21696877.6954                   21696876.1844
 11  8 24  2  8 30.0000000  0  9G12G29G26G10G05G15G25G02G30
 -20878314.59447 -16257343.91046  21571592.6564                   21571590.0354
  -9390262.05147  -7307577.62945  22251429.0634                   22251427.2934
  -3755841.60547  -2909573.23044  23215844.3444                   23215843.4144
 -11622954.94547  -9046204.37944  23894946.9844                   23894945.5744
 -25822125.58248 -20109297.66047  20387307.6414                   20387304.7344
   3539700.27046   2768761.82844  24116874.2504                   24116873.3444
 -16573750.64548 -12903037.20346  21514527.2034                   21514527.3954
 -25476227.73847 -19839594.73046  21664391.9614                   21664387.3834
 -13676756.99248 -10645214.00046  21696133.5164                   21696131.5824
 11  8 24  2  9  0.0000000  0  9G12G29G26G10G05G15G25G02G30
 -20833447.23847 -16222382.34446  21580130.4614                   21580128.0044
  -9494388.08647  -7388714.72345  22231614.0004                   22231612.5434
  -3871875.90647  -2999989.50044  23193763.0704                   23193762.6414
 -11539646.42647  -8981288.68444  23910800.2114                   23910798.6294
 -25809923.46948 -20099789.51247  20389629.2974                   20389626.8444
   3420824.24246   2676131.30544  24094252.3524                   24094252.5234
 -16587289.63748 -12913587.08646  21511951.0554                   21511950.6724
 -25460876.47747 -19827632.70346  21667313.2034                   21667308.7464
 -13680108.05548 -10647825.22746  21695495.9224                   21695493.6484
 11  8 24  2  9 30.0000000  0  9G12G29G26G10G05G15G25G02G30
 -20788191.99647 -16187118.53146  21588742.1024                   21588739.7894
  -9598402.93447  -7469765.18746  22211820.8444                   22211819.3404
  -3987771.55947  -3090297.72744  23171708.8284                   23171707.7464
 -11456230.15647  -8916289.03143  23926673.1804                   23926672.0744
 -25797236.54348 -20089903.57847  20392043.5474                   20392040.7734
   3301876.72746   2583445.12144  24071616.8914                   24071616.7814
 -16600262.07848 -12923695.49646  21509482.6024                   21509482.2584
 -25445440.27747 -19815604.49646  21670249.9844                   21670245.8324
 -13682895.63348 -10649997.38746  21694965.4224                   21694963.5904
 11  8 24  2 10  0.0000000  0  9G12G29G26G10G05G15G25G02G30
 -20742553.50448 -16151556.08646  21597427.0004                   21597424.3484
  -9702306.43447  -7550728.88346  22192048.9064                   22192047.0234
  -4103527.19147  -3180496.85544  23149681.4844                   23149680.5594
 -11372710.60247  -8851208.87543  23942566.6724                   23942565.1914
 -25784069.01648 -20079643.14847  20394549.3364                   20394546.4614
   3182858.09446   2490703.49643  24048968.6564                   24048968.4774
 -16612671.03548 -12933364.83246  21507120.7274                   21507120.7934
 -25429921.04347 -19803511.57446  21673203.5164                   21673199.0554
 -13685123.31648 -10651733.26646  21694541.3204                   21694539.6524
 11  8 24  2 10 30.0000000  0  9G12G29G26G10G05G15G25G02G30
 -20696534.58648 -16115697.20746  21606184.2274                   21606182.0204
  -9806096.82447  -7631604.44545  22172297.7584                   22172296.0984
  -4219139.07047  -3270583.95344  23127680.7344                   23127680.3834
 -11289090.46546  -8786050.34443  23958478.2814                   23958477.5084
 -25770422.96548 -20069009.84847  20397146.0474                   20397143.1174
   3063770.90646   2397908.46543  24026307.1334                   24026306.4924
 -16624517.51248 -12942595.86746  21504866.8364                   21504866.6914
 -25414318.86747 -19791354.03946  21676172.5164                   21676168.1524
 -13686792.78148 -10653034.15646  21694223.4924                   21694221.8094
 11  8 24  2 11  0.0000000  0  9G12G29G26G10G05G15G25G02G30
 -20650134.41447 -16079541.23846  21615013.6564                   21615011.2504
  -9909768.70347  -7712387.67245  22152569.9924                   22152567.9574
  -4334600.81647  -3360554.05944  23105709.4144                   23105708.7274
 -11205369.35246  -8720813.12542  23974409.9144                   23974409.4414
 -25756297.29748 -20058002.82447  20399834.0314                   20399831.2894
   2944620.88346   2305064.43843  24003633.6954                   24003632.4884
 -16635799.48448 -12951387.03146  21502719.9774                   21502720.1914
 -25398630.94147 -19779129.67646  21679158.0004                   21679153.5474
 -13687902.52748 -10653898.91446  21694012.0704                   21694010.4924
 11  8 24  2 11 30.0000000  0  9G12G29G26G10G05G15G25G02G30
 -20603360.35547 -16043093.93746  21623914.6724                   21623912.0274
 -10013324.37147  -7793080.35546  22132864.1094                   22132861.8984
  -4449912.39847  -3450407.17644  23083766.7504                   23083765.3134
 -11121553.45346  -8655502.02342  23990360.0394                   23990358.5824
 -25741697.78947 -20046626.56647  20402612.4064                   20402609.6294
   2825407.00047   2212170.61343  23980948.0164                   23980946.2344
 -16646521.70348 -12959742.01646  21500679.5474                   21500679.7854
 -25382861.05547 -19766841.44946  21682158.5784                   21682154.5744
 -13688458.00448 -10654331.77346  21693907.0004                   21693904.9654
 11  8 24  2 12  0.0000000  0  9G12G29G26G10G05G15G25G02G30
 -20556212.36747 -16006355.26246  21632886.8594                   21632883.9454
 -10116758.77047  -7873678.54746  22113180.9304                   22113179.0664
  -4565067.54747  -3540138.39844  23061853.0164                   23061851.7734
 -11037642.98846  -8590117.34042  24006326.9694                   24006326.3014
 -25726623.82848 -20034880.60247  20405480.7114                   20405477.8634
   2706134.57047   2119231.16043  23958250.7814                   23958249.5394
 -16656682.53148 -12967659.55946  21498746.0234                   21498745.9804
 -25367006.31647 -19754487.10246  21685176.0944                   21685171.1804
 -13688458.05948 -10654331.83646  21693907.0164                   21693905.4144
 11  8 24  2 12 30.0000000  0  9G12G29G26G10G05G15G25G02G30
 -20508693.53147 -15969327.60946  21641928.8984                   21641926.3134
 -10220070.59847  -7954181.23046  22093521.8754                   22093519.2304
  -4680063.15247  -3629745.28944  23039969.7274                   23039968.8554
 -10953640.82446  -8524661.10943  24022312.8834                   24022311.5274
 -25711078.00047 -20022766.95347  20408438.8284                   20408435.9344
   2586805.94947   2026247.89543  23935543.4454                   23935541.9574
 -16666283.50048 -12975140.83646  21496919.2034                   21496919.0744
 -25351067.37947 -19742067.15646  21688209.0474                   21688204.8054
 -13687904.88348 -10653900.81646  21694011.5234                   21694010.3834
 11  8 24  2 13  0.0000000  0  9G12G29G26G10G05G15G25G02G30
 -20460808.38747 -15932014.51646  21651041.4064                   21651039.4224
 -10323259.34047  -8034588.01246  22073885.3134                   22073882.9614
  -4794897.33647  -3719226.41044  23018117.7344                   23018116.1454
 -10869550.99246  -8459136.61343  24038314.8754                   24038312.8594
 -25695063.48047 -20010288.09047  20411486.6884                   20411483.5784
   2467422.15647   1933221.67643  23912825.3364                   23912823.8404
 -16675327.40648 -12982188.05146  21495197.9144                   21495198.3674
 -25335045.87547 -19729582.86746  21691257.6884                   21691253.2664
 -13686801.81647 -10653041.29745  21694221.8524                   21694220.1644
 11  8 24  2 13 30.0000000  0  9G12G29G26G10G05G15G25G02G30
 -18837139.91847 -14666818.31646  21960015.2974                   21960012.8014
  -8850898.04347  -6887293.46946  22354065.8914                   22354064.1644
  -3334141.58647  -2580975.12544  23296090.0704                   23296089.0354
  -9209957.49646  -7165946.92643  24354125.2274                   24354123.8714
 -24103162.16447 -18769845.48447  20714415.2584                   20714412.4804
   3923411.08247   3067758.63744  24189890.6564                   24189889.4884
 -15108393.83648 -11761200.86346  21793375.6724                   21793375.7544
 -23743521.15247 -18489433.73046  21994114.8524                   21994110.1414
 -12109729.42647  -9424153.73845  21994328.3364                   21994326.8874
 11  8 24  2 14  0.0000000  0  9G12G29G26G10G05G15G25G02G30
 -18788527.90248 -14628938.83646  21969265.8524                   21969263.4384
  -8953831.72347  -6967501.50046  22334478.2664                   22334476.6564
  -3448639.68747  -2670194.35244  23274302.1884                   23274300.2774
  -9125697.02046  -7100289.46543  24370159.0314                   24370157.9534
 -24086214.70348 -18756639.66047  20717640.6174                   20717637.4384
   3803927.52747   2974654.69544  24167153.3204                   24167152.9064
 -15116324.39548 -11767380.52046  21791866.4924                   21791866.6724
 -23727331.91447 -18476818.73045  21997195.4454                   21997190.5744
 -12107529.20347  -9422439.29745  21994747.2274                   21994745.7774
 11  8 24  2 14 30.0000000  0  9G12G29G26G10G05G15G25G02G30
 -18739555.92647 -14590778.85946  21978584.7734                   21978582.2384
  -9056634.10547  -7047607.23046  22314915.7504                   22314913.9964
  -3562963.44147  -2759277.72344  23252546.8364                   23252545.3244
  -9041354.29747  -7034567.85244  24386209.7894                   24386208.4064
 -24068803.08647 -18743072.15647  20720953.5084                   20720950.6994
   3684398.95747   2881515.67644  24144407.8524                   24144406.8674
 -15123699.23448 -11773127.15246  21790463.1564                   21790463.7464
 -23711057.99647 -18464137.75446  22000292.2814                   22000287.9144
 -12104782.23847  -9420298.82845  21995270.1334                   21995268.2194
 11  8 24  2 15  0.0000000  0  9G12G29G26G10G05G15G25G02G30
 -18690227.57848 -14552341.19946  21987971.7114                   21987969.2504
  -9159303.65247  -7127609.46546  22295378.3914                   22295376.6414
  -3677110.00047  -2848223.02744  23230825.9304                   23230824.1954
  -8956932.77046  -6968784.89144  24402274.9454                   24402272.9844
 -24050930.16047 -18729145.17247  20724354.5554                   20724351.7074
   3564827.34047   2788343.13344  24121654.1884                   24121653.1684
 -15130520.28948 -11778442.25846  21789165.0164                   21789165.3594
 -23694700.25847 -18451391.46146  22003404.8754                   22003400.3164
 -12101490.98047  -9417734.23045  21995896.6334                   21995894.8364
 11  8 24  2 15 30.0000000  0  9G12G29G26G10G05G15G25G02G30
 -18640545.61348 -14513628.00046  21997426.1484                   21997423.3094
  -9261838.57847  -7207506.80546  22275866.4064                   22275864.4774
  -3791075.59447  -2937027.30144  23209138.4384                   23209137.0554
  -8872434.85246  -6902942.38744  24418353.7114                   24418352.8134
 -24032597.91448 -18714860.29746  20727843.3054                   20727840.0514
   3445215.45747   2695139.19944  24098892.5864                   24098891.9184
 -15136788.85248 -11783326.85546  21787971.9844                   21787972.2854
 -23678258.48047 -18438579.70345  22006533.6884                   22006529.5944
 -12097657.41048  -9414747.05145  21996625.8524                   21996624.2814
 11  8 24  2 16  0.0000000  0  9G12G29G26G10G05G15G25G02G30
 -18590514.35548 -14474642.60546  22006946.7344                   22006943.9804
  -9364237.88347  -7287298.46546  22256381.1724                   22256379.1914
  -3904858.20747  -3025689.00444  23187486.3364                   23187485.2624
  -8787864.35946  -6837043.34044  24434447.1644                   24434446.1134
 -24013809.63348 -18700220.06247  20731418.6254                   20731415.7734
   3325565.07047   2601905.28144  24076123.3364                   24076123.0164
 -15142507.37548 -11787782.84046  21786884.0474                   21786884.2194
 -23661733.92647 -18425703.44145  22009678.5554                   22009673.9344
 -12093284.46947  -9411339.58245  21997458.3984                   21997456.4384
 11  8 24  2 16 30.0000000  0  9G12G29G26G10G05G15G25G02G30
 -18540135.27347 -14435386.19546  22016533.3594                   22016531.0314
  -9466498.03547  -7366981.68746  22236921.1254                   22236919.6054
  -4018452.45747  -3114203.93044  23165870.0234                   23165868.6604
  -8703222.14546  -6771088.40644  24450554.1094                   24450552.8444
 -23994566.19947 -18685225.16847  20735080.3524                   20735077.3204
   3205880.01647   2508644.32444  24053348.5554                   24053347.5664
 -15147675.62148 -11791810.03546  21785900.7194                   21785900.7974
 -23645124.94947 -18412761.39145  22012839.2344                   22012834.6644
 -12088372.51647  -9407512.10245  21998393.0394                   21998390.8364
 11  8 24  2 17  0.0000000  0  9G12G29G26G10G05G15G25G02G30
 -18489412.98848 -14395862.35246  22026185.5784                   22026183.2774
  -9568618.46947  -7446556.04746  22217488.5554                   22217486.5124
  -4131856.42647  -3202570.58244  23144290.1884                   23144288.3754
  -8618512.30946  -6705080.78143  24466673.5394                   24466672.9534
 -23974871.51248 -18669878.64547  20738827.8364                   20738825.4304
   3086161.23847   2415357.08244  24030566.6804                   24030565.5634
 -15152296.57448 -11795410.77346  21785020.9384                   21785021.4024
 -23628433.42647 -18399755.01245  22016015.2274                   22016011.0864
 -12082925.22347  -9403267.46145  21999429.6724                   21999427.6414
 11  8 24  2 17 30.0000000  0  9G12G29G26G10G05G15G25G02G30
 -18438349.12948 -14356072.34046  22035902.6174                   22035900.2234
  -9670596.30547  -7526019.28546  22198082.7584                   22198080.4654
  -4245065.63747  -3290785.47744  23122746.6954                   23122745.2304
  -8533736.57046  -6639021.80143  24482806.1254                   24482805.1214
 -23954726.69548 -18654181.36747  20742661.4224                   20742658.7274
   2966413.03147   2322046.91044  24007779.6884                   24007778.3364
 -15156370.62948 -11798585.34846  21784245.8204                   21784245.9964
 -23611658.18447 -18386683.40245  22019207.6884                   22019202.9454
 -12076943.39548  -9398606.29746  22000567.7734                   22000565.9144
 11  8 24  2 18  0.0000000  0  9G12G29G26G10G05G15G25G02G30
 -18386946.30948 -14316018.21546  22045684.1174                   22045682.3984
  -9772429.23447  -7605369.60546  22178704.4384                   22178702.6054
  -4358076.12147  -3378845.51244  23101241.6094                   23101240.0164
  -8448896.87946  -6572913.00043  24498949.5944                   24498949.3134
 -23934133.40648 -18638134.64546  20746580.2034                   20746577.2774
   2846637.94547   2228715.78544  23984987.4924                   23984985.4614
 -15159898.87548 -11801334.62546  21783574.5234                   21783574.4964
 -23594799.07047 -18373546.43745  22022415.8674                   22022411.5864
 -12070428.83648  -9393530.02345  22001807.8054                   22001805.2974
 11  8 24  2 18 30.0000000  0  9G12G29G26G10G05G15G25G02G30
 -18335208.58247 -14275703.12146  22055530.0164                   22055526.9224
  -9874116.24647  -7684606.20746  22159353.9924                   22159352.2774
  -4470885.53547  -3466748.87944  23079775.2424                   23079773.1884
  -8363996.77046  -6506757.10943  24515106.6254                   24515105.6484
 -23913095.07448 -18621741.12547  20750583.6804                   20750580.8754
   2726837.80947   2135365.10944  23962189.1564                   23962188.1684
 -15162883.80148 -11803660.53146  21783006.1804                   21783006.0824
 -23577856.92247 -18360344.77045  22025639.3984                   22025635.3834
 -12063384.53147  -9388040.94945  22003148.0314                   22003145.7774
 11  8 24  2 19  0.0000000  0  9G12G29G26G10G05G15G25G02G30
 -18283136.89548 -14235127.79746  22065438.4774                   22065436.5084
  -9975653.06647  -7763725.77346  22140032.0394                   22140030.1724
  -4583488.09847  -3554491.06244  23058346.7274                   23058345.9534
  -8279036.41446  -6440554.31642  24531274.1254                   24531273.2154
 -23891611.94548 -18605001.01647  20754671.7424                   20754668.8364
   2607017.73447   2041998.94944  23939388.1174                   23939386.6294
 -15165324.70348 -11805562.52346  21782541.9534                   21782541.9384
 -23560829.77347 -18347076.87545  22028880.1804                   22028875.4654
 -12055810.33647  -9382138.97345  22004589.3444                   22004586.8794
 11  8 24  2 19 30.0000000  0  9G12G29G26G10G05G15G25G02G30
 -18230736.10248 -14194296.03146  22075410.0084                   22075407.4614
 -10077039.18047  -7842727.89146  22120739.0864                   22120736.9884
  -4695881.93447  -3642070.60544  23036958.8284                   23036957.8134
  -8194020.39846  -6374308.09442  24547451.4534                   24547450.8634
 -23869687.90248 -18587917.33647  20758843.9144                   20758840.7734
   2487178.20746   1948617.59844  23916583.4144                   23916582.4804
 -15167224.93448 -11807043.21546  21782180.3524                   21782179.9224
 -23543719.56247 -18333744.25045  22032135.8674                   22032131.2344
 -12047710.21947  -9375827.19146  22006130.8984                   22006128.7114
 11  8 24  2 20  0.0000000  0  9G12G29G26G10G05G15G25G02G30
 -18178009.66848 -14153210.51246  22085443.5944                   22085441.1374
 -10178273.30947  -7921611.58246  22101474.9144                   22101473.0004
  -4808063.97347  -3729485.10944  23015611.6334                   23015609.8404
  -8108951.56646  -6308020.77742  24563640.1094                   24563638.7624
 -23847325.88748 -18570492.37547  20763099.3134                   20763096.1524
   2367321.81346   1855223.09044  23893775.5864                   23893773.8914
 -15168586.42648 -11808104.11746  21781921.1334                   21781921.3364
 -23526526.46547 -18320347.03945  22035407.8364                   22035403.3244
 -12039086.67248  -9369107.53546  22007772.1174                   22007769.6954
 11  8 24  2 20 30.0000000  0  9G12G29G26G10G05G15G25G02G30
 -18124958.72748 -14111872.12946  22095538.3444                   22095536.4534
 -10279351.56647  -8000373.80546  22082240.2814                   22082238.3834
  -4920028.74247  -3816730.32845  22994305.2114                   22994303.7504
  -8023830.53946  -6241692.72742  24579837.4224                   24579836.4224
 -23824526.07048 -18552726.27747  20767437.8754                   20767434.8134
   2247453.12547   1761818.99644  23870965.3364                   23870963.8524
 -15169408.81248 -11808744.92646  21781764.4064                   21781764.7624
 -23509248.58248 -18306883.75445  22038695.2114                   22038691.3834
 -12029939.88348  -9361980.15245  22009512.5634                   22009510.5204
 11  8 24  2 21  0.0000000  0  9G12G29G26G10G05G15G25G02G30
 -18071587.89548 -14070284.48446  22105694.4844                   22105692.5084
 -10380273.41447  -8079014.16446  22063035.7274                   22063033.2854
  -5031774.28547  -3903804.69945  22973040.7734                   22973039.1564
  -7938661.21946  -6175326.98842  24596044.8284                   24596043.5354
 -23801292.58248 -18534622.25447  20771859.4924                   20771856.0084
   2127573.61347   1668406.48844  23848152.9534                   23848151.5044
 -15169695.24248 -11808968.11346  21781710.3204                   21781710.3834
 -23491887.35947 -18293355.53945  22041999.2814                   22041994.9224
 -12020273.53147  -9354447.92245  22011351.9454                   22011349.7234
 11  8 24  2 21 30.0000000  0  9G12G29G26G10G05G15G25G02G30
 -18017897.71148 -14028448.00046  22115911.9534                   22115909.8754
 -10481034.38747  -8157529.14146  22043861.6094                   22043859.3484
  -5143294.72747  -3990703.68745  22951819.1644                   22951817.3794
  -7853444.06246  -6108924.04342  24612260.4614                   24612259.9344
 -23777625.45348 -18516180.32846  20776362.5474                   20776359.8634
   2007687.81347   1574989.06644  23825339.0704                   23825337.8444
 -15169445.09848 -11808773.19146  21781757.8284                   21781757.7584
 -23474440.85548 -18279760.85945  22045319.2974                   22045314.8324
 -12010087.65248  -9346510.87146  22013290.3134                   22013288.3054
 11  8 24  2 22  0.0000000  0  9G12G29G26G10G05G15G25G02G30
 -17963889.80948 -13986363.93446  22126189.4924                   22126186.7854
 -10581630.66048  -8235915.77746  22024718.3054                   22024716.4344
  -5254585.08247  -4077423.37545  22930641.6414                   22930639.7074
  -7768179.76246  -6042484.32043  24628486.4384                   24628485.1094
 -23753525.25848 -18497400.94946  20780948.7734                   20780945.8164
   1887800.20347   1481570.23044  23802525.6174                   23802524.3364
 -15168658.32848 -11808160.11746  21781907.1024                   21781907.5704
 -23456907.04748 -18266098.16045  22048655.8204                   22048651.2464
 -11999382.71948  -9338169.34846  22015327.2034                   22015325.1884
 11  8 24  2 22 30.0000000  0  9G12G29G26G10G05G15G25G02G30
 -17909569.57848 -13944036.49246  22136526.3524                   22136523.8524
 -10682062.79348  -8314174.51646  22005606.4614                   22005604.3204
  -5365644.00047  -4163962.71944  22909507.2734                   22909505.9654
  -7682872.89546  -5976011.42643  24644720.0864                   24644718.9774
 -23728996.52348 -18478287.64846  20785616.0314                   20785613.4964
   1767911.13746   1388150.22744  23779710.2424                   23779709.4184
 -15167338.88348 -11807131.98046  21782158.5554                   21782158.8134
 -23439288.46547 -18252369.38745  22052008.8134                   22052003.9654
 -11988163.10548  -9329426.77746  22017462.3834                   22017460.3634
 11  8 24  2 23  0.0000000  0  9G12G29G26G05G15G25G02G30G21
 -17854938.40247 -13901466.76246  22146921.8134                   22146919.6884
 -10782327.09048  -8392302.47346  21986527.1094                   21986524.7424
  -5476466.29347  -4250317.69944  22888418.6254                   22888417.1054
 -23704040.13348 -18458841.10246  20790365.6174                   20790362.3594
   1648025.03946   1294732.61744  23756897.8284                   23756895.6564
 -15165486.98848 -11805688.94946  21782510.9774                   21782511.1134
 -23421583.41848 -18238573.24645  22055377.6884                   22055373.3874
 -11976429.72748  -9320283.87945  22019695.1644                   22019693.5664
   7761307.94956   6055215.57053  25240817.1804                   25240815.2424
 11  8 24  2 23 30.0000000  0  9G12G29G26G05G15G25G02G30G21
 -17800007.83247 -13858663.73446  22157375.3284                   22157372.5744
 -10882429.61348  -8470304.36346  21967478.1174                   21967475.9694
  -5587056.63747  -4336491.92245  22867373.8444                   22867372.0864
 -23678666.85248 -18439069.70746  20795194.0164                   20795190.9414
   1528136.46547   1201313.02044  23734083.1724                   23734081.8444
 -15163112.53948 -11803838.72346  21782962.9304                   21782963.1844
 -23403800.22347 -18224716.21145  22058761.5864                   22058757.4184
 -11964193.07048  -9310748.81245  22022023.4224                   22022021.9844
   7681974.99646   5993397.77342  25225720.0004                   25225718.4884
 11  8 24  2 24  0.0000000  0  9G12G29G26G05G15G25G02G30G21
 -17744778.05547 -13815627.56245  22167884.9144                   22167882.4734
 -10982365.61348  -8548176.49646  21948460.6804                   21948458.8674
  -5697409.09447  -4422480.80145  22846374.6094                   22846372.7464
 -23652876.28548 -18418973.14846  20800101.6414                   20800098.6214
   1408251.02047   1107895.86744  23711270.0004                   23711268.2664
 -15160214.54348 -11801580.54746  21783514.5004                   21783514.5204
 -23385936.28548 -18210796.26245  22062161.1174                   22062156.6524
 -11951452.63348  -9300821.19545  22024448.0164                   22024446.0514
   7602645.61746   5931582.71943  25210624.1174                   25210622.4264
 11  8 24  2 24 30.0000000  0  9G12G29G26G05G15G25G02G30G21
 -17689246.57047 -13772356.28546  22178452.0784                   22178449.8954
 -11082127.37948  -8625912.86346  21929476.7194                   21929474.4844
  -5807514.30547  -4508277.00045  22825421.5944                   22825420.3594
 -23626665.46148 -18398549.13346  20805089.1884                   20805086.3014
   1288376.57447   1014487.28144  23688458.5314                   23688456.6414
 -15156789.25848 -11798911.49646  21784166.1334                   21784166.3324
 -23367985.84848 -18196808.91045  22065576.9304                   22065572.6254
 -11938205.26647  -9290498.56245  22026968.4844                   22026967.0744
   7523324.74246   5869774.32043  25195529.6094                   25195527.9964
 11  8 24  2 25  0.0000000  0  9G12G29G26G05G15G25G02G30G21
 -17633414.60948 -13728850.87146  22189076.8284                   22189073.8984
 -11181710.63748  -8703510.13746  21910526.5314                   21910524.4654
  -5917366.71947  -4593876.22745  22804518.0164                   22804515.9774
 -23600034.95748 -18377798.08646  20810157.0394                   20810154.2704
   1168518.14147    921091.17644  23665650.1724                   23665648.9344
 -15152836.47748 -11795831.40646  21784918.4534                   21784918.7114
 -23349946.91848 -18182752.59845  22069009.4774                   22069005.4844
 -11924451.20348  -9279781.11345  22029586.1414                   22029583.9844
   7444013.78946   5807973.63743  25180437.6174                   25180435.9884
 11  8 24  2 25 30.0000000  0  9G12G29G26G05G15G25G02G30G21
 -17577286.55947 -13685114.73445  22199757.7424                   22199754.9774
 -11281114.96148  -8780967.97746  21891610.5164                   21891608.3594
  -6026964.08247  -4679276.70345  22783662.2034                   22783660.1294
 -23572988.43748 -18356722.87146  20815303.7974                   20815301.0664
   1048677.28147    827708.76644  23642844.8054                   23642844.1884
 -15148359.24248 -11792342.66446  21785770.3054                   21785770.5634
 -23331820.90648 -18168628.42245  22072459.3284                   22072454.2504
 -11910194.08648  -9268671.66845  22032298.9384                   22032297.4264
   7364710.58246   5746178.91443  25165346.0234                   25165344.3484
 11  8 24  2 26  0.0000000  0  9G12G29G26G05G15G25G02G30G21
 -17520862.48847 -13641147.94545  22210495.0314                   22210492.0044
 -11380335.06648  -8858282.27346  21872729.2734                   21872727.3204
  -6136299.71947  -4764473.23845  22762855.6564                   22762854.7384
 -23545524.42248 -18335322.33247  20820530.1094                   20820527.5044
    928859.84847    734344.61344  23620044.4844                   23620043.1454
 -15143356.26648 -11788444.25046  21786722.3524                   21786722.8914
 -23313604.69148 -18154433.96145  22075925.3054                   22075920.9384
 -11895433.19548  -9257169.67245  22035107.8054                   22035106.0784
   7285417.73046   5684392.32843  25150257.2664                   25150256.3134
 11  8 24  2 26 30.0000000  0  9G12G29G26G05G15G25G02G30G21
 -17464150.43447 -13596956.73446  22221286.3364                   22221284.3484
 -11479373.49248  -8935455.00046  21853883.1094                   21853880.8754
  -6245375.13747  -4849467.00844  22742099.7974                   22742098.3204
 -23517650.79748 -18313602.61346  20825834.3914                   20825831.3244
    809063.79747    640997.14844  23597248.2424                   23597246.2584
 -15137834.34448 -11784141.45346  21787773.3594                   21787773.2894
 -23295302.62548 -18140172.60545  22079408.0634                   22079403.6334
 -11880175.81647  -9245280.81645  22038010.9694                   22038009.8594
   7206129.49246   5622609.30943  25135169.5864                   25135167.8444
 11  8 24  2 27  0.0000000  0  9G12G29G26G05G15G25G02G30G21
 -17407151.88347 -13552542.28945  22232133.3054                   22232130.7934
 -11578226.47348  -9012483.23846  21835071.4454                   21835069.9344
  -6354184.87947  -4934253.75445  22721393.6254                   22721392.0474
 -23489368.21948 -18291564.24246  20831216.2274                   20831213.2854
    689293.73047    547669.90644  23574456.4774                   23574455.6024
 -15131793.37148 -11779434.21146  21788922.7664                   21788923.1484
 -23276912.77348 -18125842.84045  22082907.4304                   22082902.9344
 -11864422.34048  -9233005.37945  22041008.8834                   22041007.4344
   7126847.49246   5560831.18843  25120082.2734                   25120081.1054
 11  8 24  2 27 30.0000000  0  9G12G29G26G05G15G25G02G30G21
 -17349872.13747 -13507908.73845  22243032.6884                   22243030.5434
 -11676894.78948  -9089367.57846  21816295.8134                   21816293.8674
  -6462728.15247  -5018832.85944  22700738.5864                   22700737.0784
 -23460681.89848 -18269211.26246  20836675.0704                   20836672.2194
    569549.62947    454362.90244  23551670.0234                   23551668.0354
 -15125238.14848 -11774326.25046  21790170.4774                   21790170.0824
 -23258438.22348 -18111447.07045  22086423.5234                   22086418.6804
 -11848178.23448  -9220347.62945  22044100.1334                   22044098.4654
   7047567.80146   5499054.84843  25104996.1884                   25104994.1844
 11  8 24  2 28  0.0000000  0  9G12G29G26G05G15G25G02G30G21
 -17292314.19947 -13463058.42645  22253986.4224                   22253983.6994
 -11775375.76248  -9166105.94946  21797555.5394                   21797553.1524
  -6571000.96947  -5103201.22345  22680135.1334                   22680133.2464
 -23431593.73848 -18246545.16046  20842210.0634                   20842207.6764
    449834.62947    361078.55544  23528888.7034                   23528887.0634
 -15118170.21148 -11768818.77346  21791514.9534                   21791515.2194
 -23239878.68448 -18096985.08645  22089954.7274                   22089950.5044
 -11831445.48048  -9207309.12545  22047284.4924                   22047282.4884
   6968289.90246   5437279.93843  25089910.8284                   25089908.6294
 11  8 24  2 28 30.0000000  0  9G12G29G26G05G15G25G02G30G21
 -17234478.33647 -13417991.54745  22264991.3444                   22264989.5744
 -11873664.22748  -9242694.31246  21778851.6094                   21778849.7424
  -6678996.71947  -5187353.69545  22659584.0944                   22659582.7384
 -23402103.51248 -18223565.76646  20847821.8594                   20847819.1804
    330154.63346    267821.50844  23506114.4924                   23506113.1254
 -15110588.28148 -11762910.78146  21792957.7194                   21792957.7304
 -23221230.70348 -18082454.16445  22093503.3914                   22093498.9184
 -11814223.33248  -9193889.28945  22050561.5554                   22050560.1374
   6889016.33246   5375508.37143  25074825.1414                   25074823.3094
 11  8 24  2 29  0.0000000  0  9G12G29G26G05G15G25G02G30G21
 -17176368.72347 -13372711.35245  22276049.3914                   22276047.3054
 -11971759.07048  -9319131.80546  21760185.0784                   21760182.6294
  -6786712.89847  -5271288.31645  22639085.9304                   22639084.2854
 -23372214.35548 -18200275.51246  20853510.1644                   20853506.8714
    210511.60247    174593.25444  23483346.9384                   23483345.8554
 -15102495.48848 -11756604.72746  21794497.9454                   21794498.0044
 -23202495.43448 -18067855.23845  22097068.8444                   22097063.7894
 -11796515.41848  -9180090.92245  22053931.4924                   22053929.9264
   6809745.05946   5313738.62543  25059740.3984                   25059738.1844
 11  8 24  2 29 30.0000000  0  9G12G29G26G05G15G25G02G30G21
 -17117990.63347 -13327221.95745  22287158.5704                   22287156.6914
 -12069660.41848  -9395418.52746  21741554.8054                   21741552.5274
  -6894148.52747  -5355004.33245  22618641.7274                   22618640.1454
 -23341931.39148 -18176678.39546  20859272.6804                   20859269.6994
     90905.75847     81393.97344  23460586.7664                   23460585.3674
 -15093896.18748 -11749903.97746  21796134.3204                   21796134.4964
 -23183674.96548 -18053189.93045  22100649.7114                   22100645.6134
 -11778326.60548  -9165917.83645  22057392.7584                   22057390.8834
   6730473.31646   5251968.47743  25044655.1644                   25044653.1804
 11  8 24  2 30  0.0000000  0  9G12G29G26G05G15G25G02G30G21
 -17059345.28147 -13281524.31245  22298318.4534                   22298316.1374
 -12167364.00448  -9471551.16446  21722962.7894                   21722960.2584
  -7001297.81647  -5438497.21145  22598251.9844                   22598250.1024
 -23311254.54348 -18152774.36746  20865110.0704                   20865107.2194
    -28657.89146    -11772.43444  23437834.5704                   23437832.5394
 -15084790.12148 -11742808.35246  21797867.3524                   21797867.5744
 -23164766.98848 -18038456.42245  22104247.7974                   22104243.4104
 -11759657.21548  -9151370.27045  22060945.2974                   22060943.5124
   6651202.32846   5190198.88743  25029570.0554                   25029568.1724
 11  8 24  2 30 30.0000000  0  9G12G29G26G05G15G25G02G30G21
 -17000435.75447 -13235620.79345  22309528.6024                   22309526.2854
 -12264867.89148  -9547528.17646  21704408.0554                   21704406.0004
  -7108157.38747  -5521764.35245  22577917.2344                   22577915.4924
 -23280186.53948 -18128565.53946  20871021.9694                   20871019.3054
   -148176.56246   -104903.79744  23415090.6094                   23415089.2304
 -15075179.53548 -11735319.58646  21799696.0004                   21799695.9884
 -23145771.59448 -18023654.80545  22107862.9224                   22107858.5434
 -11740509.93448  -9136450.32445  22064589.1254                   22064587.6484
   6571931.37146   5128429.34843  25014485.9844                   25014482.8094
 11  8 24  2 31  0.0000000  0  9G12G29G26G05G15G25G02G30G21
 -16941263.93447 -13189512.91445  22320789.2734                   22320786.6724
 -12362168.46948  -9623346.77346  21685892.5084                   21685889.8984
  -7214722.10247  -5604801.73845  22557638.5004                   22557636.8984
 -23248728.68048 -18104052.92646  20877008.3674                   20877005.0394
   -267645.75846   -197996.58244  23392356.2034                   23392354.9224
 -15065064.87548 -11727438.03546  21801620.6414                   21801620.5904
 -23126687.37948 -18008783.97345  22111494.0704                   22111489.4884
 -11720885.72348  -9121158.75045  22068323.1644                   22068321.8134
   6492661.11346   5066660.33243  24999400.8134                   24999397.5984
 11  8 24  2 31 30.0000000  0  9G12G29G26G05G15G25G02G30G21
 -16881833.28947 -13143203.33645  22332098.0944                   22332095.6684
 -12459263.63348  -9699005.31246  21667415.8914                   21667413.6134
  -7320988.70747  -5687606.81645  22537416.4694                   22537415.1214
 -23216883.67248 -18079238.63346  20883068.1334                   20883065.2464
   -387063.19546   -291049.07044  23369631.7274                   23369630.8134
 -15054448.48048 -11719165.53546  21803640.9304                   21803640.7774
 -23107514.24248 -17993843.84045  22115143.1024                   22115138.5434
 -11700787.53948  -9105497.84845  22072147.7894                   22072146.1334
   6413390.71546   5004891.21943  24984316.3834                   24984313.6764
 11  8 24  2 32  0.0000000  0  9G12G29G26G05G15G25G02G30G21
 -16822149.89147 -13096696.82445  22343455.5084                   22343453.2584
 -12556154.40648  -9774504.58246  21648978.2734                   21648975.7734
  -7426956.81247  -5770179.30945  22517251.5474                   22517249.7114
 -23184657.02048 -18054126.94946  20889200.9224                   20889197.8834
   -506428.84847   -384061.18744  23346917.2194                   23346915.8874
 -15043335.57848 -11710506.13746  21805755.7194                   21805755.5554
 -23088255.30147 -17978836.84045  22118807.7034                   22118803.1454
 -11680220.90648  -9089471.92245  22076061.7664                   22076060.0634
   6334116.27746   4943118.95343  24969231.1094                   24969228.4104
 11  8 24  2 32 30.0000000  0  9G12G29G26G05G15G25G02G30G21
 -16762213.71547 -13049993.33645  22354860.7034                   22354858.9614
 -12652835.44148  -9849840.43046  21630580.1724                   21630577.8834
  -7532619.48447  -5852513.80545  22497144.6644                   22497142.7854
 -23152047.85248 -18028717.21146  20895406.2344                   20895403.1844
   -625736.66047   -477028.23844  23324213.7034                   23324212.8164
 -15031724.80148 -11701458.78146  21807964.9384                   21807965.3204
 -23068906.91048 -17963760.14545  22122489.3914                   22122484.7814
 -11659185.21948  -9073080.50045  22080064.6414                   22080062.8094
   6254840.41846   4881345.62543  24954144.8524                   24954142.3524
 11  8 24  2 33  0.0000000  0  9G12G29G26G05G15G25G02G30G21
 -16702027.91847 -13003095.34445  22366313.9774                   22366311.9384
 -12749304.25048  -9925010.89846  21612222.7584                   21612220.1604
  -7637973.32847  -5934607.65645  22477096.4844                   22477094.4884
 -23119058.87548 -18003011.51646  20901683.8284                   20901681.2154
   -744983.70347   -569947.93045  23301521.5474                   23301520.9924
 -15019618.53148 -11692025.34446  21810269.0314                   21810268.7234
 -23049469.23448 -17948613.89545  22126188.3674                   22126184.0434
 -11637683.16447  -9056325.66845  22084156.1094                   22084154.5744
   6175562.30546   4819570.50043  24939058.9064                   24939055.6954
 11  8 24  2 33 30.0000000  0  9G12G29G26G05G15G25G02G30G21
 -16641594.26647 -12956004.21945  22377814.2274                   22377811.2894
 -12845557.71948 -10000013.57046  21593906.6414                   21593904.0274
  -7743013.30947  -6016456.93045  22457108.1804                   22457106.0744
 -23085691.05148 -17977010.61346  20908033.3834                   20908030.5394
   -864165.64147   -662816.88745  23278842.0474                   23278841.1684
 -15007017.34048 -11682206.23446  21812666.8054                   21812667.0904
 -23029940.69547 -17933396.85245  22129904.5004                   22129900.2114
 -11615715.85947  -9039208.30145  22088336.5634                   22088334.9104
   6096283.00446   4757794.40242  24923972.0864                   24923969.4384
 11  8 24  2 34  0.0000000  0  9G12G29G26G05G15G25G02G30G21
 -16580918.10247 -12908724.10945  22389360.6024                   22389358.0594
 -12941595.40648 -10074848.10546  21575630.8914                   21575628.3634
  -7847738.01647  -6098060.55145  22437179.2344                   22437177.4494
 -23051948.87948 -17950718.00846  20914454.4064                   20914451.3014
   -983281.81647   -755634.62145  23256175.4064                   23256174.0704
 -14993925.44948 -11672004.77046  21815158.1884                   21815158.7034
 -23010323.31648 -17918110.58245  22133637.4614                   22133633.3874
 -11593288.08247  -9021732.13345  22092604.4614                   22092602.8164
   6016999.37546   4696015.06343  24908884.8834                   24908882.2034
 11  8 24  2 34 30.0000000  0  9G12G29G26G05G15G25G02G30G21
 -16520001.25447 -12861256.47345  22400952.7664                   22400949.8914
 -13037414.11347 -10149512.00046  21557397.2424                   21557394.8324
  -7952143.06647  -6179415.08245  22417311.7974                   22417309.4774
 -23017834.17248 -17924135.11746  20920946.1804                   20920942.7464
  -1102328.60947   -848398.28945  23233521.4064                   23233519.6684
 -14980344.14148 -11661421.93746  21817742.6954                   21817742.7424
 -22990615.81247 -17902754.07445  22137387.4224                   22137383.2584
 -11570401.53547  -9003898.47345  22096959.6094                   22096957.8594
   5937711.64146   4634232.40643  24893797.6724                   24893794.3714
 11  8 24  2 35  0.0000000  0  9G12G29G26G05G15G25G02G30G21
 -16458846.71547 -12813603.60545  22412589.8284                   22412587.6884
 -13133011.19548 -10224003.20346  21539205.7814                   21539203.1564
  -8056224.41847  -6260517.37545  22397505.5314                   22397503.8874
 -22983349.19148 -17897263.70346  20927508.5704                   20927505.5594
  -1221302.29347   -941104.98845  23210881.6254                   23210879.9494
 -14966275.18048 -11650459.11746  21820420.1564                   21820420.1724
 -22970817.61748 -17887326.89545  22141155.3594                   22141150.6294
 -11547058.40247  -8985709.04345  22101401.8914                   22101400.0634
   5858419.32446   4572446.18442  24878708.1174                   24878705.2974
 11  8 24  2 35 30.0000000  0  9G12G29G26G05G15G25G02G30G21
 -16397458.21947 -12765768.43045  22424271.9924                   22424269.5124
 -13228384.91448 -10298320.34846  21521056.6564                   21521054.2814
  -8159978.94547  -6341365.00045  22377762.1414                   22377760.2034
 -22948496.55148 -17870105.80146  20934140.9844                   20934137.4024
  -1340200.34847  -1033752.75044  23188255.5784                   23188254.4024
 -14951721.08648 -11639118.26646  21823189.5634                   21823189.2464
 -22950928.96148 -17871829.23445  22144939.9454                   22144935.5864
 -11523261.82047  -8967166.26645  22105930.1884                   22105928.3754
   5779122.01646   4510656.10243  24863619.1804                   24863616.6844
 11  8 24  2 36  0.0000000  0  9G12G29G26G05G15G25G02G30G21
 -16335839.53147 -12717753.90645  22435997.5164                   22435995.1094
 -13323533.84448 -10372462.33646  21502950.2814                   21502947.8914
  -8263403.62147  -6421955.61745  22358080.8444                   22358078.6254
 -22913279.62947 -17842664.04746  20940842.3594                   20940839.1684
  -1459020.53147  -1126339.83245  23165644.4384                   23165643.5864
 -14936684.76248 -11627401.65646  21826051.1414                   21826050.7584
 -22930950.34848 -17856261.47345  22148741.6414                   22148737.0394
 -11499015.11747  -8948272.73845  22110544.1804                   22110542.2814
   5699818.27046   4448861.02343  24848528.0704                   24848524.4264
 11  8 24  2 36 30.0000000  0  9G12G29G26G05G15G25G02G30G21
 -16273991.10947 -12669560.35945  22447766.7584                   22447764.9224
 -13418452.89848 -10446425.20346  21484887.9774                   21484885.6804
  -8366492.48447  -6502284.54345  22338463.3984                   22338461.6644
 -22877697.83648 -17814937.98046  20947613.4304                   20947610.5354
  -1577757.71147  -1218862.24644  23143050.0164                   23143048.0044
 -14921165.80148 -11615308.95746  21829004.0004                   21829003.6454
 -22910878.91848 -17840621.39845  22152560.9384                   22152556.6524
 -11474318.34048  -8929028.50045  22115243.7424                   22115241.6294
   5620509.87546   4387062.30543  24833435.2034                   24833433.0234
 11  8 24  2 37  0.0000000  0  9G12G29G26G05G15G25G02G30G21
 -16211918.10247 -12621191.81245  22459578.7584                   22459577.0164
 -13513141.71548 -10520208.66846  21466869.2974                   21466867.0204
  -8469243.90647  -6582350.53945  22318910.3914                   22318908.6844
 -22841755.92648 -17786931.30146  20954452.5554                   20954449.3134
  -1696410.26647  -1311318.71144  23120470.8134                   23120469.2734
 -14905168.25048 -11602843.34046  21832048.3284                   21832047.7734
 -22890716.09448 -17824910.11745  22156397.8984                   22156393.6174
 -11449175.98848  -8909437.06645  22120028.1174                   22120025.6844
   5541194.11346   4325257.84043  24818342.5704                   24818339.9534
 11  8 24  2 37 30.0000000  0  9G12G29G26G05G15G25G02G30G21
 -16149623.24647 -12572650.39845  22471432.9384                   22471431.3094
 -13607597.93448 -10593810.87546  21448894.4144                   21448892.3324
  -8571653.93747  -6662150.51245  22299422.5394                   22299420.7704
 -22805456.27048 -17758645.85546  20961360.4384                   20961357.6054
  -1814975.13746  -1403706.87544  23097908.1644                   23097906.8134
 -14888694.16448 -11590006.39846  21835183.2974                   21835183.1174
 -22870461.62548 -17809127.41445  22160252.1884                   22160247.8364
 -11423590.69948  -8889500.48445  22124897.1024                   22124894.6884
   5461870.85546   4263447.56643  24803246.8444                   24803245.3134
 11  8 24  2 38  0.0000000  0  9G12G29G26G05G15G25G02G30G21
 -16087110.79747 -12523939.42245  22483328.8364                   22483326.9804
 -13701820.50048 -10667231.02346  21430964.7274                   21430962.7114
  -8673720.48447  -6741682.83645  22279999.5554                   22279998.1484
 -22768802.57048 -17730084.55146  20968335.2504                   20968332.4804
  -1933451.12147  -1496025.77044  23075363.1024                   23075361.1954
 -14871747.06648 -11576800.87146  21838408.0394                   21838408.1254
 -22850116.60247 -17793274.15645  22164124.0704                   22164119.3164
 -11397566.34847  -8869221.77345  22129849.1954                   22129847.0434
   5382538.25846   4201630.02043  24788151.3754                   24788149.4144
 11  8 24  2 38 30.0000000  0  9G12G29G26G05G15G25G02G30G21
 -16024382.41847 -12475060.20345  22495266.0314                   22495264.3674
 -13795805.36348 -10740465.94546  21413079.4844                   21413077.8164
  -8775438.10547  -6820943.27345  22260643.5164                   22260641.4734
 -22731795.55548 -17701247.92646  20975377.3674                   20975374.5784
  -2051832.75847  -1588271.14844  23052836.2664                   23052833.9884
 -14854327.51648 -11563227.20346  21841722.9064                   21841722.7664
 -22829679.14147 -17777348.86745  22168012.7814                   22168008.8524
 -11371103.96147  -8848601.72745  22134884.5084                   22134882.7974
   5303197.32446   4139805.98443  24773052.6884                   24773051.5664
 11  8 24  2 39  0.0000000  0  9G12G29G26G05G15G25G02G30G21
 -15961440.95747 -12426014.92645  22507243.2664                   22507241.1254
 -13889550.31648 -10813513.93446  21395240.4064                   21395238.6054
  -8876803.39147  -6899929.16045  22241354.5554                   22241352.6884
 -22694437.85948 -17672138.03946  20982486.4924                   20982483.1214
  -2170117.52747  -1680441.06245  23030327.1954                   23030325.3134
 -14836437.89848 -11549287.25046  21845127.2664                   21845127.2504
 -22809148.96147 -17761351.33245  22171919.5084                   22171915.1954
 -11344206.43747  -8827642.62945  22140003.0784                   22140000.7704
   5223847.19546   4077974.75443  24757953.1954                   24757950.8094
 11  8 24  2 39 30.0000000  0  9G12G29G26G05G15G25G02G30G21
 -15898290.55147 -12376806.84445  22519260.5004                   22519258.2234
 -13983053.20348 -10886373.28946  21377447.9304                   21377445.3754
  -8977813.09047  -6978637.97745  22222132.9614                   22222131.3054
 -22656732.20348 -17642757.02046  20989661.6724                   20989658.8674
  -2288302.73847  -1772533.39845  23007837.1174                   23007835.1954
 -14818080.73048 -11534982.97346  21848620.6414                   21848620.5944
 -22788526.15247 -17745281.61345  22175844.3284                   22175839.8134
 -11316876.69147  -8806346.71945  22145203.8444                   22145201.9224
   5144486.92246   4016135.64143  24742850.3594                   24742849.3594
 11  8 24  2 40  0.0000000  0  9G12G29G26G05G15G25G02G30G21
 -15834933.86347 -12327438.02345  22531316.6564                   22531314.5594
 -14076311.86348 -10959042.34046  21359701.2344                   21359698.5234
  -9078463.68747  -7057066.96145  22202979.7424                   22202978.2194
 -22618681.02348 -17613106.75846  20996902.2664                   20996899.3794
  -2406385.27747  -1864545.73045  22985367.1254                   22985364.9494
 -14799258.33648 -11520316.18746  21852202.2814                   21852202.3364
 -22767810.40247 -17729139.48045  22179786.0164                   22179781.9024
 -11289117.44947  -8784716.14545  22150485.9694                   22150484.2424
   5065116.17646   3954288.32443  24727747.6804                   24727745.3164
 11  8 24  2 40 30.0000000  0  9G12G29G26G05G15G25G02G30G21
 -15771374.60247 -12277911.36345  22543411.3834                   22543409.4654
 -14169324.34448 -11031519.56646  21342001.4454                   21341999.1684
  -9178752.12947  -7135213.75845  22183895.1024                   22183893.2304
 -22580287.50048 -17583189.74646  21004208.3284                   21004205.7424
  -2524362.46947  -1956475.96145  22962916.1254                   22962914.9264
 -14779973.50848 -11505289.05946  21855871.9224                   21855871.8554
 -22747001.71547 -17712924.92645  22183746.1414                   22183741.7544
 -11260932.07847  -8762753.52345  22155849.5944                   22155847.6804
   4985733.67246   3892431.87543  24712640.9844                   24712639.0554
 11  8 24  2 41  0.0000000  0  9G12G29G26G05G15G25G02G30G21
 -15707615.60547 -12228229.05545  22555544.8284                   22555542.3134
 -14262088.09448 -11103802.98446  21324348.9224                   21324346.7074
  -9278674.84047  -7213075.56645  22164880.5394                   22164878.6214
 -22541553.86748 -17553007.69946  21011579.3204                   21011576.2894
  -2642231.52047  -2048321.92245  22940486.5474                   22940484.9574
 -14760228.41448 -11489903.28546  21859629.6254                   21859629.2894
 -22726099.83647 -17696637.77045  22187723.6174                   22187718.9414
 -11232323.13347  -8740460.85545  22161293.6884                   22161292.3164
   4906339.03546   3830565.99243  24697532.6644                   24697530.8244
 11  8 24  2 41 30.0000000  0  9G12G29G26G05G15G25G02G30G21
 -15643659.09847 -12178392.84445  22567714.9694                   22567712.8244
 -14354600.16848 -11175890.28546  21306744.6804                   21306742.2504
  -9378227.07047  -7290648.68745  22145936.4844                   22145934.6564
 -22502481.53148 -17522561.73046  21019014.3284                   21019011.5984
  -2759988.03147  -2140080.19545  22918078.3054                   22918076.8634
 -14740024.41848 -11474159.92246  21863474.1884                   21863474.2274
 -22705103.40647 -17680276.93045  22191719.0784                   22191714.7034
 -11203292.35947  -8717839.48045  22166818.3984                   22166816.3524
   4826932.52046   3768690.82043  24682422.9534                   24682420.0864
 11  8 24  2 42  0.0000000  0  9G12G29G26G05G15G25G02G30G21
 -15579509.39547 -12128406.08645  22579922.0634                   22579920.5824
 -14446859.53948 -11247780.68446  21289188.3364                   21289186.0394
  -9477406.40647  -7367931.24245  22127063.6174                   22127061.0864
 -22463074.27748 -17491854.79746  21026513.1804                   21026510.1604
  -2877630.07047  -2231749.27345  22895691.8914                   22895690.0394
 -14719365.04348 -11458061.71946  21867405.5314                   21867405.3244
 -22684013.43447 -17663843.19145  22195732.7894                   22195727.8204
 -11173843.82447  -8694892.57845  22172421.9384                   22172420.1374
   4747512.68446   3706805.23843  24667309.5634                   24667307.2934
 11  8 24  2 42 30.0000000  0  9G12G29G26G05G15G25G02G30G21
 -15515168.56247 -12078270.39845  22592166.4224                   22592164.1484
 -14538862.38348 -11319471.18746  21271680.5944                   21271678.3054
  -9576208.58647  -7444919.91045  22108261.3134                   22108259.8794
 -22423333.58648 -17460888.03146  21034075.5634                   21034073.1214
  -2995154.08647  -2323326.38345  22873327.9774                   22873326.0784
 -14698251.75448 -11441609.82846  21871423.4534                   21871423.2854
 -22662828.56647 -17647335.51645  22199763.7894                   22199759.0864
 -11143979.34447  -8671621.55145  22178105.0164                   22178103.3714
   4668079.73046   3644909.47343  24652193.8444                   24652192.1134
 11  8 24  2 43  0.0000000  0  9G12G29G26G05G15G25G02G30G21
 -15450637.56247 -12027986.54345  22604446.2584                   22604443.8714
 -14630604.20348 -11390958.28546  21254222.7504                   21254220.3244
  -9674627.47347  -7521609.91045  22089533.2194                   22089531.3244
 -22383259.54348 -17429661.50446  21041701.8914                   21041699.0434
  -3112554.24247  -2414806.98045  22850987.1334                   22850985.6254
 -14676684.50048 -11424804.17246  21875527.4614                   21875527.3404
 -22641545.97347 -17630751.68745  22203813.7734                   22203809.0824
 -11113699.25447  -8648026.67645  22183867.5944                   22183865.7854
   4588635.42646   3583004.88343  24637076.8444                   24637073.7274
 11  8 24  2 43 30.0000000  0  9G12G29G26G05G15G25G02G30G21
 -15385922.96947 -11977559.61345  22616760.7114                   22616758.6914
 -14722086.23848 -11462242.96546  21236814.5004                   21236811.9384
  -9772663.27347  -7598001.40245  22070877.9304                   22070875.7464
 -22342858.43448 -17398180.12946  21049389.4224                   21049386.8954
  -3229831.17247  -2506191.55545  22828670.0704                   22828668.1484
 -14654669.26648 -11407649.46146  21879716.3444                   21879716.6214
 -22620169.01647 -17614094.33245  22207881.8444                   22207877.3594
 -11083010.11347  -8624113.06245  22189707.3204                   22189705.4064
   4509175.80946   3521088.32843  24621956.5084                   24621952.5944
 11  8 24  2 44  0.0000000  0 10G12G29G26G18G05G15G25G02G30G21
 -15321028.65247 -11926992.64845  22629110.1884                   22629108.0394
 -14813307.07848 -11533324.10946  21219455.3204                   21219453.4184
  -9870313.55547  -7674092.48845  22052295.9384                   22052293.1684
   7711985.19956   6019768.23853  24539276.3134                   24539274.8484
 -22302133.71948 -17366446.58246  21057139.4064                   21057136.8794
  -3346982.83647  -2597478.50045  22806376.4924                   22806375.2624
 -14632209.52348 -11390148.36746  21883990.3134                   21883990.7774
 -22598698.32847 -17597363.93045  22211967.0394                   22211962.7424
 -11051915.62947  -8599883.59845  22195624.0394                   22195622.6374
   4429699.02046   3459158.41043  24606831.2274                   24606828.7734
 11  8 24  2 44 30.0000000  0 10G12G29G26G18G05G15G25G02G30G21
 -15255961.06247 -11876290.65645  22641491.7274                   22641489.5704
 -14904267.57448 -11604202.39546  21202146.3284                   21202144.0864
  -9967577.87547  -7749882.82045  22033786.9694                   22033784.3914
   7599220.75446   5931899.99243  24517817.2664                   24517815.8484
 -22261091.08648 -17334465.31246  21064949.7274                   21064947.1174
  -3464009.71547  -2688668.22345  22784107.1804                   22784105.4064
 -14609310.90648 -11372305.30146  21888348.2034                   21888347.8324
 -22577137.03947 -17580562.92645  22216070.0314                   22216065.7504
 -11020422.00047  -8575343.10245  22201617.4694                   22201615.7384
   4350201.71146   3397212.50843  24591703.8594                   24591701.5394
 11  8 24  2 45  0.0000000  0 10G12G29G26G18G05G15G25G02G30G21
 -15190730.03147 -11825461.32445  22653905.1334                   22653903.0204
 -14994971.85948 -11674881.02746  21184885.4534                   21184883.4104
 -10064459.35547  -7825374.84445  22015350.7504                   22015348.6604
   7486613.53945   5844154.29743  24496388.5784                   24496388.1764
 -22219739.43748 -17302243.25046  21072818.6484                   21072815.8834
  -3580914.97347  -2779763.17245  22761861.0784                   22761859.0554
 -14585982.36348 -11354127.22346  21892787.4064                   21892787.2234
 -22555490.99247 -17563695.89145  22220189.2504                   22220184.3554
 -10988538.54747  -8550498.85245  22207684.7274                   22207682.7894
   4270676.67646   3335245.00043  24576570.3364                   24576567.1684
 11  8 24  2 45 30.0000000  0 10G12G29G26G18G05G15G25G02G30G21
 -15125335.25447 -11774504.37945  22666349.1954                   22666346.9064
 -15085414.58248 -11745355.84846  21167675.4534                   21167672.9384
 -10160951.36747  -7900563.38745  21996988.8984                   21996986.6884
   7374167.51645   5756534.13343  24474991.4304                   24474989.3324
 -22178078.05948 -17269779.84046  21080746.4694                   21080744.1564
  -3697692.13747  -2870758.30145  22739638.7814                   22739637.1134
 -14562223.14848 -11335613.55946  21897308.4844                   21897308.5784
 -22533756.57447 -17546759.97745  22224325.2734                   22224320.8874
 -10956264.85947  -8525350.53145  22213825.7424                   22213824.6024
   4191126.53946   3273257.93043  24561432.7814                   24561430.1994
 11  8 24  2 46  0.0000000  0 10G12G29G26G18G05G15G25G02G30G21
 -15059779.28947 -11723421.84845  22678824.1884                   22678822.6454
 -15175592.51648 -11815624.32846  21150514.6024                   21150512.3874
 -10257049.77747  -7975445.23045  21978701.7814                   21978699.6174
   7261884.97746   5669041.42243  24453624.7424                   24453622.2934
 -22136108.87548 -17237076.58246  21088733.0864                   21088730.1844
  -3814337.55147  -2961650.77345  22717441.8524                   22717440.4494
 -14538035.04348 -11316765.70746  21901911.3524                   21901911.3094
 -22511932.93747 -17529754.54745  22228478.0704                   22228473.4804
 -10923603.20747  -8499899.91045  22220041.6564                   22220040.0274
   4111551.32846   3211251.33243  24546290.1254                   24546287.8244
 11  8 24  2 46 30.0000000  0 10G12G29G26G18G05G15G25G02G30G21
 -14994060.85547 -11672212.70345  22691330.0864                   22691327.8094
 -15265499.06648 -11885681.35246  21133406.1174                   21133403.7114
 -10352746.70747  -8050014.23045  21960491.0704                   21960489.2274
   7149771.53146   5581680.39543  24432289.9304                   24432288.4264
 -22093830.17248 -17204132.13346  21096778.5004                   21096775.8484
  -3930844.18047  -3052435.10545  22695271.2194                   22695269.8134
 -14513416.38348 -11297582.34846  21906595.8054                   21906596.0744
 -22490015.74247 -17512676.22345  22232648.9454                   22232644.2544
 -10890552.29747  -8474145.96545  22226331.1254                   22226329.6024
   4031954.65646   3149228.00043  24531142.9224                   24531140.4414
 11  8 24  2 47  0.0000000  0 10G12G29G26G18G05G15G25G02G30G21
 -13352762.03947 -10393278.59845  23003658.7584                   23003656.5354
 -13779705.59448 -10727920.16446  21416143.4144                   21416140.4574
  -8872612.30547  -6896662.71145  22242151.0864                   22242149.5434
   8613255.27746   6722057.45343  24710780.5084                   24710779.5084
 -20475822.28148 -15943346.76646  21404675.1484                   21404672.2704
  -2471781.48747  -1915503.03545  22972922.2584                   22972919.8794
 -12912947.21148 -10050463.53546  22211155.5084                   22211155.5634
 -20892581.87147 -16267922.55545  22536630.5164                   22536625.9304
  -9281692.83247  -7220489.24645  22532486.5004                   22532485.3954
   5527762.26646   4314792.44543  24815785.5164                   24815782.6524
 11  8 24  2 47 30.0000000  0 10G12G29G26G18G05G15G25G02G30G21
 -13286721.71547 -10341818.63745  23016225.7034                   23016223.5664
 -13869055.91448 -10797543.75446  21399140.2664                   21399137.7584
  -8967489.37547  -6970592.85945  22224096.6334                   22224094.7624
   8501490.21946   6634967.93443  24689513.3674                   24689511.8094
 -20432925.27748 -15909920.52046  21412838.2194                   21412835.2544
  -2587994.25447  -2006058.40645  22950807.5634                   22950805.6334
 -12887468.40248 -10030609.92646  22216003.7274                   22216003.9694
 -20870469.55947 -16250692.19145  22540838.0474                   22540833.8324
  -9247865.53547  -7194130.33645  22538924.1024                   22538922.3594
   5448127.67646   4252739.60943  24800631.4614                   24800629.3674
 11  8 24  2 48  0.0000000  0 10G12G29G26G18G05G15G25G02G30G21
 -13220526.20347 -10290237.75845  23028822.1334                   23028820.8324
 -13958125.69148 -10866948.73846  21382191.1174                   21382188.1764
  -9061952.78147  -7044200.66445  22206121.1954                   22206119.3244
   8389899.80946   6548014.49643  24668277.8134                   24668276.5594
 -20389724.42248 -15876257.51246  21421058.7894                   21421055.9304
  -2704056.67247  -2096496.61345  22928721.0314                   22928718.9694
 -12861564.45348 -10010425.05546  22220933.2504                   22220933.3404
 -20848260.16447 -16233386.17245  22545064.4224                   22545060.2304
  -9213655.59847  -7167473.26245  22545433.6804                   22545432.1254
   5368472.52346   4190670.75043  24785473.5004                   24785471.0434
 11  8 24  2 48 30.0000000  0 10G12G29G26G18G05G15G25G02G30G21
 -13154177.68747 -10238537.67645  23041447.8054                   23041446.3134
 -14046911.72348 -10936132.62546  21365295.6804                   21365292.8794
  -9155997.90647  -7117482.54745  22188224.5234                   22188223.0004
   8278486.22346   6461198.82043  24647076.8204                   24647075.1294
 -20346220.58648 -15842358.42246  21429337.3674                   21429334.5004
  -2819965.08647  -2186814.80545  22906664.5004                   22906662.4924
 -12835237.12548  -9989910.27746  22225943.1724                   22225943.2384
 -20825952.60547 -16216003.67645  22549309.4924                   22549305.2304
  -9179065.15247  -7140519.68745  22552016.3204                   22552014.6094
   5288796.85546   4128585.89143  24770311.4774                   24770308.9454
 11  8 24  2 49  0.0000000  0 10G12G29G26G18G05G15G25G02G30G21
 -13087678.78147 -10186720.39145  23054102.2894                   23054100.2234
 -14135411.29748 -11005093.30146  21348454.8524                   21348451.9064
  -9249620.73447  -7190435.36745  22170408.9844                   22170407.3954
   8167251.39846   6374522.43443  24625909.4844                   24625907.2384
 -20302416.24648 -15808225.17646  21437672.8984                   21437670.3244
  -2935715.39847  -2277009.81645  22884637.8984                   22884635.8594
 -12808488.34048  -9969067.09846  22231033.2664                   22231033.3594
 -20803546.00047 -16198543.99645  22553573.6954                   22553569.1094
  -9144096.46547  -7113271.37945  22558670.0864                   22558668.6884
   5209100.66446   4066485.04743  24755146.1884                   24755143.7734
 11  8 24  2 49 30.0000000  0 10G12G29G26G18G05G15G25G02G30G21
 -13021032.85247 -10134788.54745  23066784.9144                   23066782.6484
 -14223622.05148 -11073828.92646  21331668.3914                   21331665.8244
  -9342818.50047  -7263056.98445  22152674.1254                   22152671.8284
   8056196.27046   6287986.10243  24604776.1174                   24604773.7194
 -20258314.02348 -15773859.80146  21446065.3284                   21446062.3874
  -3051305.23847  -2367079.76245  22862641.8204                   22862640.0394
 -12781321.00448  -9947897.76246  22236203.1094                   22236203.1844
 -20781039.95747 -16181006.84445  22557855.8054                   22557852.0354
  -9108752.85547  -7085730.92645  22565395.9534                   22565394.8634
   5129383.24246   4004367.66043  24739976.5554                   24739974.1764
 11  8 24  2 50  0.0000000  0 10G12G29G26G18G05G15G25G02G30G21
 -12954243.04347 -10082744.56245  23079494.4064                   23079492.7304
 -14311541.83248 -11142337.81246  21314937.9304                   21314935.3984
  -9435587.77747  -7335344.69945  22135020.3524                   22135018.7344
   7945321.70746   6201590.45343  24583677.1644                   24583675.2194
 -20213916.77048 -15739264.54746  21454514.0394                   21454511.2114
  -3166731.34047  -2457022.11345  22840676.8754                   22840674.8794
 -12753737.96148  -9926404.50846  22241451.6414                   22241452.1604
 -20758434.71547 -16163392.39145  22562158.2584                   22562153.5124
  -9073037.48447  -7057900.78945  22572192.4924                   22572191.2384
   5049643.90247   3942233.20343  24724802.2424                   24724799.7194
 11  8 24  2 50 30.0000000  0 10G12G29G26G18G05G15G25G02G30G21
 -12887313.21547 -10030591.48845  23092230.9144                   23092228.4454
 -14399168.69948 -11210618.45746  21298263.1954                   21298260.6884
  -9527925.57047  -7407296.19145  22117449.2664                   22117447.4064
   7834628.66046   6115336.26243  24562612.5234                   24562610.7114
 -20169227.43748 -15704441.69946  21463018.1724                   21463015.2194
  -3281990.96547  -2546834.75445  22818743.8284                   22818741.7854
 -12725742.03148  -9904589.53146  22246779.5784                   22246779.6454
 -20735730.05547 -16145700.45745  22566478.1804                   22566474.0634
  -9036953.62947  -7029783.52745  22579059.2894                   22579057.4264
   4969881.69546   3880080.93843  24709624.0164                   24709622.2274
 11  8 24  2 51  0.0000000  0 10G12G29G26G18G05G15G25G02G30G21
 -12820244.48447  -9978330.14845  23104993.5234                   23104990.8554
 -14486498.68748 -11278667.77046  21281644.9924                   21281642.3244
  -9619826.74248  -7478907.46545  22099961.2584                   22099958.7934
   7724119.91046   6029225.64843  24541583.6564                   24541581.0274
 -20124246.73848 -15669391.79746  21471577.7194                   21471574.6254
  -3397079.36347  -2636513.96545  22796842.9614                   22796841.5514
 -12697334.26248  -9882453.62946  22252185.1804                   22252185.6724
 -20712923.96947 -16127929.52045  22570818.3364                   22570813.8794
  -9000502.62547  -7001380.18045  22585995.2194                   22585994.1884
   4890097.83647   3817911.77343  24694441.7734                   24694439.1174
 11  8 24  2 51 30.0000000  0 10G12G29G26G18G05G15G25G02G30G21
 -12753042.17647  -9925964.73445  23117781.9144                   23117779.8594
 -14573531.48048 -11346485.49646  21265083.3284                   21265080.4884
  -9711290.05947  -7550177.55145  22082556.2274                   22082553.9734
   7613794.62946   5943258.02043  24520589.3524                   24520586.2464
 -20078979.16048 -15634118.36346  21480191.9304                   21480188.6374
  -3511995.89147  -2726059.23845  22774974.9774                   22774973.3054
 -12668519.39548  -9860000.51646  22257668.6334                   22257668.8594
 -20690017.99647 -16110080.72345  22575177.4304                   22575173.0084
  -8963689.65647  -6972694.78145  22593000.7664                   22592998.8404
   4810289.44147   3755723.47743  24679254.7974                   24679251.9454
 11  8 24  2 52  0.0000000  0 10G12G29G26G18G05G15G25G02G30G21
 -12685707.71547  -9873496.34845  23130595.3134                   23130592.9654
 -14660263.12548 -11414068.56646  21248578.4534                   21248575.5514
  -9802310.49647  -7621102.53545  22065235.5634                   22065233.3444
   7503655.49646   5857435.43443  24499631.1804                   24499628.5554
 -20033425.58648 -15598622.07846  21488860.2814                   21488857.4344
  -3626735.80947  -2815466.89845  22753140.9844                   22753139.1684
 -12639298.53548  -9837231.03946  22263229.2034                   22263229.5944
 -20667010.25047 -16092152.62945  22579555.3204                   22579550.8204
  -8926516.13747  -6943728.43045  22600074.4454                   22600072.6214
   4730457.87547   3693517.14843  24664063.6334                   24664060.4774
 11  8 24  2 52 30.0000000  0 10G12G29G26G18G05G15G25G02G30G21
 -12618245.53547  -9820928.45345  23143433.2734                   23143430.7424
 -14746692.49248 -11481416.09846  21232131.6094                   21232128.9024
  -9892886.39547  -7691681.13345  22047998.8134                   22047997.2504
   7393702.32846   5771757.72342  24478707.0554                   24478704.1374
 -19987589.92248 -15562905.97746  21497582.9384                   21497579.5864
  -3741297.29747  -2904735.53945  22731340.6174                   22731338.8404
 -12609675.73848  -9814148.37146  22268866.2894                   22268866.7894
 -20643901.79347 -16074146.06245  22583952.7114                   22583948.4574
  -8888986.42647  -6914484.53545  22607216.0394                   22607214.6374
   4650601.26647   3631291.28543  24648867.5554                   24648863.8484
 11  8 24  2 53  0.0000000  0 10G12G29G26G18G05G15G25G02G30G21
 -12550658.46547  -9768263.23445  23156294.2344                   23156291.9884
 -14832817.24648 -11548526.27346  21215742.4924                   21215739.7344
  -9983013.96948  -7761910.38745  22030848.6724                   22030846.7154
   7283936.60546   5686226.12543  24457819.2974                   24457816.6134
 -19941474.73848 -15526972.07046  21506358.0784                   21506355.1884
  -3855676.75447  -2993862.32445  22709575.1564                   22709573.1454
 -12579653.37548  -9790754.34046  22274579.5394                   22274579.5044
 -20620692.03547 -16056060.56645  22588369.8444                   22588365.0904
  -8851103.33247  -6884965.27745  22614424.9534                   22614423.2114
   4570719.23046   3569045.61743  24633665.7734                   24633663.2894
 11  8 24  2 53 30.0000000  0 10G12G29G26G18G05G15G25G02G30G21
 -12482950.20747  -9715503.58645  23169178.3284                   23169177.0474
 -14918635.52748 -11615397.63746  21199411.7814                   21199409.3054
 -10072690.51648  -7831788.18745  22013783.9844                   22013781.9654
   7174358.83646   5600840.96943  24436967.4304                   24436964.1914
 -19895082.80148 -15490822.50446  21515185.9534                   21515183.1294
  -3969871.87147  -3082845.47345  22687844.3914                   22687842.3914
 -12549234.72348  -9767051.52346  22280367.8754                   22280367.8284
 -20597381.07047 -16037896.21545  22592805.6094                   22592801.1994
  -8812870.39847  -6855173.41045  22621700.6484                   22621698.8954
   4490810.66846   3506779.27743  24618459.0704                   24618456.6604
 11  8 24  2 54  0.0000000  0 10G12G29G26G18G05G15G25G02G30G21
 -12415124.43447  -9662652.40245  23182085.3754                   23182084.2304
 -15004145.32448 -11682028.62546  21183140.0474                   21183137.1684
 -10161913.21548  -7901312.34845  21996805.1804                   21996803.0784
   7064969.81646   5515602.90243  24416151.5314                   24416148.6764
 -19848417.09848 -15454459.62146  21524066.2424                   21524063.4734
  -4083880.15247  -3171683.03545  22666149.1024                   22666147.0204
 -12518423.02048  -9743042.41446  22286230.7734                   22286231.1524
 -20573968.95347 -16019653.04345  22597261.0634                   22597256.2584
  -8774291.17247  -6825111.70745  22629042.1484                   22629040.5704
   4410874.63347   3444491.51243  24603248.7274                   24603245.4224
 11  8 24  2 54 30.0000000  0 10G12G29G26G18G05G15G25G02G30G21
 -12347182.93447  -9609710.99645  23195014.0554                   23195012.5984
 -15089343.29748 -11748416.64546  21166927.2504                   21166924.4264
 -10250677.60248  -7970479.37145  21979913.8984                   21979911.8714
   6955771.63346   5430513.51643  24395371.3754                   24395369.2584
 -19801479.20748 -15417884.63746  21532998.4304                   21532995.4844
  -4197697.30947  -3260371.68445  22644490.5944                   22644488.5234
 -12487219.70348  -9718728.16046  22292168.9304                   22292169.2854
 -20550453.93047 -16001329.68445  22601735.8914                   22601731.3324
  -8735367.54347  -6794781.63745  22636449.3054                   22636446.9924
   4330912.27746   3382183.25044  24588032.1334                   24588029.3874
 11  8 24  2 55  0.0000000  0 10G12G29G26G18G05G15G25G02G30G21
 -12279127.45747  -9556680.81645  23207965.1174                   23207963.3134
 -15174225.64848 -11814558.71546  21150774.9144                   21150772.0514
 -10338978.88347  -8039285.54345  21963110.4614                   21963108.8554
   6846766.86346   5345574.83243  24374628.2424                   24374626.2154
 -19754270.05148 -15381098.28946  21541981.7584                   21541978.8794
  -4311318.55547  -3348907.66445  22622869.0634                   22622866.6954
 -12455626.25048  -9694109.89846  22298180.9924                   22298181.5824
 -20526834.53547 -15982924.99245  22606230.4384                   22606225.8754
  -8696101.27747  -6764184.56645  22643921.5474                   22643919.1374
   4250924.07846   3319854.84443  24572810.6954                   24572807.3954
 11  8 24  2 55 30.0000000  0 10G12G29G26G18G05G15G25G02G30G21
 -12210962.00047  -9503564.90245  23220936.4614                   23220934.5944
 -15258790.88747 -11880453.68746  21134682.4224                   21134679.6454
 -10426814.98047  -8107729.23445  21946396.5554                   21946393.8094
   6737955.58246   5260786.89143  24353921.4844                   24353920.6644
 -19706793.02748 -15344103.20346  21551016.3594                   21551013.2974
  -4424742.20747  -3437289.68045  22601285.2274                   22601283.2154
 -12423646.38748  -9669190.53946  22304266.4454                   22304266.8794
 -20503111.44147 -15964439.50445  22610744.6724                   22610740.1374
  -8656496.37547  -6733323.61345  22651457.8754                   22651455.7854
   4170908.24246   3257504.90243  24557584.3364                   24557581.0394
 11  8 24  2 56  0.0000000  0 10G12G29G26G18G05G15G25G02G30G21
 -12142691.05547  -9450366.78945  23233928.1484                   23233925.8554
 -15343038.09447 -11946100.84446  21118650.4614                   21118647.9414
 -10514183.71547  -8175808.74245  21929770.3284                   21929768.2854
   6629337.65246   5176149.64143  24333252.7344                   24333251.0314
 -19659052.04348 -15306902.43746  21560101.1804                   21560098.3554
  -4537966.32447  -3525516.21545  22579739.4384                   22579737.1334
 -12391284.03948  -9643973.12546  22310425.0704                   22310425.1524
 -20479285.37147 -15945873.76245  22615278.7114                   22615274.5004
  -8616557.10947  -6702202.12545  22659057.9304                   22659056.1914
   4090863.36746   3195132.32043  24542352.2194                   24542348.8794
 11  8 24  2 56 30.0000000  0 10G12G29G26G18G05G15G25G02G30G21
 -12074316.16447  -9397087.68745  23246939.5944                   23246937.3754
 -15426963.69147 -12011497.40246  21102680.0474                   21102677.9304
 -10601080.69547  -8243520.65245  21913234.7974                   21913232.2034
   6520915.73446   5091665.13343  24312620.2194                   24312619.3794
 -19611048.17248 -15269496.82446  21569235.8834                   21569232.9614
  -4650986.26247  -3613583.66445  22558232.0634                   22558230.0634
 -12358540.77048  -9618458.89846  22316655.5554                   22316655.8834
 -20455354.36747 -15927226.26645  22619832.4064                   22619827.7814
  -8576285.40647  -6670821.58645  22666721.5474                   22666719.5864
   4010790.18846   3132737.72343  24527114.3284                   24527111.7974
 11  8 24  2 57  0.0000000  0 10G12G29G26G18G05G15G25G02G30G21
 -12005840.61747  -9343730.14544  23259969.9774                   23259968.0004
 -15510565.11748 -12076641.35546  21086771.1174                   21086768.5664
 -10687502.69947  -8310862.44945  21896788.7274                   21896786.9494
   6412690.75046   5007334.05543  24292026.1804                   24292024.3284
 -19562783.82448 -15231888.24246  21578420.6414                   21578417.8014
  -4763799.12547  -3701489.73045  22536764.6414                   22536762.7664
 -12325419.28147  -9592649.95346  22322958.5394                   22322959.0784
 -20431318.39147 -15908496.96945  22624406.1484                   22624401.7384
  -8535684.28147  -6639184.35545  22674447.8444                   22674446.2304
   3930688.31346   3070320.73443  24511871.9614                   24511868.5004
 11  8 24  2 57 30.0000000  0 10G12G29G26G18G05G15G25G02G30G21
 -11937266.39847  -9290295.69544  23273018.9224                   23273016.6914
 -15593839.30148 -12141530.32046  21070924.8204                   21070922.4534
 -10773445.65247  -8377830.96545  21880434.5164                   21880432.1644
   6304664.56346   4923157.89143  24271468.2424                   24271467.2074
 -19514260.80548 -15194078.10246  21587653.9454                   21587651.1254
  -4876400.84047  -3789231.28545  22515337.2274                   22515335.0354
 -12291921.43448  -9566547.74246  22329333.0234                   22329333.5394
 -20407175.77347 -15889684.59045  22629000.8834                   22628996.2734
  -8494755.82847  -6607292.06645  22682236.5944                   22682234.3324
   3850558.49646   3007881.97343  24496622.6804                   24496620.1604
 11  8 24  2 58  0.0000000  0 10G12G29G26G18G05G15G25G02G30G21
 -11868595.42247  -9236785.87144  23286086.5084                   23286083.8634
 -15676782.25048 -12206161.17646  21055141.2344                   21055138.7734
 -10858905.21547  -8444422.80545  21864171.8524                   21864169.5044
   6196839.20346   4839138.21143  24250950.5314                   24250948.9344
 -19465480.42248 -15156067.40646  21596936.6334                   21596934.0234
  -4988787.20747  -3876805.03145  22493950.7664                   22493948.6414
 -12258049.00848  -9540153.65246  22335778.5944                   22335778.9964
 -20382925.05147 -15870787.95745  22633614.7114                   22633611.1024
  -8453502.17247  -6575146.36345  22690086.1564                   22690085.0904
   3770401.10246   2945421.72743  24481369.7584                   24481366.3634
 11  8 24  2 58 30.0000000  0 10G12G29G26G18G05G15G25G02G30G21
 -11799835.50446  -9183206.74644  23299171.2274                   23299169.1374
 -15759396.90247 -12270536.21546  21039420.0164                   21039417.4104
 -10943882.71547  -8510639.01645  21848001.5784                   21847999.1844
   6089211.75446   4755272.76643  24230469.5634                   24230468.4304
 -19416449.72748 -15117861.67246  21606266.9224                   21606263.9304
  -5100959.76647  -3964212.17645  22472604.6644                   22472602.5004
 -12223809.34447  -9513473.39546  22342294.4844                   22342294.9024
 -20358570.36347 -15851810.31645  22638250.0864                   22638245.8164
  -8411930.91847  -6542753.18045  22697997.2664                   22697995.6414
   3690210.98446   2882936.03143  24466109.1334                   24466107.4264
 11  8 24  2 59  0.0000000  0 10G12G29G26G18G05G15G25G02G30G21
 -11730984.07846  -9129556.33644  23312273.0944                   23312271.4264
 -15841675.56247 -12334649.44546  21023762.8984                   21023760.2274
 -11028369.91047  -8576473.18045  21831923.7664                   21831921.5204
   5981788.04346   4671566.05943  24210027.6564                   24210025.6724
 -19367166.10248 -15079458.84046  21615645.1094                   21615642.2814
  -5212910.21947  -4051446.23845  22451301.1804                   22451299.0124
 -12189200.14847  -9486505.21146  22348880.2424                   22348880.4184
 -20334106.27747 -15832747.43045  22642905.2734                   22642900.6844
  -8370040.14847  -6510111.03945  22705968.3134                   22705967.1484
   3609993.14546   2820428.68444  24450845.1644                   24450841.7034
 11  8 24  2 59 30.0000000  0 10G12G29G26G18G05G15G25G02G30G21
 -11662047.20746  -9075839.35244  23325390.9774                   23325389.4694
 -15923617.93447 -12398500.62546  21008169.6564                   21008167.3524
 -11112365.64547  -8641924.37145  21815940.0944                   21815938.3094
   5874566.93046   4588017.22743  24189624.1724                   24189621.9454
 -19317634.16048 -15040862.52746  21625071.0864                   21625067.6134
  -5324637.61347  -4138506.48845  22430040.5084                   22430038.2194
 -12154226.41847  -9459252.95346  22355535.6724                   22355535.7664
 -20309534.47347 -15813600.60245  22647581.3364                   22647576.7424
  -8327835.10547  -6477223.99645  22713999.9924                   22713998.4654
   3529744.79746   2757897.56643  24435574.2894                   24435571.4384
 11  8 24  3  0  0.0000000  0 10G12G29G26G18G05G15G25G02G30G21
 -11593027.41446  -9022057.75844  23338525.1804                   23338524.2344
 -16005221.66048 -12462087.93046  20992641.1334                   20992638.4804
 -11195866.89147  -8706990.24645  21800050.3834                   21800048.1134
   5767549.75046   4504627.27343  24169258.7034                   24169257.1294
 -19267856.09848 -15002074.41446  21634543.3594                   21634540.8484
  -5436138.83647  -4225390.52045  22408822.2584                   22408820.3754
 -12118890.82047  -9431718.73846  22362259.9454                   22362259.6454
 -20284854.42647 -15794369.41445  22652277.8834                   22652273.5164
  -8285318.78147  -6444094.40645  22722090.8594                   22722089.3954
   3449465.25846   2695342.18044  24420297.9064                   24420295.1994
 11  8 24  3  0 30.0000000  0 10G12G29G26G18G05G15G25G02G30G21
 -11523926.18047  -8968212.71945  23351675.8134                   23351674.0164
 -16086483.05547 -12525408.47746  20977177.6174                   20977175.0274
 -11278869.07447  -8771667.24645  21784255.5864                   21784253.1604
   5660738.73846   4421398.02743  24148933.7504                   24148931.3284
 -19217832.89148 -14963095.29346  21644062.4924                   21644059.4384
  -5547409.24247  -4312094.68445  22387648.2734                   22387646.4694
 -12083194.82847  -9403903.69146  22369052.6024                   22369052.4614
 -20260064.24647 -15775052.41445  22656994.9614                   22656990.8524
  -8242492.92247  -6410723.61745  22730239.8284                   22730238.6024
   3369156.08646   2632763.65243  24405015.6414                   24405012.1484
 11  8 24  3  1  0.0000000  0 10G12G29G26G18G05G15G25G02G30G21
 -11454749.00447  -8914308.48445  23364839.9304                   23364837.9304
 -16167401.96148 -12588462.14546  20961779.1254                   20961776.5124
 -11361371.34847  -8835954.70345  21768555.9384                   21768553.5394
   5554132.67246   4338328.44943  24128647.7274                   24128645.3794
 -19167569.64548 -14923929.12946  21653627.0084                   21653624.2734
  -5658448.24647  -4398618.52745  22366518.1334                   22366516.1134
 -12047143.64547  -9375811.86746  22375912.6484                   22375912.7974
 -20235165.84847 -15755651.10545  22661733.2894                   22661728.3874
  -8199363.02747  -6377115.93045  22738447.5164                   22738445.8794
   3288814.28546   2570159.71943  24389726.3984                   24389723.6374
 11  8 24  3  1 30.0000000  0 10G12G29G26G18G05G15G25G02G30G21
 -11385498.02747  -8860346.73045  23378017.6804                   23378015.9654
 -16247975.27748 -12651246.53546  20946446.3984                   20946443.8674
 -11443369.77747  -8899849.55945  21752952.2194                   21752949.7034
   5447733.65246   4255420.20743  24108399.3284                   24108398.0274
 -19117067.90248 -14884577.11346  21663237.6564                   21663234.0434
  -5769251.83247  -4484958.93445  22345433.1884                   22345430.8094
 -12010739.32047  -9347444.87546  22382840.3594                   22382840.6134
 -20210157.71947 -15736164.29745  22666491.9224                   22666487.6914
  -8155931.39547  -6343273.10545  22746712.1094                   22746710.6054
   3208440.41846   2507530.82444  24374431.6174                   24374428.8794
 11  8 24  3  2  0.0000000  0 10G12G29G26G18G05G15G25G02G30G21
 -11316177.43447  -8806330.74245  23391208.6884                   23391207.3324
 -16328201.74247 -12713760.64146  20931180.0474                   20931177.4534
 -11524862.54747  -8963350.38345  21737444.1564                   21737442.2194
   5341541.18846   4172672.92643  24088192.5394                   24088190.0164
 -19066331.32448 -14845042.12546  21672892.1094                   21672888.8674
  -5879818.17647  -4571114.47745  22324392.8674                   22324390.7624
 -11973985.97747  -9318805.93045  22389834.0864                   22389834.7664
 -20185041.09847 -15716592.94145  22671271.6724                   22671267.5314
  -8112202.36747  -6309198.55545  22755033.6644                   22755032.0864
   3128032.52346   2444875.35244  24359130.6954                   24359127.4494
 11  8 24  3  2 30.0000000  0 10G12G29G26G18G05G15G25G02G30G21
 -11246789.95747  -8752262.62145  23404413.1644                   23404411.4654
 -16408078.93047 -12776002.57446  20915980.1804                   20915977.2624
 -11605846.57447  -9026454.78945  21722033.4694                   21722031.5634
   5235556.77746   4090087.75843  24068024.5944                   24068021.7234
 -19015362.16048 -14805325.89546  21682591.0864                   21682588.2384
  -5990143.82047  -4657082.46145  22303398.6724                   22303396.6214
 -11936886.16847  -9289897.01645  22396894.3594                   22396894.4144
 -20159815.18747 -15696936.43045  22676071.8914                   22676067.8244
  -8068178.85247  -6274894.53145  22763411.3754                   22763409.2814
   3047590.65246   2382193.41443  24343822.8834                   24343819.4734
 11  8 24  3  3  0.0000000  0 10G12G29G26G18G05G15G25G02G30G21
 -11177336.75847  -8698143.29345  23417629.1564                   23417627.4264
 -16487602.51648 -12837968.98446  20900847.0164                   20900844.4104
 -11686316.33247  -9089158.46945  21706720.5784                   21706718.5554
   5129783.59446   4007667.19943  24047896.3984                   24047893.9064
 -18964160.45748 -14765428.46946  21692334.8524                   21692331.8674
  -6100223.94947  -4742859.13745  22282451.1414                   22282448.8164
 -11899440.57847  -9260718.65645  22404019.6334                   22404019.8954
 -20134477.16447 -15677192.54745  22680893.5084                   22680889.3714
  -8023861.83247  -6240361.80545  22771844.1334                   22771842.3364
   2967116.85946   2319486.62144  24328509.7034                   24328505.9654
 11  8 24  3  3 30.0000000  0 10G12G29G26G18G05G15G25G02G30G21
 -11107820.66046  -8643974.94544  23430858.0944                   23430856.4344
 -16566770.10248 -12899657.98846  20885781.8834                   20885779.3284
 -11766269.00447  -9151459.22345  21691506.0084                   21691503.8094
   5024221.94147   3925411.43443  24027808.7194                   24027805.7114
 -18912728.86348 -14725351.90646  21702121.9454                   21702118.5394
  -6210054.68447  -4828441.47745  22261550.6724                   22261548.7034
 -11861652.24247  -9231273.21545  22411210.1644                   22411210.8874
 -20109026.55547 -15657360.93045  22685736.7034                   22685732.2734
  -7979254.48047  -6205602.83645  22780332.9774                   22780330.3364
   2886610.61747   2256754.51643  24313190.0004                   24313185.6764
 11  8 24  3  4  0.0000000  0 10G12G29G26G18G05G15G25G02G30G21
 -11038246.39846  -8589761.30144  23444097.2974                   23444095.8054
 -16645581.16048 -12961069.18046  20870784.7504                   20870782.2194
 -11845703.34047  -9213356.08245  21676390.4534                   21676388.1604
   4918871.35247   3843320.15244  24007760.9844                   24007759.1724
 -18861071.61748 -14685099.51246  21711952.1174                   21711948.9774
  -6319635.31647  -4913828.92645  22240698.2584                   22240696.0204
 -11823525.92247  -9201564.43445  22418465.9064                   22418466.2384
 -20083464.67647 -15637442.62145  22690600.7344                   22690596.6914
  -7934361.96947  -6170621.68045  22788876.1644                   22788873.2154
   2806069.12147   2193994.95743  24297862.6024                   24297858.6524
 11  8 24  3  4 30.0000000  0 10G12G29G26G18G05G15G25G02G30G21
 -10968614.59046  -8535502.80144  23457347.7504                   23457346.1844
 -16724031.16848 -13022199.03147  20855855.9774                   20855853.5124
 -11924614.23448  -9274845.05945  21661373.7734                   21661371.5944
   4813735.22747   3761395.99643  23987754.0164                   23987751.4494
 -18809188.84848 -14644671.38346  21721824.7504                   21721821.6644
  -6428960.52047  -4999017.34845  22219894.0554                   22219891.9224
 -11785062.18447  -9171592.71945  22425785.4224                   22425785.8524
 -20057789.07447 -15617435.69145  22695486.8914                   22695482.6254
  -7889184.99247  -6135418.85945  22797472.7274                   22797470.4224
   2725494.50847   2131209.57843  24282530.6804                   24282525.9694
 11  8 24  3  5  0.0000000  0 10G12G29G26G18G05G15G25G02G30G21
 -10898930.66846  -8481203.68044  23470608.0164                   23470606.5744
 -16802119.95348 -13083047.40647  20840996.4694                   20840993.6954
 -12003000.78147  -9335925.45745  21646457.6804                   21646455.2114
   4708812.68846   3679638.24244  23967787.8054                   23967785.6254
 -18757085.25848 -14604071.19146  21731740.0864                   21731737.0594
  -6538029.36347  -5084006.00845  22199139.0554                   22199136.9964
 -11746266.23847  -9141362.12946  22433167.9454                   22433168.2114
 -20032001.47347 -15597341.48845  22700394.2114                   22700389.7034
  -7843729.03947  -6099998.64545  22806122.5864                   22806120.3364
   2644884.43847   2068396.57443  24267190.3284                   24267185.8714
 11  8 24  3  5 30.0000000  0 10G12G29G26G18G05G15G25G02G30G21
 -10829197.03946  -8426865.84844  23483877.9064                   23483876.2734
 -16879844.18748 -13143611.72346  20826206.0004                   20826202.9884
 -12080859.16447  -9396594.30145  21631641.6334                   21631639.4924
   4604105.02047   3598047.93043  23947862.8054                   23947860.4184
 -18704762.38348 -14563300.12946  21741696.5004                   21741693.4654
  -6646837.96147  -5168791.88345  22178433.5634                   22178431.2774
 -11707140.12948  -9110874.27046  22440613.5314                   22440613.9224
 -20006100.48047 -15577158.93445  22705323.3754                   22705318.3094
  -7797996.33647  -6064362.80945  22814825.0554                   22814823.4924
   2564239.33646   2005556.29743  24251844.1884                   24251840.2344
 11  8 24  3  6  0.0000000  0 10G12G29G26G18G05G15G25G02G30G21
 -10759414.32047  -8372489.74644  23497157.2894                   23497155.5434
 -16957199.71148 -13203888.73446  20811485.6884                   20811482.9804
 -12158184.28147  -9456847.60545  21616927.3364                   21616925.0394
   4499615.14846   3516627.37143  23927978.8204                   23927976.5704
 -18652220.44148 -14522358.35946  21751695.0234                   21751692.0664
  -6755380.70347  -5253370.58645  22157778.2814                   22157776.0164
 -11667684.58647  -9080129.72746  22448121.7894                   22448122.1954
 -19980083.45747 -15556885.94945  22710273.7584                   22710269.8674
  -7751987.98047  -6028512.17245  22823580.3054                   22823578.7384
   2483560.86346   1942690.00043  24236491.2584                   24236488.0594
 11  8 24  3  6 30.0000000  0 10G12G29G26G18G05G15G25G02G30G21
 -10689587.30147  -8318079.13744  23510445.5944                   23510443.4384
 -17034186.30148 -13263878.26247  20796835.5314                   20796832.7424
 -12234975.32047  -9516684.75446  21602313.9844                   21602311.9264
   4395342.29346   3435375.88744  23908135.7504                   23908134.5514
 -18599463.83648 -14481249.33246  21761733.9534                   21761731.1724
  -6863656.76647  -5337741.50445  22137174.0164                   22137171.9494
 -11627904.67647  -9049132.41846  22455691.6804                   22455691.5354
 -19953951.92647 -15536523.74245  22715246.2974                   22715242.0824
  -7705709.24647  -5992450.83645  22832386.5314                   22832385.1954
   2402846.76646   1879795.94143  24221131.5864                   24221128.5634
 11  8 24  3  7  0.0000000  0 10G12G29G26G18G05G15G25G02G30G21
 -10619717.79347  -8263635.40244  23523740.6564                   23523739.0744
 -17110800.06648 -13323577.27346  20782256.6644                   20782253.6214
 -12311228.13348  -9576102.49646  21587804.0704                   21587801.5274
   4291288.63346   3354295.21143  23888335.3054                   23888332.8634
 -18546493.49248 -14439973.74646  21771814.0004                   21771811.1094
  -6971661.92647  -5421901.32045  22116621.2894                   22116618.8404
 -11587801.91847  -9017883.53946  22463322.7894                   22463323.3554
 -19927704.13747 -15516070.92645  22720241.5944                   22720237.2974
  -7659161.82847  -5956180.16444  22841244.6174                   22841243.1334
   2322098.04346   1816874.91043  24205766.5474                   24205762.8284
 11  8 24  3  7 30.0000000  0 10G12G29G26G18G05G15G25G02G30G21
 -10549809.95347  -8209161.81644  23537043.6334                   23537042.1954
 -17187040.27748 -13382985.20347  20767748.5004                   20767745.8914
 -12386940.82447  -9635099.36745  21573396.1414                   21573393.5904
   4187453.77346   3273385.00843  23868576.2734                   23868574.0594
 -18493313.48048 -14398534.77046  21781933.8284                   21781931.2384
  -7079394.25047  -5505848.54745  22096120.6564                   22096118.6564
 -11547380.64547  -8986386.46146  22471014.6564                   22471015.1604
 -19901340.81647 -15495528.10245  22725257.9924                   22725253.7344
  -7612350.31647  -5919703.69145  22850152.5164                   22850150.7584
   2241313.03946   1753925.66043  24190392.8054                   24190390.4264
 11  8 24  3  8  0.0000000  0 10G12G29G26G18G05G15G25G02G30G21
 -10479867.38746  -8154661.16444  23550353.0554                   23550351.7974
 -17262905.57048 -13442100.99646  20753311.6414                   20753308.7234
 -12462111.88747  -9693674.18745  21559091.2034                   21559089.3284
   4083837.64546   3192645.24243  23848858.4774                   23848856.6684
 -18439927.01248 -14356934.91846  21792093.0784                   21792090.3634
  -7186851.79747  -5589581.66445  22075672.2894                   22075669.8984
 -11506644.77047  -8954644.25045  22478766.8364                   22478766.8914
 -19874862.47747 -15474895.65245  22730296.6094                   22730292.9414
  -7565278.85247  -5883024.66044  22859109.7114                   22859108.3594
   2160490.38346   1690947.05944  24175012.5394                   24175010.1914
 11  8 24  3  8 30.0000000  0 10G12G29G26G18G05G15G25G02G30G21
 -10409892.95747  -8100135.69544  23563669.4774                   23563667.9264
 -17338392.77348 -13500922.16047  20738947.2584                   20738944.1804
 -12536737.38348  -9751823.88745  21544890.5234                   21544888.2664
   3980442.03546   3112077.30943  23829182.5634                   23829180.7304
 -18386335.57848 -14315175.35946  21802290.9304                   21802288.2814
  -7294030.64847  -5673097.60545  22055276.2974                   22055274.0394
 -11465596.54747  -8922658.64545  22486577.6724                   22486578.4454
 -19848268.00847 -15454172.71945  22735357.3754                   22735353.7384
  -7517949.93747  -5846145.01645  22868116.1884                   22868115.0234
   2079630.32446   1627939.29344  24159625.9144                   24159623.4964
 11  8 24  3  9  0.0000000  0 10G12G29G26G18G05G15G25G02G30G21
 -10339889.80547  -8045587.84044  23576990.2344                   23576988.8444
 -17413499.71948 -13559447.03147  20724654.6254                   20724651.8364
 -12610815.05948  -9809546.71145  21530794.1414                   21530791.8834
   3877267.50046   3031681.65243  23809549.3524                   23809547.5124
 -18332541.89148 -14273258.21146  21812527.7274                   21812524.6334
  -7400928.13747  -5756394.30145  22034934.4844                   22034932.4184
 -11424239.21947  -8890432.17645  22494447.9304                   22494448.2384
 -19821557.02347 -15433358.98445  22740440.6254                   22740436.7544
  -7470366.89547  -5809067.36745  22877171.3364                   22877169.5704
   1998732.38747   1564902.02344  24144231.2974                   24144228.7704
 11  8 24  3  9 30.0000000  0 10G12G29G26G18G05G15G25G02G30G21
 -10269860.09847  -7991019.27744  23590316.6724                   23590315.3794
 -17488224.14148 -13617673.82847  20710434.7734                   20710432.2304
 -12684341.43448  -9866839.96146  21516802.9304                   21516799.9384
   3774315.12546   2951459.11343  23789958.3364                   23789955.4064
 -18278548.05548 -14231185.08646  21822802.3834                   21822799.3524
  -7507540.46947  -5839468.79745  22014647.0394                   22014644.4694
 -11382575.29747  -8857966.81645  22502376.2034                   22502376.2154
 -19794728.96547 -15412454.01645  22745545.5634                   22745541.5824
  -7422532.59847  -5771793.91445  22886273.5864                   22886271.9024
   1917796.91847   1501835.47344  24128829.9064                   24128827.1564
 11  8 24  3 10  0.0000000  0 10G12G29G26G18G05G15G25G02G30G21
 -10199807.32047  -7936432.75444  23603647.4384                   23603645.8164
 -17562564.29348 -13675601.19946  20696288.5474                   20696285.3834
 -12757314.58247  -9923702.11345  21502916.1884                   21502914.1174
   3671585.55546   2871410.17643  23770409.0004                   23770406.5784
 -18224356.98048 -14188958.27046  21833114.7194                   21833111.9064
  -7613865.57447  -5922319.47745  21994414.0314                   21994411.8444
 -11340608.48447  -8825265.41045  22510362.1334                   22510362.5044
 -19767783.80947 -15391457.80945  22750673.3754                   22750669.0394
  -7374450.89547  -5734327.68045  22895423.5234                   22895422.0474
   1836822.80947   1438738.85544  24113420.9774                   24113418.7074
 11  8 24  3 10 30.0000000  0 10G12G29G26G18G05G15G25G02G30G21
 -10129734.27347  -7881830.41444  23616981.5474                   23616980.3054
 -17636517.52048 -13733227.06647  20682215.4144                   20682212.6564
 -12829731.25848  -9980130.65246  21489135.9774                   21489133.7814
   3569080.05946   2791535.81643  23750903.1724                   23750900.0744
 -18169970.44548 -14146579.14546  21843464.3444                   21843461.0234
  -7719899.50847  -6004943.28146  21974236.1724                   21974233.6804
 -11298341.31247  -8792329.97345  22518405.8204                   22518405.4534
 -19740720.64847 -15370369.63745  22755823.2114                   22755819.1294
  -7326124.49647  -5696670.77044  22904619.4064                   22904617.6804
   1755810.06347   1375612.09044  24098004.3754                   24098002.1094
 11  8 24  3 11  0.0000000  0 10G12G29G26G18G05G15G25G02G30G21
 -10059642.75847  -7827213.71544  23630319.9064                   23630318.4774
 -17710080.23448 -13790548.62946  20668216.9924                   20668214.1804
 -12901587.75448 -10036122.68446  21475461.8364                   21475459.7154
   3466800.43447   2711837.46543  23731440.2504                   23731436.9224
 -18115389.75448 -14104048.73446  21853850.8364                   21853847.2974
  -7825638.48847  -6087337.23446  21954114.6564                   21954112.7034
 -11255775.69947  -8759161.96945  22526505.5004                   22526505.5944
 -19713537.86347 -15349188.25045  22760995.8674                   22760992.1174
  -7277555.62947  -5658824.93045  22913861.9224                   22913860.9144
   1674759.32047   1312455.74644  24082581.0864                   24082578.2464
 11  8 24  3 11 30.0000000  0 10G12G29G26G18G05G15G25G02G30G21
  -9989536.27046  -7772585.32844  23643660.3754                   23643659.0864
 -17783251.03948 -13847564.81646  20654292.9304                   20654290.1954
 -12972881.67648 -10091676.34445  21461895.0164                   21461892.6884
   3364746.89546   2632315.26644  23712019.3204                   23712016.9414
 -18060618.04348 -14061369.47346  21864273.1564                   21864269.8754
  -7931080.12947  -6169499.50046  21934050.0474                   21934047.7274
 -11212915.27047  -8725764.24645  22534661.5784                   22534661.5554
 -19686235.39147 -15327913.60945  22766192.0084                   22766187.6524
  -7228747.97347  -5620792.99645  22923149.9064                   22923147.4924
   1593670.14547   1249269.43444  24067150.4534                   24067148.0904
 11  8 24  3 12  0.0000000  0 10G12G29G26G18G05G15G25G02G30G21
  -9919419.10947  -7717948.63744  23657003.5704                   23657002.0004
 -17856029.29348 -13904275.12547  20640443.7114                   20640440.9884
 -13043612.04748 -10146790.86746  21448435.3754                   21448433.0354
   3262918.80946   2552968.77043  23692642.3594                   23692639.6954
 -18005659.12948 -14018544.33646  21874731.2814                   21874728.5634
  -8036222.68747  -6251428.71546  21914042.1174                   21914039.8134
 -11169764.44947  -8692140.24645  22542872.9844                   22542873.2074
 -19658814.44547 -15306546.65245  22771409.8134                   22771405.2544
  -7179706.20747  -5582578.66044  22932482.2894                   22932480.5514
   1512540.71947   1186051.75044  24051711.6884                   24051708.6524
 11  8 24  3 12 30.0000000  0 10G12G29G26G18G05G15G25G02G30G21
  -9849293.46147  -7663305.32444  23670348.5554                   23670346.5944
 -17928411.70348 -13960676.98446  20626669.6644                   20626666.9224
 -13113775.18748 -10201463.40646  21435083.9614                   21435081.6294
   3161317.66846   2473799.12944  23673308.4224                   23673305.7624
 -17950514.50448 -13975574.49646  21885225.1804                   21885222.2464
  -8141062.63747  -6333122.12946  21894091.5314                   21894089.4844
 -11126325.58648  -8658291.80545  22551139.3834                   22551138.6914
 -19631273.88747 -15285086.50045  22776650.5004                   22776646.5044
  -7130432.83247  -5544183.84845  22941858.6804                   22941857.2194
   1431371.26647   1122802.89544  24036265.8054                   24036263.1374
 11  8 24  3 13  0.0000000  0 10G12G29G26G18G05G15G25G02G30G21
  -9779159.07847  -7608655.21944  23683694.0314                   23683693.0354
 -18000393.22348 -14016766.46547  20612972.2344                   20612969.5354
 -13183365.55147 -10255689.61746  21421841.0944                   21421839.0004
   3059947.28547   2394809.25444  23654018.5704                   23654015.8754
 -17895183.29748 -13932459.26646  21895754.7274                   21895751.1524
  -8245593.71547  -6414574.86746  21874199.8754                   21874197.1684
 -11082598.65647  -8624218.89545  22559460.4304                   22559460.3874
 -19603610.02347 -15263530.25845  22781914.7504                   22781910.6414
  -7080928.09847  -5505608.73844  22951279.2584                   22951277.1884
   1350164.47747   1059524.91044  24020812.5164                   24020809.2584
 11  8 24  3 13 30.0000000  0 10G12G29G26G18G05G15G25G02G30G21
  -9709020.04347  -7554001.50044  23697041.3674                   23697040.2424
 -18071972.89848 -14072542.82047  20599350.7734                   20599348.3324
 -13252382.22748 -10309468.79745  21408707.7894                   21408705.4264
   2958807.27746   2315998.93044  23634772.3054                   23634769.1134
 -17839669.26248 -13889201.57046  21906318.2034                   21906315.1684
  -8349814.18447  -6495785.57046  21854367.4064                   21854365.1094
 -11038588.07447  -8589924.95345  22567835.1724                   22567835.5044
 -19575823.78147 -15241878.65245  22787202.0864                   22787198.2384
  -7031196.55147  -5466856.91045  22960742.8834                   22960741.1374
   1268918.64146    996216.51643  24005351.4064                   24005348.2074
 11  8 24  3 14  0.0000000  0 10G12G29G26G18G05G15G25G02G30G21
  -9638880.18447  -7499347.12944  23710388.6174                   23710387.1644
 -18143148.90248 -14128004.63347  20585806.8444                   20585803.7544
 -13320822.55948 -10362798.87545  21395683.8284                   21395681.3954
   2857898.10547   2237368.46544  23615569.7194                   23615566.7504
 -17783975.35948 -13845803.73046  21916916.5314                   21916913.7584
  -8453721.49247  -6576752.26246  21834594.3914                   21834591.6724
 -10994297.27047  -8555412.66446  22576263.5474                   22576264.0984
 -19547914.89847 -15220131.50445  22792513.2344                   22792508.7774
  -6981241.79747  -5427931.14844  22970248.6564                   22970246.6914
   1187633.24646    932877.29743  23989884.2504                   23989880.3524
